     2              OBSERVATION DATA    GPS                 RINEX VERSION / TYPE
teqc 1998Mar9 19981006 17:14:23UTC                          PGM / RUN BY / DATE
                                                            COMMENT
Original Marker Name: 0614                                  COMMENT
Campaign Name: HPGN 1998                                    COMMENT
4-Character Station Name: 0614                              COMMENT
6-Character Antenna Code: TRMCMP                            COMMENT
Vertical Measurement Point: BPA                             COMMENT
Vertical Offset to Rinex Ref. Point: 0.0000                 COMMENT
Radial Measurement Point: RRP                               COMMENT
Radial Offset to Rinex Ref. Point: 0.0000                   COMMENT
Antenna Height from Field Measurement: 2.0000 m             COMMENT
Original XYZ: -2480454.4292 -4551797.5740 3706125.9276      COMMENT
New XYZ position is based on association with SCEC monument COMMENT
E1F1M1C7+0011. Position of that monument is believed to be  COMMENT
valid to within 1 m horizontally; vertical accuracy         COMMENT
should be no worse than 3-times this value.                 COMMENT
                                                            COMMENT
Revised Rinex header created by UCSD GPS archive for        COMMENT
GSAC on 19-Apr-1999 (1999:109) 06:22:57 GMT                 COMMENT
For assistance contact dagnew@ucsd.edu or hjohnson@ucsd.edu COMMENT
                                                            COMMENT
HPGN CA 06 14                                               MARKER NAME
unknown CALIF DEPT TRANSPORTATION                           OBSERVER / AGENCY
11526 TRIMBLE 4000 SSE NP 7.25; SP 3.07                     REC # / TYPE / VERS
30426 TR GEOD L1/L2 GP                                      ANT # / TYPE
 -2480457.0000 -4551799.0000  3706129.0000                  APPROX POSITION XYZ
        2.0000        0.0000        0.0000                  ANTENNA: DELTA H/E/N
     1     1     0                                          WAVELENGTH FACT L1/2
     7    L1    L2    C1    P2    P1    D1    D2            # / TYPES OF OBSERV
     0                                                      INTERVAL
  1998     6    29    18    52   45.000000                  TIME OF FIRST OBS
  1998     6    30     0    24   15.000000                  TIME OF LAST OBS
                                                            END OF HEADER
 98  6 29 18 52 45.0000000  0  6G 5G 6G10G30G17G24
     67992.85756      3788.55155  22914641.3204   22914644.7544
     -4867.6564      -3792.9794
      -451.77057      -351.75757  20972516.8674   20972517.8754
        20.7194         16.1444
     44441.57357     34629.32956  21589199.3444   21589201.6764
     -3187.9374      -2484.1074
     28243.61557                  21174390.6954
     -3538.1874
     -8493.64756     -4224.21856  22397065.8054   22397069.0744
       595.2194        463.8074
     58042.29755     29096.51953  24003789.8204   24003793.8054
     -4155.2504      -3237.8574
 98  6 29 18 53  0.0000000  0  6G 5G 6G10G30G17G24
    141173.83846     60812.63045  22928567.3284   22928570.8914
     -4890.1724      -3810.5244
      -589.28547      -458.88447  20972490.6414   20972491.7304
        -2.7814         -2.1674
     92466.49647     72051.35746  21598337.9384   21598340.1644
     -3215.7974      -2505.8164
     81517.37147                  21184528.5554
     -3565.3124
    -17250.58046    -11047.75346  22395399.2664   22395402.3714
       572.0314        445.7394
    120507.16945     77770.43243  24015676.4384   24015681.3714
     -4173.7344      -3252.2614
 98  6 29 18 53 15.0000000  0  6G 5G 6G10G30G17G24
    214702.77846    118107.86045  22942559.2584   22942563.1134
     -4913.6564      -3828.8234
      -365.00047      -284.09047  20972533.0864   20972534.1294
       -27.0624        -21.0884
    140919.45847    109806.92346  21607558.5394   21607560.6954
     -3244.5474      -2528.2184
    135206.31747                  21194744.9694
     -3593.2034
    -25649.11846    -17592.01746  22393800.9924   22393803.8164
       547.8134        426.8674
    183258.45845    126667.53843  24027617.5234   24027621.3914
     -4193.0164      -3267.2854
 98  6 29 18 53 30.0000000  0  6G 5G 6G10G30G17G24
    288580.82246    175675.11845  22956617.8754   22956621.7664
     -4936.5624      -3846.6724
       221.43447       172.89247  20972645.3054   20972646.2544
       -50.9534        -39.7044
    189801.40347    147896.75946  21616860.6174   21616862.8094
     -3272.8594      -2550.2804
    189312.02747     36554.51357  21205041.2344   21205042.6994
     -3620.7504      -2821.3644
    -33687.11846    -23855.34646  22392271.3914   22392274.2034
       524.0784        408.3734
    246295.31445    175787.09443  24039613.1884   24039618.4384
     -4211.7034      -3281.8474
 98  6 29 18 53 45.0000000  0  6G 5G 6G10G30G17G24
    362806.05046    233512.90045  22970742.4534   22970746.0274
     -4959.8754      -3864.8384
      1168.94447       911.23847  20972825.1414   20972826.0434
       -75.1094        -58.5274
    239112.90047    186321.31646  21626244.2274   21626246.0784
     -3301.7814      -2572.8174
    243836.31647     79040.97247  21215416.8444   21215418.4024
     -3648.9374      -2843.3284
    -41364.73546    -29837.85646  22390810.3284   22390813.0124
       499.8444        389.4894
    309617.09345    225128.76643  24051662.6334   24051666.1134
     -4231.0004      -3296.8834
 98  6 29 18 54  0.0000000  0  6G 5G 6G10G30G17G24
    437366.85846    291612.18845  22984931.4534   22984935.1214
     -4981.6414      -3881.7984
      2463.09347      1919.69047  20973071.5084   20973072.3284
       -97.5944        -76.0474
    288845.24647    225073.80746  21635707.8284   21635709.7504
     -3329.3284      -2594.2824
    298769.72847    121846.21847  21225870.3754   21225871.8054
     -3675.6414      -2864.1364
    -48692.77146    -35547.97146  22389415.7894   22389418.5554
       477.0634        371.7374
    373214.55045    274685.18543  24063764.9924   24063769.3634
     -4248.7504      -3310.7144
 98  6 29 18 54 15.0000000  0  6G 5G 6G10G30G17G24
    512254.85246    349966.41145  22999181.7034   22999185.9454
     -5003.0474      -3898.4784
      4096.74847      3192.69047  20973382.3444   20973383.1414
      -119.8594        -93.3974
    338992.36147    264149.48546  21645250.3984   21645252.5084
     -3356.6094      -2615.5404
    354104.36047    164964.11047  21236400.1564   21236401.6214
     -3701.9224      -2884.6144
    -55675.92346    -40989.33646  22388086.8364   22388089.7074
       454.3594        354.0464
    437078.42445    324449.20543  24075917.6024   24075921.3054
     -4266.0624      -3324.2054
 98  6 29 18 54 30.0000000  0  6G 5G 6G10G30G17G24
    587458.48646    408566.59845  23013492.5704   23013496.9184
     -5024.2504      -3915.0004
      6058.84547      4721.62147  20973755.9454   20973756.5904
      -141.8754       -110.5524
    389544.94247    303541.11846  21654870.5004   21654872.6564
     -3383.8594      -2636.7744
    409827.77247    208384.94747  21247004.2114   21247005.6294
     -3727.9694      -2904.9114
    -62322.16546    -46168.18346  22386822.0704   22386825.0594
       431.6884        336.3804
    501198.02845    374412.50044  24088119.9304   24088124.4414
     -4283.3284      -3337.6584
 98  6 29 18 54 45.0000000  0  6G 5G 6G10G30G17G24
    662980.88146    467415.16045  23027863.8984   23027868.2114
     -5045.1874      -3931.3154
      8349.73047      6506.74347  20974191.6884   20974192.3204
      -163.3594       -127.2934
    440503.99747    343249.47546  21664567.3594   21664569.9494
     -3410.3914      -2657.4474
    465940.38747    252109.05347  21257682.2664   21257683.6954
     -3753.4694      -2924.7814
    -68629.26846    -51082.76446  22385621.9774   22385625.0234
       409.5164        319.1034
    565574.51645    424575.97943  24100370.2034   24100375.6174
     -4299.9844      -3350.6374
 98  6 29 18 55  0.0000000  0  6G 5G 6G10G30G17G24
    738810.50345    526503.12245  23042294.1414   23042298.5354
     -5065.3754      -3947.0454
     10956.46847      8537.99147  20974687.9224   20974688.6954
      -184.1724       -143.5114
    491851.64047    383260.63646  21674338.5474   21674340.7274
     -3435.8914      -2677.3174
    522428.21147    296125.53447  21268431.3284   21268432.4534
     -3778.2664      -2944.1034
    -74612.89346    -55745.28846  22384483.4924   22384486.0824
       388.4064        302.6544
    630193.99245    474928.79443  24112666.4924   24112670.1374
     -4315.9064      -3363.0444
 98  6 29 18 55 15.0000000  0  6G 5G 6G10G30G17G24
    814934.52546    585820.47045  23056780.3054   23056784.4064
     -5084.6254      -3962.0454
     13866.87847     10805.86747  20975241.7974   20975242.7464
      -204.0004       -158.9614
    543573.64947    423563.50646  21684181.0944   21684183.0164
     -3460.5474      -2696.5304
    579282.65347    340427.69047  21279250.3364   21279251.4024
     -3802.5164      -2962.9994
    -80287.93946    -60167.36246  22383403.2814   22383406.0594
       368.1254        286.8514
    695045.91045    525462.76643  24125007.5474   24125012.6564
     -4331.2194      -3374.9764
 98  6 29 18 55 30.0000000  0  6G 5G 6G10G30G17G24
    891348.66546    645363.92345  23071321.2584   23071324.9614
     -5103.8754      -3977.0454
     17075.30247     13305.96147  20975852.2114   20975853.0904
      -223.7664       -174.3634
    595666.23747    464155.14246  21694094.1174   21694096.3554
     -3485.0944      -2715.6574
    636503.13047    385015.06447  21290139.1414   21290140.2424
     -3826.8444      -2981.9564
    -85656.95146    -64350.96446  22382381.9224   22382384.6884
       347.8754        271.0714
    760129.42945    576177.16143  24137392.2894   24137396.1454
     -4346.5474      -3386.9204
 98  6 29 18 55 45.0000000  0  6G 5G 6G10G30G17G24
    968049.65045    705130.84745  23085917.0234   23085920.8674
     -5122.5784      -3991.6194
     20579.65747     16036.64847  20976519.2194   20976520.0634
      -243.0624       -189.3994
    648125.12147    505032.20346  21704076.8284   21704079.0664
     -3509.0314      -2734.3104
    694087.83047    429886.25347  21301097.0944   21301098.1954
     -3850.7194      -3000.5604
    -90725.37646    -68300.34346  22381417.1724   22381419.7034
       328.2814        255.8044
    825441.55245    627069.65843  24149821.1804   24149824.2624
     -4361.3914      -3398.4864
 98  6 29 18 56  0.0000000  0  6G 5G 6G10G30G17G24
   1044988.75546    765083.34445  23100557.8674   23100562.1094
     -5137.4374      -4003.1984
     24330.26347     18959.21747  20977232.7974   20977233.3954
      -258.5164       -201.4414
    700900.65247    546156.00046  21714119.4844   21714121.4414
     -3529.1874      -2750.0164
    751987.27347    475002.69147  21312115.2504   21312116.3524
     -3870.6254      -3016.0714
    -95541.69646    -72053.28046  22380500.5234   22380502.9734
       312.4534        243.4704
    890934.45244    678103.12743  24162283.0314   24162286.3134
     -4372.5004      -3407.1434
 98  6 29 18 56 15.0000000  0  6G 5G 6G10G30G17G24
   1122184.08546    825235.48745  23115247.6094   23115251.9104
     -5155.1724      -4017.0174
     28346.09847     22088.46047  20977996.9224   20977997.6484
      -276.9374       -215.7954
    754010.32347    587540.16946  21724225.6804   21724227.5784
     -3552.0004      -2767.7924
    810216.76347    520376.31247  21323195.7584   21323196.9414
     -3893.2344      -3033.6894
   -100089.28746    -75596.80946  22379635.3754   22379638.0004
       293.9534        229.0544
    956627.88944    729292.74343  24174785.2734   24174789.6454
     -4386.5944      -3418.1254
 98  6 29 18 56 30.0000000  0  6G 5G 6G10G30G17G24
   1199642.22646    885592.41845  23129987.6954   23129991.5274
     -5172.4374      -4030.4714
     32637.08147     25432.10347  20978813.3984   20978814.2544
      -295.0624       -229.9194
    807457.79547    629187.55646  21734396.6884   21734398.7854
     -3574.1874      -2785.0814
    868782.06947    566011.60947  21334340.2584   21334341.3834
     -3915.3444      -3050.9174
   -104362.62846    -78926.64246  22378821.9144   22378824.8914
       275.9694        215.0414
   1022532.02845    780646.58443  24187326.3674   24187332.0744
     -4400.4374      -3428.9124
 98  6 29 18 56 45.0000000  0  6G 5G 6G10G30G17G24
   1277362.52145    946153.63645  23144777.2504   23144781.3524
     -5189.9534      -4044.1194
     37203.72247     28990.54447  20979682.2274   20979683.1054
      -313.5474       -244.3224
    861241.15147    671096.67246  21744631.2664   21744633.6914
     -3596.5474      -2802.5044
    927682.25747    611907.84347  21345548.7814   21345549.9184
     -3937.7034      -3068.3404
   -108363.09146    -82043.84446  22378060.7734   22378063.7154
       257.7814        200.8694
   1088646.91045    832164.65643  24199907.1804   24199913.3324
     -4414.5164      -3439.8824
 98  6 29 18 57  0.0000000  0  6G 5G 6G10G30G17G24
   1355342.97245   1006917.54845  23159616.7814   23159620.6954
     -5207.2814      -4057.6224
     42046.02047     32763.78047  20980603.5784   20980604.2464
      -332.0004       -258.7014
    915356.11247    713264.17146  21754928.9454   21754931.2894
     -3618.7034      -2819.7694
    986916.50547    658064.39647  21356820.7664   21356821.8794
     -3960.0944      -3085.7874
   -112093.37946    -84950.52546  22377350.9774   22377353.9774
       239.7194        186.7944
   1154969.59945    883844.61643  24212528.3754   24212533.2854
     -4428.4534      -3450.7434
 98  6 29 18 57 15.0000000  0  6G 5G 6G10G30G17G24
   1433579.62946   1067881.12245  23174504.7344   23174508.8364
     -5224.2344      -4070.8324
     47163.02047     36751.07247  20981577.7814   20981578.4494
      -350.2504       -272.9224
    969803.31447    755690.56846  21765289.8284   21765291.9024
     -3640.9694      -2837.1194
   1046484.48047    704480.98647  21368156.0944   21368157.2424
     -3982.3124      -3103.1014
   -115554.96946    -87647.82746  22376692.2424   22376695.2544
       221.8134        172.8414
   1221500.55945    935686.89443  24225188.5704   24225192.8134
     -4442.3444      -3461.5674
 98  6 29 18 57 30.0000000  0  7G 5G 6G10G30G17G13G24
   1512073.35845   1129045.00045  23189441.5554   23189445.3984
     -5241.4064      -4084.2134
     52556.59947     40953.88047  20982603.9384   20982604.7234
      -368.7344       -287.3254
   1024588.57047    798380.38246  21775715.3054   21775717.5554
     -3663.5164      -2854.6874
   1106388.79547    751159.66547  21379555.4454   21379556.5124
     -4004.6724      -3120.5244
   -118744.02146    -90132.76246  22376085.1334   22376088.0044
       203.6254        158.6694
     13554.15251                  24986319.8834
     -1362.8444
   1288243.73345    987694.54043  24237889.9924   24237894.7734
     -4456.5624      -3472.6464
 98  6 29 18 57 45.0000000  0  7G 5G 6G10G30G17G13G24
   1590818.32645   1190404.64845  23204426.4384   23204430.2114
     -5258.0004      -4097.1434
     58222.50647     45368.89247  20983681.9774   20983682.9734
      -386.8754       -301.4614
   1079703.39547    841327.00346  21786203.1884   21786205.4264
     -3685.2664      -2871.6364
   1166620.05847    798093.10047  21391017.2974   21391018.4694
     -4026.2974      -3137.3744
   -121668.07146    -92411.20046  22375528.7344   22375531.7464
       186.1724        145.0694
     34159.00341                  24990242.3834
     -1384.6254
   1355193.33845   1039863.04443  24250629.7504   24250635.0594
     -4470.2344      -3483.3004
 98  6 29 18 58  0.0000000  0  7G 5G 6G10G30G17G13G24
   1669808.27446   1251955.19445  23219457.6024   23219461.0594
     -5274.0164      -4109.6234
     64157.14147     49993.30347  20984811.2814   20984812.3244
      -404.4224       -315.1344
   1135141.41447    884525.46446  21796752.7424   21796754.8874
     -3706.5164      -2888.1944
   1227172.52847    845276.83847  21402539.7894   21402540.8914
     -4047.3754      -3153.7994
   -124332.93746    -94487.68546  22375021.5784   22375024.2154
       169.0784        131.7494
        -1.43251                  24994224.5164
     -1405.8594
   1422345.71045   1092189.48743  24263408.3754   24263412.8524
     -4483.4534      -3493.6004
 98  6 29 18 58 15.0000000  0  7G 5G 6G10G30G17G13G24
   1749042.46145   1313696.05145  23234535.5784   23234539.1764
     -5290.1094      -4122.1634
     70360.35447     54826.99347  20985991.8204   20985992.8874
      -422.2814       -329.0504
   1190903.78347    927976.66346  21807363.8444   21807366.1414
     -3727.9844      -2904.9234
   1288045.70047    892710.46447  21414123.6254   21414124.7384
     -4068.6414      -3170.3694
   -126736.62946    -96360.65346  22374564.0314   22374566.7974
       151.8444        118.3204
     21252.11041                  24998269.1644
     -1427.5474
   1489701.73845   1144674.71343  24276226.0864   24276230.9614
     -4496.9224      -3504.0954
 98  6 29 18 58 30.0000000  0  7G 5G 6G10G30G17G13G24
   1828514.04945   1375621.89645  23249658.6254   23249662.6094
     -5306.0164      -4134.5584
     76829.10647     59867.59547  20987222.8594   20987223.9024
      -440.1254       -342.9554
   1246983.87347    971675.43446  21818035.8284   21818038.1134
     -3749.2814      -2921.5184
   1349235.75247    940391.00747  21425767.8204   21425768.7814
     -4089.9694      -3186.9894
   -128884.30846    -98034.12946  22374155.5864   22374158.1294
       134.5634        104.8544
     42826.67241                  25002374.4694
     -1449.0474
   1557254.73045   1197313.38743  24289080.8524   24289084.4734
     -4510.0624      -3514.3344
 98  6 29 18 58 45.0000000  0  7G 5G 6G10G30G17G13G24
   1908224.25645   1437733.66945  23264827.1414   23264831.4184
     -5322.1414      -4147.1234
     83564.03447     65115.61147  20988504.4454   20988505.5824
      -457.9224       -356.8224
   1303383.34547   1015623.08546  21828768.1724   21828770.5514
     -3770.7814      -2938.2714
   1410745.72547    988320.84447  21437472.7734   21437473.7344
     -4111.4694      -3203.7424
   -130772.30746    -99505.25246  22373796.3754   22373798.6254
       117.0474         91.2054
     64723.51241                  25006541.2734
     -1470.5784
   1625003.29945   1250104.41943  24301973.6024   24301978.2304
     -4523.1414      -3524.5254
 98  6 29 18 59  0.0000000  0  7G 5G 6G10G30G17G13G24
   1988171.92445   1500030.49045  23280040.4304   23280044.1454
     -5337.7664      -4159.2984
     90560.89547     70567.72847  20989835.8204   20989836.9574
      -475.2194       -370.3004
   1360100.55047   1059818.30546  21839560.9694   21839563.5944
     -3791.7344      -2954.5984
   1472573.90647   1036498.63847  21449238.3834   21449239.3324
     -4132.5624      -3220.1794
   -132402.52746   -100775.51246  22373485.9694   22373488.5474
       100.1094         78.0074
     86939.47741                  25010768.9224
     -1491.7814
   1692943.71645   1303044.98443  24314901.8674   24314905.5824
     -4535.8284      -3534.4124
 98  6 29 18 59 15.0000000  0  7G 5G 6G10G30G17G13G24
   2068355.15945   1562510.86145  23295298.8364   23295303.2074
     -5353.2034      -4171.3274
     97818.07147     76222.69147  20991216.7034   20991217.7464
      -492.2664       -383.5844
   1417133.62647   1104259.66446  21850414.1094   21850416.3134
     -3812.5784      -2970.8404
   1534720.11547   1084924.23947  21461064.4454   21461065.5944
     -4153.4224      -3236.4334
   -133777.76546   -101847.08846  22373224.4844   22373227.1914
        83.4064         64.9924
    109473.52542                  25015055.7814
     -1512.5944
   1761075.76845   1356134.86543  24327866.8754   24327871.3164
     -4548.3284      -3544.1524
 98  6 29 18 59 30.0000000  0  7G 5G 6G10G30G17G13G24
   2148769.84945   1625171.59845  23310601.6954   23310605.7154
     -5368.7814      -4183.4664
    105330.81447     82076.78947  20992646.3364   20992647.3324
      -509.4224       -396.9524
   1474479.72947   1148944.94846  21861326.9774   21861328.9224
     -3833.5314      -2987.1674
   1597177.84047   1133592.58447  21472949.6724   21472950.8094
     -4174.2814      -3252.6874
   -134902.80346   -102723.70046  22373010.0784   22373012.9494
        66.6254         51.9164
    132317.42742                  25019404.3364
     -1533.2194
   1829394.97145   1409370.58642  24340867.6484   24340871.7384
     -4560.8754      -3553.9294
 98  6 29 18 59 45.0000000  0  7G 5G 6G10G30G17G13G24
   2229415.39745   1688012.19845  23325947.5704   23325952.0704
     -5384.2034      -4195.4834
    113097.79147     88128.99747  20994124.5314   20994125.4104
      -526.4534       -410.2234
   1532135.99847   1193871.90946  21872298.4454   21872300.7304
     -3854.2344      -3003.3004
   1659945.11347   1182502.13747  21484893.8524   21484895.0234
     -4194.9224      -3268.7704
   -135780.90046   -103407.89046  22372842.9694   22372845.8164
        50.1884         39.1074
    155466.83642                  25023809.5314
     -1553.6874
   1897898.78445   1462750.14143  24353903.3834   24353907.9654
     -4573.2034      -3563.5354
 98  6 29 19  0  0.0000000  0  7G 5G 6G10G30G17G13G24
   2310287.27845   1751029.18845  23341337.6954   23341341.5514
     -5398.9534      -4206.9764
    121116.50747     94377.36247  20995650.3984   20995651.3014
      -542.9534       -423.0804
   1590099.63147   1239038.37646  21883328.3754   21883330.7664
     -3874.5944      -3019.1644
   1723018.34647   1231650.09947  21496896.4614   21496897.5514
     -4215.1254      -3284.5134
   -136415.66646   -103902.47246  22372722.2974   22372725.0514
        34.1564         26.6154
    178920.15042                  25028271.6414
     -1573.6724
   1966582.23345   1516269.66843  24366973.6804   24366978.0044
     -4584.7814      -3572.5574
 98  6 29 19  0 15.0000000  0  7G 5G 6G10G30G17G13G24
   2391389.49445   1814225.63945  23356771.1644   23356775.5944
     -5414.2504      -4218.8964
    129390.87247    100824.94147  20997224.6414   20997225.6844
      -559.8914       -436.2784
   1648378.52847   1284450.50546  21894418.6644   21894420.8674
     -3895.5314      -3035.4794
   1786403.20047   1281040.88347  21508958.0944   21508959.5944
     -4235.7504      -3300.5844
   -136799.82146   -104201.76646  22372649.0474   22372651.9304
        17.4224         13.5754
    202679.91142                  25032793.5704
     -1593.8594
   2035447.04645   1569930.53643  24380078.6484   24380082.4454
     -4596.8124      -3581.9324
 98  6 29 19  0 30.0000000  0  7G 5G 6G10G30G17G13G24
   2472729.90245   1877607.70545  23372249.2114   23372253.5824
     -5431.0004      -4231.9484
    137928.25647    107477.46047  20998849.3284   20998850.2424
      -578.2814       -450.6094
   1706981.15947   1330114.89846  21905570.5634   21905572.8134
     -3918.0164      -3052.9994
   1850106.08247   1330679.47747  21521080.4384   21521081.8794
     -4257.8284      -3317.7884
   -136923.59146   -104298.17946  22372625.4064   22372628.1724
        -0.8124         -0.6334
    226750.83243                  25037374.0864
     -1615.4374
   2104501.13745   1623738.89643  24393218.8674   24393223.2384
     -4610.2664      -3592.4154
 98  6 29 19  0 45.0000000  0  7G 5G 6G10G30G17G13G24
   2554311.70545   1941177.87245  23387773.6884   23387777.3324
     -5446.5314      -4244.0504
    146729.44347    114335.54147  21000524.1954   21000525.1094
      -595.1414       -463.7464
   1765910.60847   1376033.94946  21916784.0474   21916786.0984
     -3939.2034      -3069.5094
   1914127.42947   1380566.22847  21533263.1254   21533264.4024
     -4278.2664      -3333.7134
   -136784.96646   -104190.12446  22372651.7114   22372654.5354
       -17.5944        -13.7094
    251134.66744                  25042014.2034
     -1635.6254
   2173746.85445   1677696.54743  24406395.7504   24406399.7464
     -4622.4694      -3601.9244
 98  6 29 19  1  0.0000000  0  7G 5G 6G10G30G17G13G24
   2636124.50245   2004928.02945  23403342.3054   23403346.5704
     -5461.5164      -4255.7264
    155781.90647    121389.42747  21002246.9844   21002247.8164
      -611.6254       -476.5914
   1825156.09747   1422199.26546  21928058.1954   21928060.4804
     -3959.9064      -3085.6414
   1978452.24947   1430689.44547  21545503.9694   21545505.3404
     -4298.0784      -3349.1524
   -136397.22346   -103887.94746  22372725.4924   22372728.2464
       -33.8124        -26.3474
    275816.43344                  25046710.3134
     -1655.1094
   2243173.94745   1731795.56843  24419607.3364   24419612.6334
     -4634.2194      -3611.0804
 98  6 29 19  1 15.0010000  0  7G 5G 6G10G30G17G13G24
   2718160.17845   2068851.86145  23418953.1774   23418958.1694
     -5475.8444      -4266.8914
    165078.14447    128633.26747  21004016.0134   21004016.9504
      -627.7664       -489.1684
   1884710.24047   1468605.09646  21939391.1224   21939393.1614
     -3980.0944      -3101.3724
   2043071.79247   1481042.32747  21557800.3884   21557801.8294
     -4317.2664      -3364.1034
   -135773.49446   -103401.88746  22372844.4974   22372847.0404
       -49.3444        -38.4504
    300788.30245                  25051463.3964
     -1674.2504
   2312776.77345   1786031.49243  24432852.1614   24432856.9894
     -4645.5164      -3619.8824
 98  6 29 19  1 30.0010000  0  7G 5G 6G10G30G17G13G24
   2800404.95645   2132938.61745  23434604.0524   23434608.4234
     -5490.0624      -4277.9714
    174615.12347    136064.69247  21005830.8564   21005831.6884
      -643.7814       -501.6484
   1944562.61247   1515243.30946  21950780.6464   21950782.6264
     -4000.1564      -3117.0054
   2107973.41347   1531615.00747  21570150.9584   21570152.4814
     -4336.2344      -3378.8844
   -134916.34746   -102733.95146  22373007.3964   22373009.8214
       -64.8914        -50.5644
    326045.70044                  25056269.4274
     -1693.3444
   2382544.28945   1840395.77943  24446128.7004   24446133.1304
     -4656.7814      -3628.6614
 98  6 29 19  1 45.0010000  0  7G 5G 6G10G30G17G13G24
   2882861.69045   2197190.55645  23450294.8254   23450298.7634
     -5504.3594      -4289.1114
    184390.50447    143681.88847  21007690.9504   21007691.8764
      -659.8284       -514.1524
   2004713.09447   1562113.81746  21962226.7394   21962228.8844
     -4020.0474      -3132.5044
   2173157.65647   1582407.90447  21582555.2004   21582556.7124
     -4355.2344      -3393.6894
   -133827.82146   -101885.70946  22373214.5364   22373217.0324
       -80.4694        -62.7034
    351589.17744      3997.44552  25061129.3964   25061133.7904
     -1712.7504      -1334.6104
   2452479.88745   1894891.00743  24459437.0914   24459443.2784
     -4668.1564      -3637.5244
 98  6 29 19  2  0.0010000  0  7G 5G 6G10G30G17G13G24
   2965532.59445   2261609.35945  23466026.6774   23466030.6614
     -5518.4374      -4300.0814
    194408.33547    151488.00547  21009597.2714   21009598.2784
      -675.8914       -526.6684
   2065159.96747   1609215.27746  21973729.3964   21973731.3534
     -4039.5784      -3147.7234
   2238626.22447   1633422.35847  21595013.6534   21595015.3294
     -4373.8914      -3408.2264
   -132504.62646   -100854.60946  22373466.3884   22373468.8844
       -96.0784        -74.8664
    377425.99844     24130.03842  25066046.4894   25066049.0564
     -1732.1874      -1349.7564
   2522584.89245   1949518.25543  24472777.5284   24472781.3134
     -4679.1724      -3646.1084
 98  6 29 19  2 15.0010000  0  7G 5G 6G10G30G17G13G24
   3048411.53045   2326190.26845  23481797.7314   23481802.2904
     -5532.3594      -4310.9294
    204663.29847    159478.90247  21011548.7394   21011549.8064
      -691.6414       -538.9414
   2125896.17347   1656542.19446  21985287.0914   21985289.1424
     -4058.7814      -3162.6874
   2304370.73447   1684651.83247  21607524.0914   21607525.5444
     -4392.2344      -3422.5204
   -130947.90746    -99641.55446  22373762.4664   22373765.0914
      -111.6414        -86.9934
    403550.68944     44486.99042  25071017.4814   25071018.5604
     -1751.3444      -1364.6834
   2592852.57045   2004272.27943  24486149.0994   24486153.7984
     -4690.0784      -3654.6064
 98  6 29 19  2 30.0010000  0  7G 5G 6G10G30G17G13G24
   3131499.75645   2390934.27145  23497609.7784   23497615.2514
     -5546.2194      -4321.7294
    215153.16147    167652.83947  21013545.1304   21013546.2204
      -707.1874       -551.0554
   2186917.92047   1704091.61246  21996899.2784   21996901.5284
     -4077.6254      -3177.3704
   2370388.65247   1736094.34947  21620087.1774   21620088.8064
     -4410.3284      -3436.6194
   -129159.85346    -98248.22846  22374102.8884   22374105.2674
      -126.9374        -98.9124
    429962.86344     65067.91542  25076043.5674   25076046.7314
     -1770.5164      -1379.6234
   2663284.83245   2059154.50743  24499552.0214   24499557.0014
     -4701.0784      -3663.1784
 98  6 29 19  2 45.0010000  0  7G 5G 6G10G30G17G13G24
   3214786.17645   2455832.68645  23513458.3334   23513462.9744
     -5558.7664      -4331.5064
    225868.02847    176002.09947  21015583.7944   21015584.8134
      -721.6564       -562.3304
   2248212.77147   1751853.82746  22008563.1304   22008565.4744
     -4095.1254      -3191.0064
   2436668.76247   1787741.17247  21632699.8024   21632701.4194
     -4427.1564      -3449.7324
   -127152.84246    -96684.29346  22374484.8804   22374487.5874
      -140.7974       -109.7124
    456657.10743     85868.68242  25081123.5994   25081125.5444
     -1788.8754      -1393.9294
   2733872.58045   2114157.94943  24512984.2164   24512988.1654
     -4710.7344      -3670.7024
 98  6 29 19  3  0.0010000  0  7G 5G 6G10G30G17G13G24
   3298254.00245   2520872.47245  23529342.3564   23529346.4584
     -5570.4694      -4340.6254
    236796.61747    184517.89347  21017663.6854   21017664.5404
      -735.7504       -573.3124
   2309763.23447   1799815.22246  22020275.9194   22020278.4384
     -4111.8124      -3204.0104
   2503195.00247   1839579.78546  21645359.2784   21645360.7314
     -4443.2814      -3462.2974
   -124944.69946    -94963.63046  22374904.8494   22374907.6854
      -153.8914       -119.9154
    483621.43843    106879.86542  25086255.1384   25086256.0284
     -1806.5944      -1407.7354
   2804598.38045   2169268.91243  24526443.5754   24526447.4544
     -4719.5624      -3677.5814
 98  6 29 19  3 15.0010000  0  8G 5G 6G10G30G17G13G24G26
   3381901.31245   2586052.12645  23545259.5604   23545264.0484
     -5582.3444      -4349.8784
    247942.99647    193203.39747  21019784.5524   21019785.3374
      -750.2344       -584.5984
   2371569.47547   1847975.93046  22032037.2554   22032039.4464
     -4128.8124      -3217.2564
   2569969.50947   1891611.85446  21658065.9424   21658067.4664
     -4459.8124      -3475.1794
   -122534.01746    -93085.14546  22375363.7244   22375366.2434
      -167.3444       -130.3984
    510858.05443    128103.22442  25091438.2634   25091436.5054
     -1824.7974      -1421.9204
   2875460.48045   2224486.13043  24539927.9894   24539932.8994
     -4728.5784      -3684.6064
     -3468.51252                  24611819.2784
       692.0944
 98  6 29 19  3 30.0010000  0  8G 5G 6G10G30G17G13G24G26
   3465726.50445   2651370.36145  23561210.6614   23561215.4314
     -5594.3444      -4359.2294
    259305.31647    202057.16447  21021946.9114   21021947.5914
      -764.7034       -595.8734
   2433629.20147   1896334.15446  22043846.8254   22043848.7354
     -4145.7974      -3230.4914
   2636991.81247   1943837.00746  21670820.0214   21670821.8254
     -4476.4694      -3488.1574
   -119922.50046    -91050.16846  22375860.4354   22375863.2824
      -180.9064       -140.9664
    538367.09443    149538.90842  25096672.0994   25096672.0874
     -1843.0164      -1436.1164
   2946457.39545   2279808.36543  24553438.0674   24553444.0914
     -4737.5944      -3691.6314
    -13770.60943                  24609858.0284
       681.5634
 98  6 29 19  3 45.0010000  0  8G 5G 6G10G30G17G13G24G26
   3549725.51045   2716824.05745  23577195.7784   23577201.1924
     -5605.5314      -4367.9464
    270878.67347    211075.37947  21024149.1534   21024149.9274
      -778.4224       -606.5624
   2495938.16747   1944886.59646  22055703.8804   22055705.7784
     -4162.0784      -3243.1784
   2704258.22247   1996252.37846  21683620.0754   21683621.5174
     -4492.3444      -3500.5284
   -117110.75146    -88859.16746  22376395.3334   22376398.0284
      -193.9374       -151.1204
    566142.23643    171181.90041  25101957.6854   25101958.6694
     -1860.2814      -1449.5704
   3017582.79745   2335230.73243  24566973.3254   24566979.4074
     -4745.7344      -3697.9754
    -23920.43344                  24607926.7864
       671.7814
 98  6 29 19  4  0.0010000  0  8G 5G 6G10G30G17G13G24G26
   3633890.06045   2782406.74545  23593211.5834   23593216.1654
     -5616.3594      -4376.3844
    282655.96447    220252.50547  21026390.3644   21026391.2434
      -791.9224       -617.0824
   2558489.56247   1993627.94246  22067606.9814   22067609.0794
     -4178.1254      -3255.6824
   2771759.39947   2048850.67547  21696465.3024   21696466.8724
     -4507.8444      -3512.6064
   -114105.80146    -86517.62546  22376967.1924   22376969.9584
      -206.7664       -161.1164
    594173.86143    193024.68441  25107292.0994   25107294.4664
     -1877.2034      -1462.7564
   3088826.90245   2390745.62243  24580530.1774   24580535.3924
     -4753.4534      -3703.9894
    -33927.50044                  24606022.7164
       662.5784
 98  6 29 19  4 15.0010000  0  8G 5G 6G10G30G17G13G24G26
   3718218.95945   2848117.50145  23609258.9274   23609263.2984
     -5627.3594      -4384.9554
    294638.65547    229589.67747  21028670.5134   21028671.3924
      -805.6094       -627.7484
   2621286.64047   2042560.72846  22079557.0054   22079559.0914
     -4194.7974      -3268.6734
   2839497.09547   2101633.28247  21709355.6384   21709356.9274
     -4523.7664      -3525.0124
   -110904.83446    -84023.32946  22377576.3334   22377578.9464
      -219.9224       -171.3684
    622461.48043    215067.02442  25112675.1614   25112681.3254
     -1894.3284      -1476.1004
   3160189.94545   2446353.18342  24594109.7554   24594116.2474
     -4761.5474      -3710.2964
    -43794.92544                  24604144.9814
       653.1564
 98  6 29 19  4 30.0010000  0  8G 5G 6G10G30G17G13G24G26
   3802701.74045   2913948.16145  23625335.6924   23625340.0404
     -5637.0314      -4392.4924
    306814.94247    239077.70847  21030987.6774   21030988.7204
      -817.9224       -637.3424
   2684324.48447   2091681.12246  22091552.5284   22091554.7674
     -4210.2194      -3280.6904
   2907464.13247   2154594.59047  21722289.3254   21722290.6034
     -4538.5314      -3536.5184
   -107518.72646    -81384.77646  22378220.8334   22378223.4584
      -231.5314       -180.4144
    650995.22044    237301.13542  25118104.4504   25118108.9744
     -1910.2034      -1488.4704
   3231664.73545   2502047.77742  24607710.8494   24607717.3884
     -4768.3754      -3715.6174
    -53528.73543     -2012.01452  24602291.8564   24602298.6654
       644.7194        502.3784
 98  6 29 19  4 45.0010000  0  8G 5G 6G10G30G17G13G24G26
   3887333.74245   2979895.09445  23641440.5364   23641445.0134
     -5646.9844      -4400.2484
    319182.36547    248714.67247  21033340.9194   21033341.6574
      -830.9064       -647.4594
   2747597.98247   2140985.14446  22103593.7394   22103595.8134
     -4226.0314      -3293.0114
   2975658.09447   2207732.72347  21735266.3564   21735267.3994
     -4553.7814      -3548.4014
   -103952.99546    -78606.25546  22378899.2244   22378901.9664
      -243.7344       -189.9234
    679770.44343    259723.40941  25123579.9744   25123582.5054
     -1926.2664      -1500.9864
   3303245.87445   2557825.26742  24621332.9664   24621337.5014
     -4775.5314      -3721.1934
    -63130.58443     -9493.82942  24600465.9114   24600473.3454
       635.7664        495.4024
 98  6 29 19  5  0.0010000  0  8G 5G 6G10G30G17G13G24G26
   3972109.59245   3045954.10545  23657573.4584   23657578.3454
     -5656.5474      -4407.6994
    331740.95547    258500.59947  21035730.8104   21035731.6774
      -843.6414       -657.3824
   2811103.85847   2190470.23846  22115678.1534   22115680.2164
     -4241.4694      -3305.0414
   3044076.73847   2261045.93447  21748285.8254   21748287.0444
     -4568.8124      -3560.1144
   -100209.31446    -75689.07846  22379611.4424   22379614.1034
      -255.5314       -199.1154
    708780.16843    282328.38342  25129099.9974   25129103.8064
     -1941.7034      -1513.0154
   3374928.45945   2613681.83442  24634973.0834   24634977.3604
     -4782.2034      -3726.3924
    -72603.46843    -16875.16142  24598662.3334   24598668.4974
       627.2344        488.7544
 98  6 29 19  5 15.0010000  0  8G 5G 6G10G30G17G13G24G26
   4057030.59845   3112126.23345  23673732.9664   23673737.3844
     -5665.8914      -4414.9804
    344490.05747    268434.97447  21038156.9664   21038157.8564
      -855.8124       -666.8674
   2874843.41047   2240137.41646  22127807.2084   22127809.0954
     -4256.7814      -3316.9724
   3112723.34247   2314536.77647  21761348.9114   21761350.2004
     -4583.7344      -3571.7414
    -96287.23346    -72632.87546  22380357.7864   22380360.5994
      -267.0474       -208.0884
    738019.97043    305112.69142  25134665.2164   25134670.1854
     -1956.5314      -1524.5704
   3446713.14045   2669617.87843  24648634.1384   24648635.0994
     -4788.7814      -3731.5184
    -81947.71344    -24156.37542  24596884.3334   24596891.1424
       619.0004        482.3384
 98  6 29 19  5 30.0010000  0  8G 5G 6G10G30G17G13G24G26
   4142090.22445   3178406.40145  23689919.4664   23689923.3924
     -5675.1874      -4422.2244
    357417.80247    278508.54647  21040616.8414   21040617.5914
      -867.6414       -676.0844
   2938810.60147   2289981.98046  22139979.9114   22139981.9154
     -4271.9064      -3328.7584
   3181592.33047   2368200.90647  21774454.3964   21774455.7674
     -4598.5474      -3583.2834
    -92193.90746    -69443.24046  22381136.6534   22381139.1854
      -278.5004       -217.0134
    767479.98543    328068.56742  25140271.2784   25140276.7864
     -1971.2504      -1536.0394
   3518597.45545   2725631.64642  24662313.3804   24662317.7394
     -4795.5944      -3736.8264
    -91169.27643    -31341.90142  24595129.0524   24595136.0054
       610.7344        475.8974
 98  6 29 19  5 45.0010000  0  8G 5G 6G10G30G17G13G24G26
   4227287.48345   3244793.77345  23706132.1924   23706135.9424
     -5684.2664      -4429.2984
    370520.82347    288718.70547  21043110.3724   21043111.1344
      -879.2344       -685.1184
   3003002.89447   2340001.94546  22152195.3024   22152197.0954
     -4286.8754      -3340.4224
   3250682.47647   2422037.37246  21787601.6064   21787602.9074
     -4613.3124      -3594.7894
    -87930.67046    -66121.20446  22381948.0054   22381950.6184
      -289.7974       -225.8164
    797158.73143    351194.87941  25145918.5054   25145925.1964
     -1985.7814      -1547.3624
   3590582.05945   2781723.49242  24676011.3174   24676015.1264
     -4802.1874      -3741.9644
   -100268.03444    -38431.72042  24593398.4274   24593403.9354
       602.5634        469.5294
 98  6 29 19  6  0.0010000  0  8G 5G 6G10G30G17G13G24G26
   4312617.23545   3311284.40345  23722369.5364   23722374.2474
     -5693.0164      -4436.1164
    383793.90847    299061.37647  21045636.2244   21045637.0444
      -890.4694       -693.8724
   3067415.10247   2390193.27646  22164452.5364   22164454.4114
     -4301.3594      -3351.7094
   3319989.91147   2476043.14846  21800790.6774   21800792.0954
     -4627.6564      -3605.9664
    -83503.00946    -62671.05546  22382790.4974   22382793.1104
      -300.4374       -234.1074
    827051.67342    374488.05341  25151606.7554   25151609.7554
     -1999.9224      -1558.3814
   3662662.58344   2837890.12542  24689727.7714   24689731.1814
     -4808.5474      -3746.9204
   -109247.16844    -45428.39542  24591689.1614   24591697.2984
       594.6724        463.3814
 98  6 29 19  6 15.0010000  0  8G 5G 6G10G30G17G13G24G26
   4398079.88945   3377878.58444  23738632.8964   23738637.8414
     -5702.0474      -4443.1534
    397236.54047    309536.17047  21048194.0054   21048194.8494
      -901.9534       -702.8214
   3132044.81547   2440554.08846  22176751.1224   22176752.9034
     -4315.9694      -3363.0934
   3389515.40947   2530218.84646  21814021.0214   21814022.3454
     -4642.5004      -3617.5324
    -78915.60746    -59096.42446  22383663.6464   22383666.2594
      -311.2504       -242.5324
    857159.02143    397948.37641  25157336.4974   25157342.6734
     -2014.4224      -1569.6794
   3734840.59044   2894132.68442  24703463.1924   24703468.0324
     -4815.2344      -3752.1314
   -118107.13645    -52332.18542  24590003.3254   24590009.5364
       586.5164        457.0254
 98  6 29 19  6 30.0010000  0  8G 5G 6G10G30G17G13G24G26
   4483675.85745   3444576.66845  23754920.7944   23754926.4894
     -5710.5784      -4449.8014
    410848.72447    320143.07847  21050784.5214   21050785.3994
      -912.8914       -711.3434
   3196891.51547   2491083.98246  22189091.1304   22189093.1814
     -4330.0474      -3374.0624
   3459260.40047   2584565.57446  21827292.7944   21827294.0244
     -4656.6724      -3628.5754
    -74170.23646    -55398.69846  22384566.6854   22384569.4504
      -321.3124       -250.3734
    887481.89743    421576.64041  25163106.6774   25163109.7004
     -2028.4534      -1580.6134
   3807115.54644   2950450.82142  24717215.9194   24717217.4194
     -4821.2814      -3756.8434
   -126843.56944    -59139.71242  24588340.7714   24588347.5564
       578.4224        450.7184
 98  6 29 19  6 45.0010000  0  8G 5G 6G10G30G17G13G24G26
   4569400.14045   3511374.71044  23771233.7944   23771237.8494
     -5719.2034      -4456.5224
    424626.81547    330879.26147  21053406.3644   21053407.1614
      -924.1094       -720.0854
   3261946.33847   2541776.04246  22201470.8644   22201472.8804
     -4343.8594      -3384.8254
   3529217.75547   2639077.78146  21840605.1924   21840606.6344
     -4670.8594      -3639.6314
    -69274.22346    -51583.59746  22385498.4664   22385501.2084
      -331.4064       -258.2394
    918014.51343    445368.34041  25168916.6384   25168916.8844
     -2042.4534      -1591.5224
   3879481.25044   3006839.64142  24730986.6774   24730990.2164
     -4827.3914      -3761.6034
   -135457.60043    -65851.87242  24586701.4424   24586707.5134
       570.2974        444.3874
 98  6 29 19  7  0.0010000  0  8G 5G 6G10G30G17G13G24G26
   4655253.84845   3578273.62545  23787571.2004   23787575.2554
     -5727.8124      -4463.2314
    438573.94547    341747.16347  21056060.5604   21056061.2284
      -935.3284       -728.8274
   3327210.74347   2592631.40746  22213890.2004   22213892.3684
     -4357.9534      -3395.8084
   3599388.67547   2693756.40546  21853958.5134   21853959.9424
     -4685.0944      -3650.7224
    -64225.51346    -47649.50746  22386459.1854   22386461.7864
      -341.5474       -266.1404
    948757.21143    469323.67942  25174767.1924   25174770.1694
     -2056.5004      -1602.4684
   3951939.93644   3063300.89042  24744775.3254   24744781.8294
     -4833.6094      -3766.4494
   -143951.19744    -72470.13042  24585084.9114   24585090.3604
       562.3754        438.2144
 98  6 29 19  7 15.0010000  0  8G 5G 6G10G30G17G13G24G26
   4741225.12845   3645264.13644  23803931.9274   23803936.2984
     -5734.8444      -4468.7094
    452674.12847    352734.32647  21058744.0284   21058744.6854
      -944.4694       -735.9504
   3392675.49747   2643642.90946  22226347.6774   22226349.4234
     -4370.4844      -3405.5724
   3669760.45247   2748591.53746  21867349.6614   21867351.0674
     -4697.5624      -3660.4384
    -59039.22046    -43608.21346  22387446.0444   22387448.6574
      -349.7974       -272.5694
    979700.08644    493434.96842  25180655.7474   25180653.6734
     -2069.0474      -1612.2444
   4024479.32644   3119825.12842  24758579.5054   24758584.6384
     -4838.1254      -3769.9684
   -152341.14645    -79007.67043  24583488.7714   24583496.9424
       556.4694        433.6124
 98  6 29 19  7 30.0010000  0  8G 5G 6G10G30G17G13G24G26
   4827315.88545   3712347.75944  23820313.9504   23820318.3684
     -5743.5944      -4475.5284
    466926.13047    363839.79147  21061455.7394   21061456.4074
      -955.5164       -744.5584
   3458343.07747   2694812.44346  22238843.8334   22238845.5094
     -4384.8444      -3416.7614
   3740331.21947   2803581.72746  21880778.8104   21880780.1344
     -4711.5474      -3671.3354
    -53713.30546    -39458.11846  22388459.5134   22388462.1614
      -360.0944       -280.5934
   1010847.14344    517705.45842  25186582.3414   25186585.7284
     -2083.6724      -1623.6404
   4097101.49144   3176413.72742  24772398.5914   24772400.4784
     -4844.5004      -3774.9354
   -160628.98245    -85465.68443  24581910.7474   24581916.9814
       548.8594        427.6834
 98  6 29 19  7 45.0010000  0  8G 5G 6G10G30G17G13G24G26
   4913527.03745   3779525.19544  23836719.2944   23836723.4074
     -5750.9064      -4481.2264
    481334.89547    375067.40647  21064197.4744   21064197.9544
      -965.3124       -752.1924
   3524213.77647   2746140.25846  22251378.5284   22251380.1924
     -4397.6094      -3426.7094
   3811100.08347   2858726.27746  21894245.6774   21894247.1304
     -4723.9534      -3681.0024
    -48241.31046    -35194.20146  22389500.9664   22389503.8964
      -369.1414       -287.6424
   1042205.09943    542140.21341  25192549.2944   25192555.0484
     -2097.0784      -1634.0874
   4169806.62444   3233067.08942  24786234.1224   24786240.2984
     -4849.1094      -3778.5274
   -168814.44945    -91843.86543  24580353.4034   24580358.7354
       542.8754        423.0194
 98  6 29 19  8  0.0010000  0  9G 5G 6G10G30G17G13G24G26G23
   4999871.90445   3846806.81944  23853150.0134   23853155.5794
     -5761.4694      -4489.4564
    495915.80947    386429.16647  21066972.4114   21066973.1734
      -978.5624       -762.5164
   3590299.94547   2797635.96946  22263954.2394   22263956.0094
     -4413.5784      -3439.1524
   3882078.37947   2914034.02146  21907752.3724   21907753.8604
     -4739.5164      -3693.1294
    -42610.39646    -30806.44746  22390572.3644   22390574.9784
      -381.4064       -297.2004
   1073788.59043    566750.81541  25198559.0834   25198565.8804
     -2113.8124      -1647.1274
   4242602.60944   3289791.21342  24800085.8414   24800090.1064
     -4856.7974      -3784.5174
   -176885.12445    -98132.63543  24578817.7244   24578823.2084
       533.4844        415.7024
     -6602.41553                  24952229.2004
      1319.3594
 98  6 29 19  8 15.0010000  0  9G 5G 6G10G30G17G13G24G26G23
   5086350.28145   3914192.45044  23869606.6924   23869611.3334
     -5768.9844      -4495.3124
    510671.79047    397927.33947  21069780.2784   21069780.9234
      -988.8754       -770.5524
   3656600.89847   2849299.03946  22276571.1224   22276572.8104
     -4426.5624      -3449.2694
   3953263.87147   2969503.21746  21921298.5674   21921300.1854
     -4751.9224      -3702.7964
    -36820.01246    -26294.43446  22391673.9664   22391676.2634
      -390.6724       -304.4204
   1105597.73144    591537.12442  25204612.5914   25204615.1814
     -2127.4534      -1657.7564
   4315489.27743   3346585.93642  24813955.7714   24813961.2674
     -4861.3914      -3788.0974
   -184840.37745   -104331.48743  24577304.2314   24577308.0054
       527.1884        410.7954
    -26343.34043                  24948473.0914
      1312.7504
 98  6 29 19  8 30.0010000  0  9G 5G 6G10G30G17G13G24G26G23
   5172940.92745   3981665.60544  23886084.4424   23886089.3174
     -5776.2664      -4500.9864
    525582.71247    409546.25147  21072617.7244   21072618.4154
      -999.1254       -778.5394
   3723097.66647   2901114.70046  22289224.9114   22289226.3884
     -4439.5314      -3459.3754
   4024636.15947   3025117.96946  21934880.2714   21934881.8644
     -4764.1414      -3712.3174
    -30887.36546    -21671.56246  22392803.1304   22392805.6734
      -400.2034       -311.8474
   1137612.83844    616483.93742  25210704.8564   25210708.2784
     -2141.0784      -1668.3734
   4388444.13144   3403433.88242  24827839.3804   24827844.2434
     -4865.7344      -3791.4814
   -192700.11245   -110455.89242  24575808.4744   24575815.3564
       520.9224        405.9134
    -45982.96043                  24944735.2784
      1305.9844
 98  6 29 19  8 45.0010000  0  9G 5G 6G10G30G17G13G24G26G23
   5259639.71945   4049222.98744  23902582.8804   23902588.2124
     -5783.1094      -4506.3194
    540646.62147    421284.37147  21075484.2714   21075485.0794
     -1008.9534       -786.1974
   3789788.77047   2953081.79146  22301915.6694   22301917.5564
     -4452.1094      -3469.1764
   4096189.50847   3080873.80146  21948496.4974   21948498.1614
     -4775.8594      -3721.4494
    -24812.29046    -16937.71446  22393959.4274   22393961.8884
      -409.3754       -318.9944
   1169831.94444    641589.74342  25216836.3494   25216837.1104
     -2154.3284      -1678.6974
   4461463.42344   3460331.97142  24841734.0134   24841740.9784
     -4869.7504      -3794.6104
   -200466.75445   -116507.77043  24574330.1304   24574335.1344
       515.1414        401.4084
    -65521.51443                  24941017.2714
      1299.5634
 98  6 29 19  9  0.0010000  0  9G 5G 6G10G30G17G13G24G26G23
   5346439.14745   4116858.82644  23919100.3334   23919104.3764
     -5790.1254      -4511.7864
    555856.26947    433136.05447  21078378.6854   21078379.5634
     -1018.9374       -793.9774
   3856665.72747   3005193.69346  22314642.0284   22314644.1034
     -4464.8444      -3479.0994
   4167916.54347   3136764.98146  21962145.4974   21962147.0324
     -4787.7034      -3730.6784
    -18601.02746    -12097.73346  22395141.0754   22395143.4194
      -418.7664       -326.3114
   1202247.90045    666848.94142  25223004.9194   25223008.0714
     -2167.7664      -1689.1684
   4534541.05044   3517275.52142  24855641.5364   24855647.6184
     -4873.8914      -3797.8374
   -208152.77445   -122496.79042  24572867.3024   24572874.3134
       509.7034        397.1714
    -84964.67243     -6050.52252  24937316.5054   24937325.5324
      1292.9064       1007.4594
 98  6 29 19  9 15.0010000  0  9G 5G 6G10G30G17G13G24G26G23
   5433347.34145   4184579.39344  23935638.4034   23935643.0324
     -5797.3594      -4517.4234
    571217.60647    445105.93947  21081301.7864   21081302.5714
     -1029.0004       -801.8184
   3923736.25747   3057456.43446  22327405.2714   22327407.5914
     -4477.5784      -3489.0224
   4239823.89447   3192796.65946  21975829.4194   21975830.9544
     -4799.6564      -3739.9924
    -12246.21146     -7145.90346  22396350.4274   22396352.7944
      -428.2814       -333.7264
   1234869.10545    692268.10242  25229212.6304   25229214.2714
     -2181.5164      -1699.8824
   4607682.42543   3574268.75542  24869558.6924   24869565.2674
     -4878.0624      -3801.0884
   -215752.54845   -128418.66042  24571421.3334   24571426.2554
       503.8284        392.5934
   -104304.27943    -21120.21642  24933637.6774   24933644.5714
      1285.9694       1002.0544
 98  6 29 19  9 30.0010000  0  9G 5G 6G10G30G17G13G24G26G23
   5520363.18245   4252383.86444  23952196.7714   23952201.9854
     -5804.3124      -4522.8414
    586730.70947    457194.07847  21084253.8564   21084254.4424
     -1039.0784       -809.6714
   3990994.46247   3109865.41646  22340204.0914   22340206.2004
     -4489.7504      -3498.5064
   4311909.41447   3248967.17746  21989546.6774   21989548.0134
     -4811.3284      -3749.0874
     -5747.98346     -2082.32146  22397586.8254   22397589.1924
      -437.7814       -341.1284
   1267696.01444    717847.49842  25235459.1304   25235458.9424
     -2195.0004      -1710.3904
   4680886.58244   3631310.90642  24883489.7164   24883496.3024
     -4882.0784      -3804.2174
   -223261.02645   -134269.37542  24569992.5914   24569995.7784
       497.6884        387.8084
   -123539.48743    -36108.51242  24929977.5214   24929983.9424
      1279.0944        996.6964
 98  6 29 19  9 45.0010000  0  9G 5G 6G10G30G17G13G24G26G23
   5607472.78745   4320261.36744  23968773.3564   23968778.3494
     -5810.3754      -4527.5654
    602387.86347    469394.46647  21087233.0674   21087233.8644
     -1048.6094       -817.0984
   4058424.89347   3162408.60146  22353035.7394   22353037.4384
     -4501.0314      -3507.2974
   4384162.01547   3305267.88046  22003296.0994   22003297.6224
     -4822.4694      -3757.7684
       884.33446      3085.74646  22398849.0364   22398851.5444
      -446.5474       -347.9594
   1300716.23744    743577.52842  25241742.2164   25241744.9584
     -2207.7974      -1720.3614
   4754140.95545   3688392.21542  24897429.6064   24897434.9384
     -4885.2194      -3806.6644
   -230684.18845   -140053.58342  24568579.6144   24568582.9544
       491.9844        383.3644
   -142679.92243    -51023.01342  24926334.0994   24926339.6884
      1272.8914        991.8634
 98  6 29 19 10  0.0010000  0  9G 5G 6G10G30G17G13G24G26G23
   5694677.56545   4388213.05444  23985368.1534   23985372.8644
     -5816.9064      -4532.6544
    618191.41647    481708.93747  21090240.7004   21090241.3104
     -1058.4694       -824.7814
   4126027.64247   3215086.06446  22365900.0994   22365901.7164
     -4512.6564      -3516.3564
   4456586.43447   3361702.47546  22017078.1304   22017079.5364
     -4834.0784      -3766.8144
      7649.20846      8357.10346  22400136.0994   22400138.3964
      -455.3444       -354.8134
   1333932.13845    769460.01442  25248063.1384   25248066.4074
     -2220.9534      -1730.6134
   4827445.98845   3745512.98143  24911379.2714   24911382.8684
     -4888.7814      -3809.4404
   -238017.34844   -145767.65942  24567183.9814   24567189.4424
       485.7664        378.5194
   -161723.08043    -65861.75242  24922710.0364   24922716.7864
      1266.2194        986.6644
 98  6 29 19 10 15.0010000  0  9G 5G 6G10G30G17G13G24G26G23
   5781981.06145   4456241.63844  24001981.1614   24001986.1774
     -5823.3284      -4537.6584
    634144.78047    494140.13947  21093276.4114   21093277.0914
     -1068.3914       -832.5124
   4193806.54047   3267900.78346  22378797.9814   22378799.3534
     -4524.3444      -3525.4634
   4529186.03847   3418273.57546  22030893.3644   22030894.7944
     -4845.6564      -3775.8364
     14546.29646     13731.48046  22401448.6144   22401450.8534
      -464.0474       -361.5954
   1367347.24345    795497.77643  25254421.8724   25254424.8024
     -2234.1724      -1740.9134
   4900806.95545   3802677.32444  24925339.2314   24925343.3804
     -4892.4694      -3812.3134
   -245255.34044   -151407.58742  24565806.4664   24565812.3024
       479.5164        373.6494
   -180663.38943    -80620.25942  24919106.0674   24919114.7204
      1259.4224        981.3684
 98  6 29 19 10 30.0010000  0  9G 5G 6G10G30G17G13G24G26G23
   5869378.30645   4524343.30244  24018612.8104   24018617.7314
     -5829.6094      -4542.5534
    650242.61047    506683.91247  21096339.7314   21096340.5404
     -1077.9534       -839.9634
   4261759.07547   3320850.80346  22391728.7784   22391730.4194
     -4535.9844      -3534.5334
   4601957.02347   3474978.21446  22044740.9584   22044742.4464
     -4857.1414      -3784.7854
     21570.87246     19205.19946  22402785.2084   22402787.5524
      -472.5164       -368.1944
   1400957.59445    821687.66843  25260818.2864   25260819.2944
     -2247.2504      -1751.1044
   4974219.99245   3859882.24443  24939309.6384   24939313.4354
     -4895.9534      -3815.0284
   -252401.61944   -156976.14843  24564446.4034   24564451.5364
       473.3594        368.8514
   -199505.70943    -95302.45442  24915520.5524   24915527.2314
      1252.8914        976.2784
 98  6 29 19 10 45.0010000  0  9G 5G 6G10G30G17G13G24G26G23
   5956875.58245   4592522.89644  24035262.8804   24035268.1884
     -5836.4844      -4547.9104
    666490.23747    519344.40747  21099431.2784   21099431.9934
     -1088.2194       -847.9634
   4329891.85546   3373941.26246  22404694.1384   22404695.6734
     -4548.1094      -3543.9814
   4674905.99847   3531821.55346  22058622.8174   22058624.2244
     -4869.1254      -3794.1234
     28727.82146     24782.07246  22404147.2004   22404149.6144
      -481.4374       -375.1464
   1434772.10144    848036.65342  25267252.4194   25267257.5054
     -2261.1724      -1761.9524
   5047692.58845   3917133.58843  24953291.0364   24953295.7824
     -4900.2504      -3818.3774
   -259448.27744   -162466.93842  24563106.2944   24563113.8214
       466.4694        363.4824
   -218243.44143   -109903.11442  24911954.3804   24911963.5244
      1245.7344        970.7024
 98  6 29 19 11  0.0010000  0  9G 5G 6G10G30G17G13G24G26G23
   6044471.05345   4660779.00744  24051932.0444   24051935.3724
     -5842.9534      -4552.9504
    682887.68847    532121.65547  21102551.8024   21102552.6574
     -1098.1724       -855.7184
   4398200.09746   3427168.45546  22417692.4894   22417694.2244
     -4559.6564      -3552.9794
   4748030.36847   3588801.55746  22072537.8644   22072539.2824
     -4880.8124      -3803.2314
     36010.70446     30457.07446  22405533.1694   22405535.4894
      -489.6564       -381.5504
   1468791.32644    874545.13642  25273725.5364   25273729.1814
     -2274.7664      -1772.5454
   5121226.35745   3974432.62243  24967283.3724   24967290.9234
     -4904.2974      -3821.5304
   -266397.68544   -167882.04142  24561783.5524   24561788.8024
       460.0944        358.5154
   -236879.91344   -124424.93943  24908408.4744   24908419.9274
      1239.1094        965.5404
 98  6 29 19 11 15.0010000  0  9G 5G 6G10G30G17G13G24G26G23
   6132158.89545   4729107.10444  24068618.9974   24068624.1654
     -5848.9534      -4557.6264
    699429.63547    545011.49547  21105699.5444   21105700.4114
     -1107.6254       -863.0844
   4466677.27546   3480527.28946  22430723.2864   22430725.1964
     -4570.8594      -3561.7094
   4821324.13947   3645913.56546  22086485.4744   22086486.8684
     -4891.8914      -3811.8634
     43412.75846     36224.93946  22406941.6064   22406943.7044
      -497.4844       -387.6504
   1503009.32645    901208.50842  25280237.9424   25280241.5054
     -2287.8754      -1782.7604
   5194815.94445   4031775.10843  24981287.7634   24981293.5284
     -4907.8124      -3824.2694
   -273255.47444   -173225.65642  24560478.0914   24560484.4664
       453.9224        353.7054
   -255422.95344   -138873.87342  24904879.5604   24904886.1344
      1233.0314        960.8044
 98  6 29 19 11 30.0010000  0  9G 5G 6G10G30G17G13G24G26G23
   6219938.26345   4797506.51144  24085322.5994   24085328.1774
     -5854.9534      -4562.3014
    716115.18347    558013.23447  21108874.8174   21108875.6614
     -1117.1724       -870.5244
   4535324.62846   3534018.72146  22443786.5444   22443788.5134
     -4582.1564      -3570.5114
   4894786.93047   3703157.28046  22100464.7714   22100466.2244
     -4903.2194      -3820.6904
     50934.63746     42086.16746  22408373.1924   22408375.5014
      -505.4844       -393.8844
   1537426.41945    928026.99142  25286787.3564   25286788.4354
     -2301.1564      -1793.1094
   5268462.38145   4089161.90343  24995302.3104   24995305.7434
     -4911.8284      -3827.3994
   -280013.62644   -178491.69842  24559191.6614   24559198.3414
       447.1414        348.4214
   -273870.18244   -153248.20042  24901369.2244   24901377.9354
      1226.5784        955.7754
 98  6 29 19 11 45.0010000  0  9G 5G 6G10G30G17G13G24G26G23
   6307808.39545   4865976.63944  24102043.3334   24102048.0094
     -5860.9694      -4566.9894
    732945.01747    571127.40247  21112077.5754   21112078.5014
     -1126.7034       -877.9504
   4604143.38146   3587643.71246  22456882.6384   22456884.9114
     -4593.5784      -3579.4124
   4968421.46747   3760534.81846  22114476.7554   22114478.2554
     -4914.5944      -3829.5544
     58577.92146     48042.00246  22409827.3024   22409829.7634
      -513.5004       -400.1304
   1572043.23344    955001.20142  25293374.2784   25293377.0674
     -2314.3124      -1803.3604
   5342170.44645   4146596.78542  25009328.2944   25009333.6854
     -4915.7504      -3830.4554
   -286670.72544   -183679.02442  24557925.0604   24557930.8024
       440.6254        343.3444
   -292220.26444   -167546.84443  24897876.5364   24897884.0524
      1220.2664        950.8564
 98  6 29 19 12  0.0010000  0  9G 5G 6G10G30G17G13G24G26G23
   6395769.35045   4934517.52844  24118782.3724   24118788.4424
     -5867.2344      -4571.8714
    749917.48647    584352.71047  21115307.3884   21115308.0214
     -1136.2814       -885.4144
   4673134.85646   3641403.29246  22470011.0134   22470013.2514
     -4605.3594      -3588.5924
   5042225.91247   3818044.75446  22128521.6384   22128523.4194
     -4926.0004      -3838.4424
     66340.84146     54091.05946  22411304.6694   22411306.9894
      -521.5474       -406.4004
   1606857.64345    982129.28242  25299999.4424   25300002.4784
     -2327.5944      -1813.7094
   5415939.33644                  25023365.9814
     -4920.1724
   -293233.98544   -188793.15742  24556676.4744   24556681.7354
       434.3754        338.4744
   -310476.63044   -181772.42142  24894402.5134   24894408.3604
      1213.8754        945.8774
 98  6 29 19 12 15.0010000  0  9G 5G 6G10G30G17G13G24G26G23
   6483817.82045   5003126.63444  24135536.8724   24135542.8374
     -5872.7034      -4576.1324
    767025.96747    597684.00247  21118562.7004   21118563.6264
     -1144.9844       -892.1964
   4742296.44446   3695295.43246  22483172.0134   22483174.4854
     -4616.3594      -3597.1634
   5116192.66147   3875681.16146  22142596.9744   22142598.8724
     -4936.3914      -3846.5384
     74217.65146     60228.86246  22412803.4194   22412806.0674
      -528.8914       -412.1234
   1641862.72144   1009406.01042  25306660.1224   25306664.2354
     -2339.8914      -1823.2914
   5489766.88744                  25037414.6694
     -4923.7344
   -299709.39844   -193838.88642  24555443.5834   24555448.0604
       428.8134        334.1404
   -328644.00044   -195928.65643  24890945.2004   24890953.3374
      1208.2664        941.5064
 98  6 29 19 12 30.0010000  0  9G 5G 6G10G30G17G13G24G26G23
   6571956.18045   5071805.76644  24152309.1534   24152314.3104
     -5879.0944      -4581.1124
    784274.35247    611124.31347  21121844.9114   21121845.6964
     -1154.7034       -899.7694
   4811632.29446   3749323.35446  22496366.3644   22496368.5674
     -4628.3594      -3606.5144
   5190324.41347   3933446.13946  22156703.7244   22156705.6574
     -4947.8284      -3855.4504
     82214.75546     66460.39946  22414325.3804   22414328.0874
      -537.3914       -418.7464
   1677059.27945   1036831.90742  25313358.1384   25313362.0524
     -2352.9064      -1833.4334
   5563657.72144                  25051475.9894
     -4928.3124
   -306091.90444   -198812.15042  24554229.5284   24554235.8564
       422.2034        328.9894
   -346718.77744   -210012.75743  24887506.2394   24887513.9664
      1201.7974        936.4654
 98  6 29 19 12 45.0010000  0  9G 5G 6G10G30G17G13G24G26G23
   6660193.44345   5140561.96744  24169100.8024   24169106.3334
     -5885.7814      -4586.3234
    801669.19647    624678.75147  21125155.2084   21125156.1224
     -1164.5624       -907.4514
   4881148.32346   3803491.67546  22509594.9744   22509597.3174
     -4640.3284      -3615.8404
   5264629.73847   3991346.37246  22170843.6384   22170845.5834
     -4959.4224      -3864.4854
     90341.83846     72793.21446  22415871.9274   22415874.5524
      -546.1414       -425.5644
   1712451.81645   1064410.51442  25320093.7004   25320096.5604
     -2366.0004      -1843.6364
   5637619.06743      7683.35652  25065550.2474   25065555.7674
     -4933.1414      -3844.0064
   -312372.70944   -203706.22042  24553034.2314   24553039.5054
       415.3754        323.6694
   -364695.55745   -224020.49343  24884085.3174   24884092.8684
      1195.2344        931.3514
 98  6 29 19 13  0.0010000  0  9G 5G 6G10G30G17G13G24G26G23
   6748520.77845   5209388.36144  24185909.0994   24185914.0564
     -5891.0004      -4590.3904
    819203.12347    638341.55947  21128491.7784   21128492.7744
     -1173.0944       -914.0994
   4950834.20846   3857792.35646  22522855.6224   22522857.8254
     -4650.9224      -3624.0954
   5339098.96547   4049374.31646  22185014.5674   22185016.3844
     -4969.5784      -3872.3994
     98592.93146     79222.66246  22417441.8644   22417444.4544
      -553.7814       -431.5184
   1748029.49945   1092133.37842  25326863.2944   25326866.6464
     -2377.4374      -1852.5494
   5711645.19543     65366.04742  25079636.9894   25079643.5524
     -4936.7974      -3846.8554
   -318561.79644   -208528.83342  24551856.5134   24551860.3104
       410.0784        319.5414
   -382583.16045   -237958.73143  24880681.0364   24880691.5524
      1189.9694        927.2484
 98  6 29 19 13 15.0020000  0  9G 5G 6G10G30G17G13G24G26G23
   6836934.22145   5278281.85444  24202733.0724   24202738.4984
     -5896.6724      -4594.8094
    836866.09847    652104.92347  21131852.8934   21131853.6784
     -1181.7664       -920.8564
   5020685.54546   3912221.96146  22536147.8224   22536150.3774
     -4661.9534      -3632.6914
   5413726.52947   4107525.63546  22199215.8544   22199217.6824
     -4980.0004      -3880.5194
    106961.82546     85743.90446  22419034.4714   22419036.9794
      -562.0164       -437.9344
   1783780.09845   1119991.00442  25333666.5024   25333669.4204
     -2389.0004      -1861.5584
   5785730.64943    123094.90342  25093734.7294   25093740.3184
     -4940.5624      -3849.7894
   -324671.20944   -213289.30542  24550693.9084   24550698.2914
       404.4224        315.1344
   -400390.83745   -251834.69843  24877291.7834   24877300.9394
      1184.2194        922.7684
 98  6 29 19 13 30.0020000  0  8G 5G 6G10G30G17G13G26G23
   6925429.63045   5347239.18744  24219573.5884   24219579.1544
     -5902.3914      -4599.2654
    854660.26247    665970.51647  21135239.0804   21135239.9944
     -1190.4694       -927.6384
   5090701.68846   3966779.98746  22549471.5254   22549473.8464
     -4673.1724      -3641.4334
   5488507.06447   4165796.16246  22213446.3074   22213447.8894
     -4990.4374      -3888.6534
    115458.10946     92364.42046  22420651.2754   22420653.5724
      -570.5004       -444.5454
   1819704.77845   1147984.24142  25340502.9634   25340506.9824
     -2400.6564      -1870.6414
   -330690.80344   -217979.81242  24549548.5184   24549552.7364
       398.4064        310.4464
   -418107.23144   -265639.51543  24873919.9944   24873928.4124
      1178.2664        918.1294
 98  6 29 19 13 45.0020000  0  8G 5G 6G10G30G17G13G26G23
   7014008.05245   5416261.23543  24236429.6044   24236435.5454
     -5907.9534      -4603.6004
    872583.05347    679936.33947  21138649.6824   21138650.6314
     -1199.1254       -934.3834
   5160882.49146   4021466.31246  22562826.5254   22562828.7754
     -4684.1414      -3649.9804
   5563442.89747   4224187.69846  22227705.7524   22227707.1704
     -5000.8444      -3896.7614
    124079.02446     99082.04246  22422291.7294   22422293.8384
      -578.8124       -451.0234
   1855802.09645   1176112.03643  25347372.2134   25347373.9004
     -2412.2034      -1879.6394
   -336624.64144   -222603.54142  24548419.2604   24548424.4284
       392.9384        306.1854
   -435738.27244   -279377.84443  24870565.8074   24870574.0724
      1172.7504        913.8314
 98  6 29 19 14  0.0020000  0  8G 5G 6G10G30G17G13G26G23
   7102670.80645   5485348.97843  24253301.9324   24253308.6934
     -5913.3594      -4607.8124
    890636.63847    694004.07847  21142085.2294   21142086.0964
     -1207.6724       -941.0434
   5231228.86646   4076281.66146  22576212.7524   22576215.0254
     -4695.0474      -3658.4784
   5638532.53547   4282699.07746  22241995.1114   22241996.5884
     -5010.7034      -3904.4444
    132824.52946    105896.74746  22423955.9474   22423958.1974
      -586.8754       -457.3054
   1892072.05845   1204374.36043  25354274.2134   25354278.9944
     -2423.4844      -1888.4294
   -342477.12244   -227163.84342  24547305.9714   24547310.2954
       387.6884        302.0944
   -453287.84144   -293052.69142  24867226.0574   24867231.7404
      1167.4534        909.7044
 98  6 29 19 14 15.0020000  0  8G 5G 6G10G30G17G13G26G23
   7191414.58545   5554499.85344  24270189.0184   24270195.2174
     -5919.0624      -4612.2564
    908818.80147    708172.00047  21145545.1354   21145546.0144
     -1216.5164       -947.9344
   5301739.69246   4131225.15046  22589630.4554   22589632.4824
     -4706.2664      -3667.2204
   5713769.78847   4341325.48746  22256312.3854   22256313.9204
     -5020.8914      -3912.3824
    141691.73746    112806.29046  22425643.5494   22425645.8114
      -595.3124       -463.8804
   1928513.08545   1232769.98743  25361207.8464   25361209.7794
     -2435.2664      -1897.6104
   -348247.43443   -231660.08042  24546207.5334   24546214.6154
       381.7194        297.4434
   -470754.77045   -306663.13343  24863902.1744   24863909.3734
      1161.5944        905.1384
 98  6 29 19 14 30.0020000  0  8G 5G 6G10G30G17G13G26G23
   7280243.06645   5623716.75143  24287092.0024   24287097.6154
     -5924.5944      -4616.5674
    927134.61747    722444.07647  21149030.5884   21149031.3964
     -1225.4844       -954.9234
   5372417.72846   4186298.93646  22603080.2684   22603082.3894
     -4717.3594      -3675.8644
   5789161.03447   4400071.88746  22270658.9714   22270660.5644
     -5031.1874      -3920.4064
    150685.95546    119814.80146  22427355.0104   22427357.2014
      -603.7974       -470.4914
   1965132.17345   1261304.39442  25368176.3774   25368179.8344
     -2447.1874      -1906.8994
   -353925.75743   -236084.71242  24545126.6194   24545132.2684
       375.5314        292.6224
   -488134.36244   -320205.50142  24860594.4864   24860602.5644
      1155.7974        900.6214
 98  6 29 19 14 45.0020000  0  8G 5G 6G10G30G17G13G26G23
   7369152.09745   5692996.40643  24304011.8614   24304016.5144
     -5929.8754      -4620.6824
    945583.47847    736819.81847  21152541.1194   21152542.0804
     -1234.2664       -961.7654
   5443260.55146   4241501.12646  22616561.1664   22616563.7324
     -4728.2504      -3684.3514
   5864705.39647   4458937.59446  22285034.4474   22285036.0064
     -5041.2504      -3928.2474
    159804.67446    126920.32546  22429090.0494   22429092.3814
      -611.9534       -476.8474
   2001928.61645   1289976.89342  25375179.2054   25375183.3894
     -2458.9694      -1916.0804
   -359514.32444   -240439.32542  24544063.1894   24544070.7294
       369.7344        288.1054
   -505429.74244   -333682.31343  24857303.1664   24857310.5294
      1150.3284        896.3604
 98  6 29 19 15  0.0020000  0  8G 5G 6G10G30G17G13G26G23
   7458135.75045   5762334.22244  24320944.4554   24320949.8114
     -5934.5474      -4624.3224
    964162.03647    751296.62847  21156076.6274   21156077.4944
     -1242.8594       -968.4624
   5514264.21746   4296828.65246  22630072.6744   22630075.3814
     -4738.9064      -3692.6544
   5940396.33647   4517917.53146  22299437.9864   22299439.4634
     -5050.8124      -3935.6984
    169042.56946    134118.71746  22430847.9864   22430850.2364
      -619.7194       -482.8984
   2038900.98345   1318786.56143  25382215.0574   25382216.3114
     -2470.6564      -1925.1874
   -365019.33144   -244728.88942  24543015.6744   24543020.9364
       364.3594        283.9164
   -522644.95344   -347096.57042  24854027.0334   24854034.5844
      1145.0944        892.2814
 98  6 29 19 15 15.0020000  0  8G 5G 6G10G30G17G13G26G23
   7547191.21245   5831727.93044  24337891.4714   24337895.3034
     -5939.3284      -4628.0484
    982871.87147    765875.72647  21159636.7994   21159637.5024
     -1251.6254       -975.2924
   5585431.11246   4352283.35846  22643615.5184   22643618.1434
     -4749.7504      -3701.1044
   6016232.74347   4577010.81046  22313869.2684   22313870.8734
     -5060.5314      -3943.2714
    178398.38246    141408.98946  22432628.4634   22432630.5614
      -627.4534       -488.9254
   2076052.42245   1347735.73943  25389283.7994   25389285.4634
     -2482.7344      -1934.5984
   -370443.01144   -248955.04742  24541983.3544   24541991.2564
       358.9224        279.6794
   -539779.21344   -360447.84142  24850766.5104   24850774.4124
      1139.7034        888.0804
 98  6 29 19 15 30.0020000  0  8G 5G 6G10G30G17G13G26G23
   7636318.09045   5901177.36444  24354851.7604   24354857.9244
     -5944.0164      -4631.7004
   1001714.48647    780558.28947  21163222.5964   21163223.5214
     -1260.5624       -982.2564
   5656758.19046   4407862.89146  22657188.5804   22657190.6894
     -4760.3284      -3709.3474
   6092215.41147   4636218.05446  22328328.4634   22328330.0574
     -5070.2814      -3950.8694
    187868.25046    148788.13346  22434430.2444   22434432.4944
      -635.0164       -494.8174
   2113386.35845   1376827.13042  25396388.2524   25396391.3464
     -2494.9694      -1944.1314
   -375783.07444   -253116.05642  24540967.2294   24540973.8034
       353.2664        275.2724
   -556835.11644   -373737.98442  24847520.2834   24847527.3424
      1134.6254        884.1234
 98  6 29 19 15 45.0020000  0  8G 5G 6G10G30G17G13G26G23
   7725517.39845   5970683.17844  24371825.9324   24371832.3424
     -5949.0474      -4635.6214
   1020695.80647    795348.93747  21166834.6824   21166835.5144
     -1270.1094       -989.6964
   5728248.14746   4463569.34446  22670792.6974   22670794.8654
     -4771.4064      -3717.9794
   6168348.73547   4695542.69946  22342815.8384   22342817.6194
     -5080.6724      -3958.9654
    197454.54346    156258.00346  22436254.8774   22436257.0924
      -642.9224       -500.9784
   2150906.90045   1406063.91142  25403528.0964   25403531.2134
     -2507.5164      -1953.9084
   -381035.18844   -257208.54042  24539967.5804   24539973.9554
       347.2034        270.5484
   -573810.68144   -386965.58542  24844290.3694   24844294.9514
      1128.9694        879.7164
 98  6 29 19 16  0.0020000  0  8G 5G 6G10G30G17G13G26G23
   7814789.64945   6040245.87344  24388814.0724   24388819.5454
     -5953.7664      -4639.2984
   1039818.20347    810249.51447  21170473.6434   21170474.2994
     -1279.3914       -996.9284
   5799900.17246   4519402.07646  22684427.2364   22684429.4984
     -4782.0624      -3726.2824
   6244635.29247   4754986.74546  22357332.7684   22357334.4324
     -5090.7034      -3966.7824
    207153.99447    163816.04746  22438100.2914   22438102.4364
      -650.1564       -506.6154
   2188612.38545   1435444.84343  25410703.6974   25410707.5294
     -2519.7194      -1963.4174
   -386200.46044   -261233.33642  24538983.8694   24538989.3074
       341.6564        266.2264
   -590704.39144   -400129.35942  24841075.7214   24841080.2684
      1123.6254        875.5524
 98  6 29 19 16 15.0020000  0  8G 5G 6G10G30G17G13G26G23
   7904129.51745   6109861.22044  24405815.2754   24405821.4984
     -5958.2344      -4642.7804
   1059077.54547    825256.80047  21174138.5184   21174139.0214
     -1288.5474      -1004.0624
   5871708.64046   4575356.72146  22698092.5644   22698095.0144
     -4792.4374      -3734.3674
   6321068.84347   4814545.32646  22371877.5724   22371879.2014
     -5100.5314      -3974.4404
    216959.96946    171457.10046  22439966.3694   22439968.5254
      -657.3754       -512.2404
   2226498.66945   1464966.58742  25417912.8544   25417913.7444
     -2531.8594      -1972.8774
   -391285.12044   -265195.29242  24538017.1114   24538024.2404
       336.2194        261.9894
   -607517.19844   -413230.07743  24837876.4634   24837884.1194
      1118.0164        871.1814
 98  6 29 19 16 30.0020000  0  8G 5G 6G10G30G17G13G26G23
   7993540.11545   6179531.72644  24422829.6894   24422834.8574
     -5962.8124      -4646.3474
   1078478.29347    840374.27147  21177830.4714   21177831.0334
     -1297.8914      -1011.3434
   5943676.89046   4631435.86146  22711787.5574   22711789.8304
     -4802.9694      -3742.5734
   6397656.50047   4874223.99046  22386451.9084   22386453.4794
     -5110.8284      -3982.4634
    226878.48447    179185.84046  22441853.7054   22441855.9554
      -664.7194       -517.9634
   2264571.58245   1494633.78943  25425158.1194   25425162.0924
     -2544.1874      -1982.4844
   -396284.27345   -269090.65243  24537066.2834   24537071.0414
       330.7034        257.6914
   -624242.12644   -426262.38342  24834692.7444   24834700.1784
      1112.3594        866.7744
 98  6 29 19 16 45.0020000  0  8G 5G 6G10G30G17G13G26G23
   8083011.27445   6249249.38444  24439855.8614   24439861.1004
     -5966.8444      -4649.4894
   1098012.70147    855595.89347  21181547.5884   21181548.2564
     -1306.8914      -1018.3564
   6015795.59846   4687632.24746  22725511.2294   22725513.5254
     -4813.0314      -3750.4144
   6474389.79347   4934016.14146  22401053.8544   22401055.4824
     -5120.4534      -3989.9634
    236899.28247    186994.28746  22443760.5964   22443762.9164
      -671.5314       -523.2714
   2302821.45544   1524438.95942  25432436.4244   25432440.1624
     -2555.9534      -1991.6524
   -401209.21945   -272928.16743  24536128.6044   24536133.5844
       325.8444        253.9044
   -640889.38644   -439234.11642  24831524.5964   24831529.2254
      1107.0474        862.6344
 98  6 29 19 17  0.0020000  0  8G 5G 6G10G30G17G13G26G23
   8172546.56145   6319017.00744  24456893.8144   24456899.4634
     -5971.1254      -4652.8254
   1117685.39947    870925.27647  21185290.9474   21185291.8264
     -1316.0004      -1025.4554
   6088067.72146   4743948.17146  22739264.2364   22739266.6624
     -4823.1874      -3758.3284
   6551270.70047   4993923.31346  22415683.4554   22415685.0494
     -5130.2034      -3997.5614
    247024.60747    194884.18546  22445687.1354   22445689.3964
      -678.5004       -528.7014
   2341251.62245   1554384.50442  25439749.5024   25439753.4984
     -2568.0474      -2001.0754
   -406059.38545   -276707.44943  24535205.7364   24535210.9514
       320.8754        250.0324
   -657452.75744   -452140.45342  24828372.9394   24828378.6704
      1101.4844        858.3004
 98  6 29 19 17 15.0020000  0  8G 5G 6G10G30G17G13G26G23
   8262143.29345   6388832.54344  24473943.7524   24473949.1544
     -5975.0164      -4655.8564
   1137489.80847    886357.28947  21189059.6434   21189060.5334
     -1324.4534      -1032.0414
   6160488.44646   4800379.89646  22753045.5104   22753047.9714
     -4832.7814      -3765.8044
   6628294.25247   5053941.64346  22430340.8544   22430342.5644
     -5139.5164      -4004.8174
    257252.18646    202853.75146  22447633.8144   22447636.0764
      -685.0944       -533.8394
   2379858.95145   1584468.13843  25447096.2054   25447098.3034
     -2579.4224      -2009.9394
   -410838.09645   -280430.98642  24534295.2134   24534300.0884
       316.3754        246.5264
   -673935.18444   -464983.78043  24825236.4634   24825242.7444
      1096.2974        854.2574
 98  6 29 19 17 30.0020000  0  8G 5G 6G10G30G17G13G26G23
   8351799.25345   6458694.20644  24491004.3384   24491009.3894
     -5978.9694      -4658.9374
   1157420.92847    901888.04047  21192852.4084   21192853.3464
     -1332.8754      -1038.6044
   6233052.10346   4856922.99846  22766853.8694   22766855.9904
     -4842.2034      -3773.1454
   6705458.63047   5114069.69846  22445024.6584   22445026.3574
     -5148.9224      -4012.1474
    267579.29147    210900.87046  22449598.8304   22449601.0804
      -691.7034       -538.9894
   2418636.00845   1614684.04343  25454475.5024   25454478.4794
     -2590.6414      -2018.6814
   -415547.00845   -284100.17843  24533399.0724   24533405.6354
       311.5164        242.7394
   -690338.69744   -477765.57642  24822114.9474   24822121.8544
      1090.9384        850.0814
 98  6 29 19 17 45.0020000  0  8G 5G 6G10G30G17G13G26G23
   8441513.64845   6528601.40543  24508076.7604   24508081.7524
     -5982.8754      -4661.9814
   1177478.25147    917517.12747  21196669.2214   21196670.1934
     -1341.2814      -1045.1544
   6305758.28746   4913577.16146  22780689.1114   22780691.0804
     -4851.9534      -3780.7434
   6782763.66547   5174307.36146  22459735.5414   22459737.2404
     -5158.3124      -4019.4644
    278006.94946    219026.34646  22451583.0964   22451585.5214
      -698.5474       -544.3224
   2457579.17345   1645029.34943  25461885.6974   25461888.3114
     -2601.7034      -2027.3014
   -420181.06645   -287711.04243  24532517.7684   24532523.3934
       306.4844        238.8194
   -706660.28044   -490483.55242  24819008.2914   24819014.9244
      1085.3134        845.6984
 98  6 29 19 18  0.0020000  0  8G 5G 6G10G30G17G13G26G23
   8531283.68745   6598551.95744  24525159.0964   24525165.4124
     -5986.6724      -4664.9394
   1197657.00547    933240.83947  21200509.0024   21200509.8694
     -1349.3754      -1051.4614
   6378609.41646   4970344.26046  22794552.1354   22794554.8184
     -4861.6254      -3788.2794
   6860206.20947   5234652.17446  22474472.4324   22474474.3184
     -5167.5004      -4026.6234
    288533.32246    227228.73746  22453586.1664   22453588.5924
      -705.0944       -549.4244
   2496685.56945   1675501.87243  25469327.6274   25469331.4364
     -2612.6724      -2035.8484
   -424742.76645   -291265.52343  24531649.3464   24531654.7954
       301.5474        234.9724
   -722898.46845   -503136.55443  24815918.7364   24815926.7564
      1079.6884        841.3154
 98  6 29 19 18 15.0020000  0  8G 5G 6G10G30G17G13G26G23
   8621112.93045   6668548.66444  24542253.6114   24542259.7994
     -5990.3124      -4667.7764
   1217959.91847    949061.29647  21204372.7294   21204373.5374
     -1357.4064      -1057.7194
   6451606.66246   5027225.21646  22808443.1664   22808445.5684
     -4871.0784      -3795.6454
   6937787.64447   5295105.21646  22489235.3694   22489237.4204
     -5176.4064      -4033.5634
    299160.45446    235509.64646  22455608.5254   22455610.8344
      -711.6724       -554.5504
   2535960.62544   1706105.81843  25476801.7604   25476806.3774
     -2623.7664      -2044.4934
   -429226.97245   -294759.60642  24530796.9634   24530802.1784
       296.6094        231.1244
   -739052.06845   -515723.61443  24812845.5724   24812851.7134
      1074.3594        837.1634
 98  6 29 19 18 30.0020000  0  8G 5G 6G10G30G17G13G26G23
   8710995.23245   6738586.70544  24559357.9864   24559365.7714
     -5994.1414      -4670.7594
   1238381.28747    964974.05747  21208259.0494   21208259.7874
     -1365.4694      -1064.0024
   6524743.88546   5084215.24546  22822360.7834   22822363.1974
     -4880.6414      -3803.0974
   7015501.08847   5355661.12246  22504023.7994   22504025.7914
     -5185.4534      -4040.6134
    309888.20447    243868.95846  22457649.8144   22457651.9594
      -718.7344       -560.0534
   2575400.43645   1736838.12443  25484306.9794   25484308.5494
     -2634.9694      -2053.2224
   -433637.64545   -298196.41143  24529957.3464   24529962.3614
       291.3754        227.0454
   -755127.05345   -528249.43543  24809785.6274   24809791.6394
      1068.9384        832.9384
 98  6 29 19 18 45.0020000  0  8G 5G 6G10G30G17G13G26G23
   8800936.49845   6808670.68943  24576472.7684   24576478.7564
     -5997.8594      -4673.6574
   1258923.57347    980981.03947  21212167.7524   21212168.4794
     -1373.3594      -1070.1504
   6598024.34346   5141316.89046  22836305.6504   22836308.1354
     -4889.8594      -3810.2804
   7093349.82447   5416322.45246  22518838.1354   22518840.2444
     -5194.1564      -4047.3944
    320720.10447    252309.42246  22459710.9864   22459713.0614
      -725.3594       -565.2154
   2615007.57944   1767700.78942  25491843.7294   25491847.4204
     -2645.8444      -2061.6964
   -437968.31145   -301570.85943  24529132.7444   24529136.9864
       286.2344        223.0404
   -771122.76545   -540713.49643  24806741.9324   24806748.6114
      1063.9844        829.0794
 98  6 29 19 19  0.0020000  0  8G 5G 6G10G30G17G13G26G23
   8890933.04645   6878797.73544  24593597.9944   24593605.5334
     -6001.6874      -4676.6404
   1279584.32147    997080.32847  21216099.4794   21216100.1584
     -1381.3444      -1076.3724
   6671440.44046   5198524.22346  22850276.3544   22850278.7214
     -4898.9534      -3817.3664
   7171326.73847   5477083.65346  22533676.5414   22533678.5574
     -5202.7974      -4054.1274
    331651.67547    260827.55446  22461791.3694   22461793.3384
      -732.1874       -570.5364
   2654776.65044   1798689.70742  25499410.7754   25499414.3854
     -2656.7034      -2070.1584
   -442220.54745   -304884.19043  24528323.7834   24528328.1314
       280.7664        218.7784
   -787044.43345   -553119.84943  24803711.9164   24803717.7404
      1058.9224        825.1344
 98  6 29 19 19 15.0020000  0  8G 5G 6G10G30G17G13G26G23
   8980987.05345   6948969.59343  24610735.7754   24610743.0684
     -6005.2974      -4679.4524
   1300362.42047   1013271.05847  21220053.5574   21220054.2484
     -1388.8594      -1082.2284
   6744993.42346   5255838.23046  22864273.2604   22864275.5214
     -4907.9224      -3824.3554
   7249432.92647   5537945.59046  22548540.0024   22548542.1234
     -5211.1094      -4060.6054
    342685.98047    269425.73746  22463891.0414   22463893.2094
      -738.8444       -575.7224
   2694708.13344   1829805.07142  25507010.4324   25507014.5574
     -2667.2664      -2078.3894
   -446391.05045   -308133.86843  24527529.7914   24527534.3854
       275.4694        214.6514
   -802891.63145   -565468.14243  24800696.0254   24800701.8964
      1054.2344        821.4814
 98  6 29 19 19 30.0020000  0  8G 5G 6G10G30G17G13G26G23
   9071090.24945   7019179.72444  24627881.8464   24627888.2444
     -6008.7194      -4682.1194
   1321250.29047   1029547.33047  21224028.1894   21224028.9164
     -1396.5314      -1088.2064
   6818675.37646   5313252.72946  22878294.4164   22878296.4794
     -4916.6254      -3831.1364
   7327659.51747   5598901.34246  22563425.8614   22563427.8544
     -5219.3594      -4067.0334
    353814.16846    278097.08346  22466008.5494   22466010.8814
      -745.1724       -580.6534
   2734791.65844   1861039.00342  25514638.1354   25514642.7524
     -2677.5474      -2086.4004
   -450485.24145   -311324.04843  24526751.1044   24526754.9004
       270.1414        210.4994
   -818671.97545   -577764.40043  24797692.9474   24797698.7834
      1049.5314        817.8174
 98  6 29 19 19 45.0020000  0  8G 5G 6G10G30G17G13G26G23
   9161247.94545   7089432.35543  24645038.4634   24645045.2254
     -6012.5314      -4685.0894
   1342258.15447   1045917.09447  21228025.9164   21228026.7954
     -1404.6874      -1094.5624
   6892491.71446   5370771.94046  22892340.8224   22892343.1544
     -4925.7034      -3838.2104
   7406012.45647   5659955.55146  22578335.7444   22578337.7954
     -5227.8284      -4073.6324
    365040.72247    286845.07146  22468144.8774   22468147.1624
      -751.8754       -585.8774
   2775036.40144   1892398.55742  25522296.4794   25522301.0724
     -2688.6414      -2095.0454
   -454494.25845   -314447.84143  24525988.6354   24525994.3774
       264.2504        205.9094
   -834377.80545   -590002.55643  24794704.4864   24794711.2484
      1044.4224        813.8354
 98  6 29 19 20  0.0020000  0  8G 5G 6G10G30G17G13G26G23
   9251461.03345   7159728.13043  24662205.5574   24662212.2364
     -6015.9224      -4687.7314
   1363384.97647   1062379.55947  21232046.2364   21232047.1044
     -1412.2344      -1100.4424
   6966441.42946   5428395.08246  22906413.2364   22906415.7324
     -4934.2504      -3844.8704
   7484489.25747   5721106.27646  22593269.5804   22593271.7604
     -5235.7194      -4079.7814
    376365.02346    295669.22246  22470299.8544   22470302.3144
      -758.0314       -590.6744
   2815445.57044   1923886.23142  25529986.5574   25529991.1274
     -2699.2504      -2103.3124
   -458420.22445   -317506.96143  24525241.3304   24525245.5494
       259.2814        202.0374
   -850010.89745   -602184.02943  24791729.7604   24791735.0804
      1040.0164        810.4024
 98  6 29 19 20 15.0020000  0  8G 5G 6G10G30G17G13G26G23
   9341738.02744   7230073.72843  24679384.1974   24679392.1354
     -6020.7194      -4691.4694
   1384637.76447   1078940.18347  21236090.3774   21236091.3854
     -1421.1724      -1107.4074
   7040527.28346   5486124.30546  22920511.2604   22920513.4634
     -4943.4694      -3852.0544
   7563095.71447   5782358.03446  22608227.8774   22608229.9984
     -5244.7974      -4086.8554
    387793.99047    304574.93246  22472474.8224   22472477.2484
      -765.5004       -596.4944
   2856025.94645   1955507.29242  25537708.2914   25537710.0844
     -2711.1094      -2112.5534
   -462260.72045   -320499.45543  24524509.7754   24524516.4084
       253.1094        197.2284
   -865567.29445   -614305.75544  24788769.0724   24788774.9204
      1034.5004        806.1044
 98  6 29 19 20 30.0020000  0  8G 5G 6G10G30G17G13G26G23
   9432076.41044   7300467.11443  24696575.0644   24696582.6744
     -6024.3594      -4694.3064
   1406015.13547   1095597.88047  21240158.3934   21240159.4004
     -1429.0624      -1113.5554
   7114740.59346   5543952.85146  22934633.5104   22934635.8544
     -4951.6414      -3858.4214
   7641828.28247   5843708.05846  22623210.2994   22623212.1154
     -5252.8444      -4093.1254
    399326.32647    313561.19346  22474669.3614   22474671.9514
      -772.1414       -601.6684
   2896774.06244   1987259.04242  25545462.3934   25545466.5414
     -2721.9064      -2120.9664
   -466019.50845   -323428.26343  24523794.5184   24523799.7324
       248.1414        193.3564
   -881050.82745   -626370.69443  24785822.2134   24785828.3654
      1029.9534        802.5614
 98  6 29 19 20 45.0020000  0  8G 5G 6G10G30G17G13G26G23
   9522471.98944   7370905.11543  24713777.7054   24713784.2914
     -6028.2194      -4697.3134
   1427512.55947   1112349.12747  21244249.3144   21244250.2294
     -1437.1254      -1119.8384
   7189079.96746   5601879.61846  22948779.8774   22948782.2444
     -4960.1724      -3865.0694
   7720684.14047   5905154.15246  22638215.9944   22638217.9864
     -5261.1254      -4099.5784
    410960.74447    322626.99846  22476883.1114   22476885.4794
      -778.9064       -606.9404
   2937685.86244   2019138.39142  25553247.3934   25553251.9164
     -2732.8754      -2129.5134
   -469701.15645   -326297.01543  24523093.9794   24523098.3264
       242.8284        189.2174
   -896461.92745   -638379.22343  24782890.2444   24782895.7294
      1025.0004        798.7014
 98  6 29 19 21  0.0020000  0  8G 5G 6G10G30G17G13G26G23
   9612919.10944   7441383.22843  24730988.1584   24730995.1824
     -6031.7344      -4700.0534
   1449129.11847   1129193.20447  21248362.5254   21248363.3464
     -1445.3914      -1126.2784
   7263544.68046   5659904.05246  22962950.2364   22962952.8034
     -4968.8124      -3871.8024
   7799661.29647   5966694.75746  22653244.9084   22653246.6784
     -5269.4534      -4106.0674
    422691.83047    331768.13046  22479115.6114   22479118.0024
      -785.5784       -612.1394
   2978758.53345   2051143.00642  25561063.4164   25561064.6704
     -2743.8284      -2138.0484
   -473305.01445   -329105.12743  24522408.0724   24522411.5644
       237.4064        184.9924
   -911801.19545   -650331.75743  24779970.2754   24779975.4904
      1019.8594        794.6964
 98  6 29 19 21 15.0020000  0  8G 5G 6G10G30G17G13G26G23
   9703417.94044   7511901.66543  24748209.2214   24748216.1974
     -6035.0314      -4702.6224
   1470867.28447   1146132.03847  21252499.3774   21252500.2444
     -1453.2504      -1132.4034
   7338140.47646   5718030.63346  22977145.4394   22977148.0884
     -4977.5784      -3878.6324
   7878763.37947   6028332.72046  22668297.6354   22668299.7094
     -5277.7504      -4112.5324
    434522.75946    340987.05746  22481366.6274   22481368.9364
      -792.0944       -617.2164
   3019995.42945   2083275.65242  25568910.9004   25568913.9824
     -2754.7034      -2146.5224
   -476830.09845   -331851.83643  24521736.8774   24521742.2214
       232.4064        181.0964
   -927062.35345   -662223.40043  24777066.5024   24777072.1504
      1014.7034        790.6784
 98  6 29 19 21 30.0020000  0  8G 5G 6G10G30G17G13G26G23
   9793971.80644   7582462.98942  24765442.2134   24765448.8344
     -6038.8124      -4705.5684
   1492729.66847   1163167.66847  21256659.6504   21256660.3894
     -1461.7814      -1139.0504
   7412873.11846   5776263.84446  22991366.5104   22991368.8894
     -4986.7504      -3885.7794
   7957994.65847   6090071.35046  22683375.0964   22683377.2054
     -5286.4374      -4119.3024
    446456.56546    350286.14846  22483637.7134   22483640.1274
      -799.0784       -622.6584
   3061401.71944   2115540.28742  25576790.2294   25576795.5254
     -2766.1564      -2155.4464
   -480275.46245   -334536.44743  24521080.9794   24521086.4044
       226.9694        176.8594
   -942240.60644   -674050.47443  24774178.0024   24774185.3544
      1009.0634        786.2824
 98  6 29 19 21 45.0020000  0  8G 5G 6G10G30G17G13G26G23
   9884573.10144   7653061.25243  24782682.9944   24782690.0294
     -6041.5314      -4707.6874
   1514712.37547   1180297.05347  21260842.9004   21260843.7444
     -1469.3284      -1144.9314
   7487734.17646   5834597.12646  23005612.2684   23005614.2604
     -4994.8914      -3892.1234
   8037349.81747   6151906.51146  22698475.6744   22698477.4904
     -5294.3284      -4125.4504
    458488.14646    359661.42346  22485927.4244   22485929.6864
      -805.2814       -627.4924
   3102973.81744   2147934.10242  25584700.9394   25584703.0024
     -2776.9534      -2163.8604
   -483646.69245   -337163.31443  24520439.4244   24520444.0534
       222.4224        173.3164
   -957342.71244   -685818.21143  24771303.9944   24771311.2294
      1004.4844        782.7154
 98  6 29 19 22  0.0020000  0  8G 5G 6G10G30G17G13G26G23
   9975219.63444   7723694.79543  24799932.1974   24799939.9594
     -6044.8284      -4710.2564
   1536811.23947   1197516.95447  21265048.0964   21265048.8574
     -1477.3444      -1151.1774
   7562721.94946   5893029.13746  23019881.6114   23019883.8854
     -5003.6414      -3898.9414
   8116826.80747   6213836.60246  22713599.6824   22713601.6044
     -5302.7814      -4132.0374
    470618.60646    369113.75246  22488235.2364   22488237.4284
      -812.2504       -632.9224
   3144711.91744   2180457.29742  25592643.9554   25592646.9204
     -2788.2344      -2172.6504
   -486946.39545   -339734.42243  24519811.5964   24519817.8774
       217.4064        169.4074
   -972372.68744   -697529.70043  24768443.6894   24768450.6434
       999.4064        778.7584
 98  6 29 19 22 15.0020000  0  8G 5G 6G10G30G17G13G26G23
  10065913.43844   7794365.12342  24817191.2754   24817199.7644
     -6047.7814      -4712.5574
   1559030.77847   1214830.88947  21269276.3614   21269277.0534
     -1485.4064      -1157.4594
   7637840.74446   5951563.24746  23034176.4794   23034178.8464
     -5012.2974      -3905.6864
   8196429.36247   6275864.53646  22728747.5964   22728749.3654
     -5311.0004      -4138.4424
    482852.39646    378646.59946  22490563.3464   22490565.7014
      -818.9844       -638.1704
   3186617.21044   2213110.71242  25600617.3694   25600621.0724
     -2799.2814      -2181.2584
   -490173.40345   -342248.86343  24519197.5104   24519202.3964
       212.7194        165.7554
   -987329.36144   -709184.13043  24765597.4324   24765603.1624
       994.7344        775.1184
 98  6 29 19 22 30.0020000  0  8G 5G 6G10G30G17G13G26G23
  10156650.77944   7865069.39443  24834457.5104   24834465.8344
     -6050.4224      -4714.6144
   1581372.01447   1232239.64747  21273527.7684   21273528.4944
     -1493.3284      -1163.6324
   7713089.93846   6010198.96546  23048495.9324   23048498.3114
     -5020.9064      -3912.3944
   8276155.76947   6337988.98246  22743919.1504   22743920.7324
     -5319.1094      -4144.7614
    495186.87946    388257.90446  22492910.6354   22492912.8504
      -825.4844       -643.2354
   3228689.68644   2245894.49542  25608624.0184   25608627.1934
     -2810.2664      -2189.8174
   -493325.94245   -344705.31943  24518598.3384   24518603.3894
       207.7194        161.8594
  -1002214.35644   -720782.68843  24762764.1584   24762769.2444
       990.0314        771.4534
 98  6 29 19 22 45.0020000  0  8G 5G 6G10G30G17G13G26G23
  10247427.63644   7935804.48043  24851731.7834   24851738.7364
     -6053.1414      -4716.7334
   1603833.31747   1249741.96547  21277801.9394   21277802.5964
     -1501.4534      -1169.9634
   7788473.09346   6068939.07246  23062840.9324   23062843.1464
     -5030.1414      -3919.5904
   8356004.97747   6400209.10946  22759113.7994   22759115.5684
     -5327.3754      -4151.2014
    507619.05446    397945.33546  22495276.5254   22495278.9394
      -832.0474       -648.3484
   3270927.14445   2278806.77642  25616661.5884   25616665.4204
     -2821.3914      -2198.4864
   -496402.83945   -347102.80543  24518012.2294   24518016.4824
       202.5784        157.8534
  -1017025.92044   -732324.00843  24759945.8304   24759953.5684
       984.8914        767.4474
 98  6 29 19 23  0.0020000  0  8G 5G 6G10G30G17G13G26G23
  10338239.57144   8006566.87943  24869013.3694   24869018.4554
     -6055.3754      -4718.4744
   1626410.72347   1267334.76147  21282098.2604   21282098.7294
     -1509.1564      -1175.9664
   7863988.80346   6127782.47046  23077211.3304   23077213.6974
     -5038.8124      -3926.3474
   8435970.93747   6462520.21246  22774331.2054   22774332.9044
     -5335.0474      -4157.1794
    520141.22546    407702.89146  22497659.3074   22497661.7794
      -837.7974       -652.8294
   3313325.06145   2311844.08242  25624729.6744   25624732.1584
     -2831.9534      -2206.7174
   -499407.96345   -349444.37443  24517439.8384   24517444.5254
       197.8134        154.1404
  -1031766.03044   -743809.60943  24757140.4554   24757146.6544
       980.2344        763.8194
 98  6 29 19 23 15.0020000  0  8G 5G 6G10G30G17G13G26G23
  10429091.56045   8077360.50643  24886302.3774   24886308.0024
     -6058.2034      -4720.6784
   1649109.66847   1285022.25447  21286418.0254   21286418.5064
     -1517.2504      -1182.2734
   7939638.38046   6186730.17546  23091606.4004   23091608.9204
     -5047.6724      -3933.2514
   8516057.67447   6524925.43146  22789571.0024   22789572.6784
     -5343.0784      -4163.4374
    532754.75846    417531.64546  22500059.5104   22500062.0064
      -843.9064       -657.5894
   3355887.51544   2345009.67842  25632828.6894   25632830.9164
     -2842.9844      -2215.3124
   -502337.83445   -351727.31543  24516882.4394   24516886.4004
       192.9534        150.3534
  -1046431.83644   -755237.38543  24754349.8144   24754355.3934
       975.3134        759.9844
 98  6 29 19 23 30.0020000  0  8G 5G 6G10G30G17G13G26G23
  10519984.33344   8148185.91143  24903598.3614   24903604.3144
     -6061.0164      -4722.8694
   1671926.60847   1302801.69447  21290759.8304   21290760.5454
     -1525.2504      -1188.5064
   8015416.47346   6245778.01446  23106026.5104   23106029.1004
     -5056.2344      -3939.9234
   8596261.56247   6587421.92646  22804833.2604   22804834.8774
     -5350.9374      -4169.5624
    545457.12246    427429.61046  22502476.6664   22502479.1154
      -849.9694       -662.3134
   3398612.61143   2378301.90042  25640958.7364   25640962.0064
     -2853.9374      -2223.8474
   -505197.98845   -353955.92443  24516338.3694   24516343.5844
       188.1254        146.5914
  -1061028.52844   -766611.25742  24751572.3614   24751578.9124
       970.7194        756.4044
 98  6 29 19 23 45.0020000  0  8G 5G 6G10G30G17G13G26G23
  10610921.29445   8219045.71642  24920903.5884   24920909.5184
     -6063.8914      -4725.1104
   1694867.91647   1320678.04247  21295125.3694   21295125.9904
     -1533.5164      -1194.9474
   8091323.99446   6304926.71446  23120471.1194   23120473.6044
     -5064.7974      -3946.5954
   8676586.27947   6650012.58446  22820118.7134   22820120.4474
     -5359.0314      -4175.8694
    558254.17546    437401.35946  22504911.6354   22504913.9674
      -856.2974       -667.2444
   3441504.64444   2411724.30042  25649121.6664   25649127.1974
     -2864.9844      -2232.4554
   -507980.31545   -356123.93243  24515808.7604   24515813.5184
       182.8134        142.4514
  -1075553.27045   -777929.08543  24748808.7684   24748815.4474
       965.8914        752.6424
 98  6 29 19 24  0.0020000  0  8G 5G 6G10G30G17G13G26G23
  10701895.72145   8289934.73343  24938215.4244   24938222.4364
     -6066.1094      -4726.8384
   1717927.08047   1338646.23047  21299513.5964   21299514.0644
     -1541.1564      -1200.9014
   8167354.87446   6364171.53846  23134939.7294   23134942.4004
     -5072.7664      -3952.8044
   8757026.58647   6712693.31146  22835426.0724   22835427.7254
     -5366.4064      -4181.6154
    571140.64346    447442.78246  22507364.2754   22507366.9004
      -861.9534       -671.6524
   3484555.54543   2445270.43042  25657314.1584   25657318.3184
     -2875.1414      -2240.3694
   -510687.39845   -358233.27043  24515293.6504   24515298.0804
       178.0474        138.7384
  -1090010.38545   -789194.25143  24746056.8774   24746062.5724
       961.6094        749.3064
 98  6 29 19 24 15.0030000  0  8G 5G 6G10G30G17G13G26G23
  10792907.58845   8360852.93343  24955534.8824   24955542.5504
     -6068.1564      -4728.4334
   1741102.38947   1356704.92447  21303923.6244   21303924.2924
     -1548.8444      -1206.8914
   8243508.91146   6423512.32746  23149431.4294   23149434.2414
     -5080.5784      -3958.8924
   8837581.22147   6775463.11946  22850754.9374   22850756.6244
     -5373.6724      -4187.2774
    584109.34646    457548.28146  22509832.2104   22509834.7654
      -867.1874       -675.7314
   3527757.79343   2478934.47942  25665534.6634   25665536.5384
     -2884.9064      -2247.9794
   -513325.13045   -360288.59043  24514790.7884   24514794.7144
       173.4534        135.1584
  -1104405.34345   -800410.93543  24743318.2494   24743321.5654
       957.3754        746.0064
 98  6 29 19 24 30.0030000  0  8G 5G 6G10G30G17G13G26G23
  10883945.29945   8431791.28042  24972858.4374   24972865.3784
     -6070.1724      -4730.0044
   1764391.31147   1374852.14047  21308355.3744   21308355.8904
     -1556.2814      -1212.6874
   8319775.32046   6482940.68146  23163944.3354   23163947.2884
     -5088.1874      -3964.8214
   8918239.65647   6838313.81346  22866103.7024   22866105.5074
     -5380.7664      -4192.8044
    597154.19546    467713.11746  22512314.4684   22512316.8234
      -872.0944       -679.5544
   3571103.29843   2512710.27342  25673783.2724   25673786.8004
     -2894.4844      -2255.4424
   -515892.70845   -362289.24843  24514302.9524   24514308.1794
       168.8594        131.5794
  -1118733.34645   -811575.48543  24740591.1474   24740596.3624
       953.0164        742.6104
 98  6 29 19 24 45.0030000  0  8G 5G 6G10G30G17G13G26G23
  10975016.71645   8502755.86043  24990189.0384   24990195.6714
     -6072.5314      -4731.8434
   1787792.59147   1393086.91047  21312808.3664   21312809.0224
     -1563.8284      -1218.5674
   8396158.30346   6542459.87046  23178479.4914   23178481.8584
     -5096.1254      -3971.0064
   8999008.37947   6901250.45346  22881473.5074   22881475.0544
     -5388.2814      -4198.6614
    610276.12746    477938.02246  22514811.3194   22514813.5224
      -877.3914       -683.6814
   3614595.35043   2546600.09142  25682059.8824   25682063.3864
     -2904.3284      -2263.1134
   -518386.08645   -364232.03943  24513828.6554   24513833.7884
       163.7814        127.6224
  -1132991.37245   -822685.49244  24737878.2104   24737885.1404
       948.1564        738.8234
 98  6 29 19 25  0.0030000  0  8G 5G 6G10G30G17G13G26G23
  11066117.73445   8573743.50343  25007525.2184   25007530.8194
     -6074.3594      -4733.2674
   1811302.92147   1411406.65347  21317282.2104   21317282.8544
     -1570.9534      -1224.1194
   8472655.06346   6602067.72246  23193036.5224   23193039.0194
     -5103.4374      -3976.7054
   9079883.94547   6964270.33746  22896863.6634   22896865.3624
     -5395.2034      -4204.0544
    623472.72046    488221.10646  22517322.7334   22517325.0654
      -882.2344       -687.4554
   3658230.55543   2580601.59342  25690362.4374   25690365.1674
     -2913.8444      -2270.5284
   -520810.32645   -366121.00843  24513367.0154   24513371.6084
       159.3134        124.1404
  -1147183.04445   -833743.79144  24735177.2494   24735182.7104
       944.0634        735.6334
 98  6 29 19 25 15.0030000  0  8G 5G 6G10G30G17G13G26G23
  11157252.66045   8644757.55943  25024867.4134   25024874.3434
     -6076.7664      -4735.1424
   1834925.97747   1429814.23847  21321777.4524   21321778.0854
     -1578.5944      -1230.0734
   8549265.60046   6661764.22646  23207614.6714   23207617.1904
     -5111.0784      -3982.6584
   9160869.85547   7027376.20546  22912275.0154   22912276.8434
     -5402.7664      -4209.9474
    636749.08546    498566.34446  22519848.6634   22519851.0654
      -887.8284       -691.8144
   3702014.32744   2614718.80942  25698694.9134   25698700.2574
     -2923.8124      -2278.2954
   -523159.47545   -367951.43743  24512919.9684   24512924.5974
       154.0944        120.0734
  -1161309.26645   -844751.10344  24732489.1874   24732494.4134
       939.6724        732.2124
 98  6 29 19 25 30.0030000  0  8G 5G 6G10G30G17G13G26G23
  11248420.99345   8715797.70443  25042215.8514   25042221.2414
     -6079.2034      -4737.0414
   1858659.98147   1448308.26947  21326293.9994   21326294.5264
     -1586.1724      -1235.9784
   8625987.27546   6721547.32446  23222214.5464   23222217.2534
     -5118.7504      -3988.6364
   9241967.02147   7090568.76946  22927707.3434   22927709.1944
     -5410.4534      -4215.9374
    650108.95546    508976.65346  22522391.1794   22522393.5464
      -893.7814       -696.4534
   3745945.41243   2648950.82542  25707054.1554   25707058.5854
     -2933.9064      -2286.1614
   -525432.67045   -369722.67743  24512487.5544   24512493.2374
       148.7974        115.9464
  -1175372.22745   -855709.14144  24729812.5304   24729818.2374
       935.1724        728.7054
 98  6 29 19 25 45.0030000  0  8G 5G 6G10G30G17G13G26G23
  11339620.88644   8786862.43242  25059571.5464   25059580.2924
     -6081.0624      -4738.4904
   1882504.61847   1466888.51547  21330831.4604   21330832.1984
     -1593.3914      -1241.6034
   8702821.52546   6781418.15946  23236835.7104   23236838.4994
     -5126.0944      -3994.3594
   9323175.65747   7153848.19146  22943160.8744   22943162.3864
     -5417.6564      -4221.5504
    663556.35846    519455.16146  22524950.0694   22524952.4484
      -899.5004       -700.9094
   3790025.33043   2683298.81542  25715442.0154   25715447.3824
     -2943.6724      -2293.7704
   -527627.89445   -371433.19643  24512069.4684   24512073.4644
       143.5944        111.8914
  -1189370.77045   -866616.95344  24727148.7724   24727154.5384
       931.0004        725.4554
 98  6 29 19 26  0.0030000  0  8G 5G 6G10G30G17G13G26G23
  11430853.56644   8857952.65943  25076932.4374   25076938.7534
     -6083.0164      -4740.0124
   1906461.55347   1485556.26347  21335390.1554   21335390.9404
     -1600.5624      -1247.1924
   8779770.58146   6841378.44446  23251478.7574   23251481.2294
     -5133.5164      -4000.1424
   9404497.47647   7217215.80946  22958635.7804   22958637.1164
     -5424.9064      -4227.2004
    677093.30646    530003.45546  22527526.1084   22527528.6044
      -905.0944       -705.2684
   3834255.83243   2717764.10342  25723858.7724   25723862.7574
     -2953.4374      -2301.3804
   -529739.88345   -373078.85643  24511668.0224   24511671.6444
       138.3134        107.7764
  -1203301.27645   -877471.77243  24724498.3194   24724503.7104
       926.7034        722.1064
 98  6 29 19 26 15.0030000  0  8G 5G 6G10G30G17G13G26G23
  11522114.76144   8929065.11742  25094298.7024   25094305.1594
     -6085.0784      -4741.6194
   1930525.05947   1504307.05347  21339969.4294   21339970.1444
     -1607.7974      -1252.8294
   8856829.39246   6901424.24946  23266142.4604   23266144.8274
     -5140.9534      -4005.9374
   9485924.45047   7280665.36046  22974130.9604   22974132.4834
     -5431.9534      -4232.6914
    690711.51646    540615.06746  22530117.6474   22530120.0384
      -910.5624       -709.5294
   3878631.87444   2752342.86042  25732304.2024   25732305.2804
     -2963.3124      -2309.0754
   -531776.14845   -374665.46943  24511279.9604   24511282.9954
       133.2814        103.8564
  -1217169.36545   -888277.92444  24721858.8194   24721866.3584
       922.4384        718.7824
 98  6 29 19 26 30.0030000  0  8G 5G 6G10G30G17G13G26G23
  11613405.13444   9000200.35042  25111670.8584   25111679.4764
     -6086.7194      -4742.8984
   1954692.43647   1523138.78447  21344568.2804   21344569.2294
     -1614.2344      -1257.8454
   8933997.13046   6961554.94146  23280826.8584   23280829.3314
     -5147.7974      -4011.2704
   9567453.84447   7344194.72446  22989645.5224   22989647.2224
     -5438.3754      -4237.6954
    704408.36447    551287.95746  22532723.8974   22532726.1594
      -915.4534       -713.3404
   3923154.93644   2787036.17142  25740776.7804   25740779.3234
     -2972.8754      -2316.5264
   -533741.50645   -376196.85943  24510906.0154   24510908.6984
       129.0314        100.5444
  -1230976.61145   -899036.67444  24719231.4604   24719238.9404
       918.7344        715.8974
 98  6 29 19 26 45.0030000  0  8G 5G 6G10G30G17G13G26G23
  11704722.12044   9071356.28442  25129048.3584   25129055.2024
     -6088.7664      -4744.4934
   1978957.60047   1542046.71347  21349185.7184   21349186.3514
     -1621.0474      -1263.1534
   9011270.63346   7021768.05346  23295532.0074   23295534.4684
     -5155.2344      -4017.0664
   9649081.31347   7407800.50846  23005178.6244   23005180.3004
     -5445.1874      -4243.0034
    718183.28747    562021.68646  22535345.3354   22535347.5384
      -921.1414       -717.7724
   3967825.48944   2821844.36242  25749276.8354   25749280.3744
     -2983.1724      -2324.5504
   -535639.76145   -377675.96543  24510543.9834   24510547.6984
       124.1414         96.7334
  -1244725.25345   -909749.77043  24716614.6874   24716620.8274
       914.5474        712.6344
 98  6 29 19 27  0.0030000  0  8G 5G 6G10G30G17G13G26G23
  11796068.57844   9142535.18542  25146431.7724   25146439.3474
     -6090.5314      -4745.8694
   2003326.02047   1561035.09947  21353823.0854   21353823.8474
     -1627.9064      -1268.4984
   9088655.88846   7082068.23146  23310257.5624   23310259.8944
     -5162.5314      -4022.7524
   9730810.22847   7471485.34346  23020731.2104   23020732.8624
     -5451.7344      -4248.1054
    732043.67447    572822.00346  22537982.9374   22537985.0114
      -926.6414       -722.0584
   4012650.08144   2856772.65342  25757806.3664   25757811.7694
     -2993.1874      -2332.3544
   -537466.36645   -379099.25943  24510197.7804   24510201.1794
       119.7034         93.2754
  -1258412.42445   -920414.98344  24714010.5464   24714016.1244
       910.6724        709.6144
 98  6 29 19 27 15.0030000  0  8G 5G 6G10G30G17G13G26G23
  11887443.05244   9213735.93842  25163819.4214   25163828.7414
     -6092.7344      -4747.5854
   2027800.51847   1580106.14447  21358480.0854   21358480.8354
     -1635.2974      -1274.2574
   9166150.49846   7142453.62646  23325004.6874   23325007.0074
     -5170.0164      -4028.5844
   9812638.38347   7535247.50946  23036302.5854   23036304.2844
     -5458.6414      -4253.4864
    745987.65347    583687.45846  22540636.2574   22540638.2724
      -932.5164       -726.6364
   4057626.62144   2891819.25242  25766366.1874   25766369.5854
     -3003.5944      -2340.4634
   -539225.33245   -380469.80243  24509862.4444   24509866.2414
       114.8594         89.5014
  -1272040.60145   -931034.22344  24711416.4214   24711422.2334
       906.4224        706.3034
 98  6 29 19 27 30.0030000  0  8G 5G 6G10G30G17G13G26G23
  11978843.37544   9284956.76642  25181212.0464   25181219.0464
     -6094.0164      -4748.5844
   2052378.34447   1599257.70447  21363157.1714   21363157.8394
     -1641.8284      -1279.3474
   9243750.47346   7202921.11946  23339771.1164   23339773.7534
     -5176.6874      -4033.7824
   9894562.81646   7599084.69046  23051892.4604   23051894.3824
     -5464.6874      -4258.1984
    760012.49847    594615.92946  22543304.9834   22543306.9644
      -937.5004       -730.5194
   4102750.81144   2926980.99442  25774952.5934   25774956.1674
     -3013.0624      -2347.8414
   -540918.64245   -381789.21344  24509540.3974   24509544.6404
       110.9064         86.4204
  -1285610.59745   -941608.11344  24708834.1634   24708840.5264
       902.8284        703.5024
 98  6 29 19 27 45.0030000  0  8G 5G 6G10G30G17G13G26G23
  12070268.09844   9356196.66642  25198609.8194   25198617.5814
     -6095.8444      -4750.0084
   2077063.20647   1618492.66647  21367854.8744   21367855.4254
     -1649.4374      -1285.2764
   9321458.69046   7263472.95446  23354558.4524   23354561.1244
     -5184.3124      -4039.7244
   9976584.91646   7662997.98046  23067500.7414   23067502.6754
     -5471.4534      -4263.4704
    774118.37647    605607.54046  22545989.6474   22545991.4644
      -943.1254       -734.9034
   4148025.98544   2962260.30842  25783568.3124   25783570.5034
     -3023.5004      -2355.9744
   -542546.63645   -383057.69343  24509230.5304   24509233.9174
       106.2034         82.7564
  -1299118.04845   -952133.23844  24706263.9524   24706269.6834
       898.2814        699.9594
 98  6 29 19 28  0.0030000  0  8G 5G 6G10G30G17G13G26G23
  12161723.30544   9427460.34142  25216013.3664   25216018.5114
     -6098.0164      -4751.7004
   2101866.67347   1637820.05347  21372574.6474   21372575.3624
     -1657.5474      -1291.5954
   9399283.52846   7324115.66446  23369368.3664   23369371.0624
     -5192.1094      -4045.8004
  10058709.55847   7726991.16946  23083128.4214   23083130.2264
     -5478.3284      -4268.8274
    788308.46447    616664.77646  22548689.8434   22548691.7414
      -948.6874       -739.2374
   4193458.82644   2997662.53742  25792213.3434   25792217.2574
     -3033.9224      -2364.0954
   -544099.81245   -384267.93043  24508934.1324   24508938.7024
       101.1254         78.7994
  -1312554.91445   -962603.40944  24703707.0074   24703712.9374
       893.5004        696.2344
 98  6 29 19 28 15.0030000  0  8G 5G 6G10G30G17G13G26G23
  12253206.29144   9498745.59142  25233422.3434   25233428.5544
     -6099.8284      -4753.1134
   2126787.84647   1657239.15547  21377316.8824   21377317.5384
     -1665.4064      -1297.7194
   9477221.20046   7384846.30446  23384199.3354   23384201.7724
     -5199.7504      -4051.7534
  10140931.61047   7791060.25946  23098774.9444   23098776.6674
     -5484.7344      -4273.8194
    802576.43847    627782.69446  22551404.8584   22551406.6984
      -953.8284       -743.2434
   4239041.92444   3033181.86042  25800886.9604   25800889.7724
     -3043.9534      -2371.9124
   -545584.04845   -385424.39643  24508652.0384   24508656.5504
        96.6724         75.3294
  -1325925.08245   -973021.59544  24701162.5154   24701168.6554
       889.0634        692.7764
 98  6 29 19 28 30.0030000  0  8G 5G 6G10G30G17G13G26G23
  12344719.16244   9570054.16342  25250836.2654   25250843.5584
     -6101.8124      -4754.6594
   2151830.85047   1676753.19047  21382082.2184   21382082.8624
     -1673.6414      -1304.1364
   9555276.12146   7445668.30546  23399052.5464   23399054.8084
     -5207.5474      -4057.8294
  10223253.30647   7855207.00246  23114440.2724   23114441.7494
     -5491.5004      -4279.0914
    816924.19047    638962.78246  22554135.1874   22554137.1794
      -959.1724       -747.4074
   4284777.83643   3068820.23542  25809590.9054   25809592.4404
     -3054.1254      -2379.8384
   -546999.66645   -386527.43543  24508382.4214   24508387.2374
        92.0314         71.7134
  -1339227.04745   -983386.64444  24698631.0934   24698636.5074
       884.5634        689.2694
 98  6 29 19 28 45.0030000  0  8G 5G 6G10G30G17G13G26G23
  12436258.86244   9641383.63142  25268255.4914   25268266.0194
     -6103.4534      -4755.9374
   2176997.00647   1696363.19247  21386871.4374   21386871.8944
     -1681.8754      -1310.5524
   9633444.94346   7506579.06146  23413927.7884   23413929.6984
     -5214.9844      -4063.6244
  10305675.71147   7919432.20646  23130124.9684   23130126.5264
     -5498.1874      -4284.3024
    831350.33047    650203.95346  22556880.1944   22556882.1284
      -964.3594       -751.4494
   4330664.22544   3104575.84442  25818322.6084   25818324.6364
     -3064.0784      -2387.5934
   -548345.20245   -387575.83743  24508127.0544   24508132.9254
        87.2814         68.0114
  -1352463.96945   -993700.99544  24696111.8824   24696117.9294
       880.3284        685.9704
 98  6 29 19 29  0.0030000  0  8G 5G 6G10G30G17G13G26G23
  12527816.54444   9712727.09642  25285678.9444   25285689.0624
     -6104.5004      -4756.7534
   2202283.15447   1716066.68847  21391683.0774   21391683.8514
     -1689.9064      -1316.8104
   9711721.47746   7567573.75646  23428823.3434   23428825.8624
     -5222.0624      -4069.1404
  10388194.58947   7983732.59446  23145827.4134   23145829.0424
     -5504.5474      -4289.2574
    845850.36447    661502.70646  22559639.4444   22559641.5544
      -969.1564       -755.1874
   4376695.57943   3140444.47342  25827081.6404   25827082.2374
     -3073.7034      -2395.0934
   -549620.76045   -388569.72343  24507884.4764   24507888.9404
        82.5784         64.3474
  -1365641.76445  -1003969.29444  24693603.8514   24693609.7694
       876.5004        682.9874
 98  6 29 19 29 15.0030000  0  8G 5G 6G10G30G17G13G26G23
  12619393.12744   9784085.30542  25303105.2184   25303110.6204
     -6105.5944      -4757.6064
   2227693.69847   1735867.11747  21396518.5464   21396519.2024
     -1698.0004      -1323.1174
   9790105.10046   7628651.87946  23443738.9994   23443741.8004
     -5228.9224      -4074.4854
  10470811.94947   8048109.72046  23161548.9524   23161550.4994
     -5510.9064      -4294.2134
    860424.30747    672859.04446  22562413.0304   22562415.0584
      -973.8914       -758.8764
   4422873.26044   3176427.06242  25835870.8434   25835874.9444
     -3083.1724      -2402.4724
   -550823.81045   -389507.07344  24507655.0934   24507660.4954
        77.9844         60.7674
  -1378759.54445  -1014190.82244  24691107.4914   24691112.1554
       872.6564        679.9924
 98  6 29 19 29 30.0030000  0  8G 5G 6G10G30G17G13G26G23
  12710989.90344   9855459.25042  25320536.6634   25320543.8744
     -6106.9844      -4758.6894
   2253226.56347   1755762.86647  21401377.3584   21401378.0154
     -1706.0164      -1329.3634
   9868594.56846   7689812.47946  23458675.1404   23458677.6014
     -5236.0784      -4080.0614
  10553526.85946   8112562.85346  23177289.4294   23177291.3394
     -5517.4374      -4299.3024
    875073.32147    684273.88346  22565200.4134   22565202.4994
      -978.9844       -762.8454
   4469195.55144   3212522.36242  25844684.5384   25844688.8514
     -3092.8284      -2409.9964
   -551954.27945   -390387.92343  24507439.2184   24507442.5584
        73.0314         56.9074
  -1391815.20145  -1024363.92644  24688623.3904   24688629.9994
       868.4064        676.6804
 98  6 29 19 29 45.0030000  0  8G 5G 6G10G30G17G13G26G23
  12802604.16044   9926846.86942  25337969.2884   25337976.7334
     -6108.1564      -4759.6024
   2278875.97947   1775749.43147  21406258.1244   21406258.7804
     -1713.8124      -1335.4384
   9947188.61146   7751054.57846  23473631.2184   23473633.6444
     -5243.0314      -4085.4794
  10636336.59446   8177089.87246  23193047.5854   23193049.6714
     -5523.7814      -4304.2454
    889796.20347    695746.28146  22568001.9684   22568004.0654
      -983.9694       -766.7294
   4515660.93644   3248729.11742  25853526.6944   25853527.7264
     -3102.5004      -2417.5324
   -553011.89145   -391211.96244  24507239.0694   24507242.9134
        68.0314         53.0114
  -1404808.84945  -1034488.71944  24686150.4134   24686155.6514
       864.1254        673.3444
 98  6 29 19 30  0.0030000  0  8G 5G 6G10G30G17G13G26G23
  12894235.32744   9998247.56142  25355407.0154   25355415.0114
     -6109.4844      -4760.6374
   2304640.15347   1795825.42146  21411160.9764   21411161.7144
     -1721.5314      -1341.4534
  10025885.74346   7812377.00746  23488607.0304   23488608.9764
     -5250.0164      -4090.9214
  10719239.57746   8241689.55746  23208823.4914   23208826.1164
     -5530.0314      -4309.1154
    904591.56947    707275.16046  22570817.4524   22570819.6324
      -988.8444       -770.5284
   4562268.72944   3285046.88741  25862395.4054   25862396.8234
     -3111.9374      -2424.8864
   -553995.10845   -391978.04644  24507051.5934   24507056.2924
        62.9064         49.0184
  -1417739.77045  -1044564.66344  24683689.6944   24683695.6474
       859.8914        670.0454
 98  6 29 19 30 15.0030000  0  8G 5G 6G10G30G17G13G26G23
  12985889.15844  10069665.97342  25372847.9524   25372856.7574
     -6110.9224      -4761.7574
   2330520.45947   1815991.89847  21416085.8354   21416086.4444
     -1729.0474      -1347.3094
  10104688.72346   7873781.91045  23503602.5074   23503604.6404
     -5256.9694      -4096.3394
  10802236.70746   8306362.60046  23224617.6244   23224619.4764
     -5536.2034      -4313.9254
    919462.01047    718862.54746  22573647.4764   22573649.5854
      -993.8594       -774.4364
   4609018.97345   3321475.64542  25871291.7334   25871290.3624
     -3121.4064      -2432.2654
   -554900.34845   -392683.38644  24506879.8584   24506883.9014
        57.8754         45.0974
  -1430605.62545  -1054589.90844  24681241.3584   24681246.4094
       855.5784        666.6844
 98  6 29 19 30 30.0030000  0  8G 5G 6G10G30G17G13G26G23
  13077562.53744  10141099.60742  25390293.9444   25390304.5074
     -6112.0004      -4762.5974
   2356509.48147   1836243.09647  21421031.4764   21421032.0154
     -1735.9844      -1352.7154
  10183595.23446   7935267.48645  23518617.6324   23518619.9404
     -5263.6874      -4101.5754
  10885325.36346   8371106.97146  23240428.4054   23240430.8084
     -5542.1414      -4318.5514
    934407.02947    730508.03946  22576491.1324   22576493.2064
      -998.6414       -778.1624
   4655913.24444   3358016.66942  25880215.8124   25880218.9994
     -3131.0474      -2439.7774
   -555731.14145   -393330.68744  24506720.8824   24506725.0074
        53.0004         41.2994
  -1443406.57545  -1064564.55244  24678804.7724   24678809.6244
       851.3594        663.3974
 98  6 29 19 30 45.0030000  0  8G 5G 6G10G30G17G13G26G23
  13169252.42744  10212546.08942  25407740.9294   25407746.3084
     -6113.4064      -4763.6934
   2382604.07147   1856576.54347  21425997.1714   21425997.7924
     -1743.3444      -1358.4504
  10262599.68346   7996829.38045  23533652.0154   23533654.1124
     -5270.3914      -4106.7984
  10968503.47446   8435921.03846  23256256.7264   23256259.2224
     -5548.3444      -4323.3854
    949425.41747    742210.70346  22579348.7964   22579350.7764
     -1003.9844       -782.3254
   4702952.44844   3394670.55542  25889167.1634   25889172.5774
     -3140.9694      -2447.5084
   -556487.11645   -393919.69244  24506576.9214   24506580.9764
        47.6724         37.1474
  -1456142.26445  -1074488.34244  24676382.2724   24676387.7104
       846.6254        659.7084
 98  6 29 19 31  0.0030000  0  8G 5G 6G10G30G17G13G26G23
  13260959.03644  10284005.60242  25425193.0074   25425199.5814
     -6114.2814      -4764.3754
   2408802.77347   1876991.12347  21430982.6244   21430983.2224
     -1749.9224      -1363.5754
  10341701.77646   8058467.35745  23548704.3904   23548706.8744
     -5276.7504      -4111.7534
  11051769.66946   8500803.74146  23272101.7964   23272103.9994
     -5553.9064      -4327.7194
    964521.60847    753973.99146  22582221.7264   22582223.8474
     -1009.0314       -786.2584
   4750136.66244   3431437.45342  25898145.8824   25898148.7654
     -3150.4064      -2454.8624
   -557167.97245   -394450.16144  24506447.1244   24506451.4134
        42.9534         33.4704
  -1468808.22245  -1084357.84544  24673971.7414   24673976.7574
       841.9844        656.0924
 98  6 29 19 31 15.0030000  0  7G 5G 6G10G30G17G26G23
  13352675.57744  10355472.88242  25442645.8434   25442653.3474
     -6114.7194      -4764.7164
   2435095.87847   1897479.26447  21435986.1014   21435986.6874
     -1755.9694      -1368.2874
  10420895.43146   8120176.68445  23563774.5854   23563777.3744
     -5282.4534      -4116.1974
  11135114.04546   8565747.37246  23287961.9374   23287964.3514
     -5558.7344      -4331.4814
    979690.19747    765793.69546  22585108.0624   22585110.1834
     -1013.5624       -789.7894
   -557783.28145   -394929.55144  24506330.6324   24506334.9444
        39.0634         30.4384
  -1481407.94845  -1094175.68944  24671574.4134   24671579.8394
       837.9064        652.9144
 98  6 29 19 31 30.0030000  0  7G 5G 6G10G30G17G26G23
  13444401.33144  10426947.30142  25460101.3584   25460109.4014
     -6115.3594      -4765.2154
   2461481.78747   1918039.71947  21441007.1244   21441007.7454
     -1762.1564      -1373.1094
  10500177.31746   8181954.76545  23578861.2264   23578864.2964
     -5288.4844      -4120.8974
  11218532.47946   8630748.70546  23303835.9994   23303838.4484
     -5563.7194      -4335.3654
    994930.05547    777668.93446  22588008.1634   22588010.3904
     -1018.4064       -793.5634
   -558338.98045   -395362.50244  24506223.8974   24506228.1634
        35.0164         27.2854
  -1493943.67945  -1103943.67244  24669189.0304   24669194.3624
       833.5314        649.5054
 98  6 29 19 31 45.0030000  0  7G 5G 6G10G30G17G26G23
  13536141.47044  10498432.94443  25477559.4214   25477568.4834
     -6116.2504      -4765.9094
   2487966.13347   1938676.87746  21446046.5544   21446047.2924
     -1768.7974      -1378.2834
  10579555.74546   8243808.06945  23593966.6244   23593968.9794
     -5294.8754      -4125.8774
  11302031.82846   8695813.08946  23319725.0464   23319727.4014
     -5569.2194      -4339.6514
   1010247.18247    789604.37746  22590922.9214   22590924.8314
     -1023.5164       -797.5454
   -558826.46145   -395742.27344  24506131.5224   24506135.7064
        30.2974         23.6084
  -1506409.15945  -1113656.93644  24666816.3514   24666820.8394
       828.9384        645.9254
 98  6 29 19 32  0.0030000  0  7G 5G 6G10G30G17G26G23
  13627891.03444  10569925.95742  25495018.2884   25495027.5854
     -6117.0624      -4766.5424
   2514549.02847   1959390.82747  21451105.2414   21451105.8974
     -1775.6724      -1383.6404
  10659024.35446   8305731.64045  23609088.9054   23609091.6124
     -5301.0164      -4130.6624
  11385610.62646   8760939.37446  23335629.9994   23335632.1204
     -5574.7034      -4343.9254
   1025637.09747    801596.54346  22593851.3514   22593853.3544
     -1028.5164       -801.4414
   -559246.77345   -396069.75244  24506051.8194   24506057.0584
        25.6884         20.0164
  -1518810.26945  -1123320.05744  24664456.3904   24664461.4174
       824.5164        642.4804
 98  6 29 19 32 15.0030000  0  7G 5G 6G10G30G17G26G23
  13719654.01744  10641429.38242  25512480.4054   25512489.2334
     -6117.7504      -4767.0784
   2541237.39047   1980186.95846  21456183.9134   21456184.7334
     -1782.5314      -1388.9854
  10738586.41246   8367728.02845  23624229.3824   23624231.8434
     -5306.9694      -4135.3004
  11469273.36946   8826131.07746  23351550.4134   23351552.5224
     -5580.0624      -4348.1014
   1041103.02247    813647.92846  22596794.6554   22596796.6594
     -1033.3754       -805.2274
   -559598.14745   -396343.44544  24505984.8124   24505989.8624
        21.4694         16.7294
  -1531145.91345  -1132932.16044  24662108.8974   24662113.4094
       820.5164        639.3634
 98  6 29 19 32 30.0030000  0  7G 5G 6G10G30G17G26G23
  13811425.54143  10712939.44142  25529943.4524   25529952.5154
     -6118.4534      -4767.6264
   2568026.36747   2001061.48746  21461281.4914   21461282.1364
     -1789.3124      -1394.2694
  10818234.22946   8429791.24546  23639385.7184   23639387.9214
     -5312.7504      -4139.8054
  11553015.80946   8891384.88246  23367486.0624   23367488.0774
     -5585.6564      -4352.4594
   1056641.27647    825755.68046  22599751.2334   22599753.1444
     -1038.4224       -809.1604
   -559890.11245   -396570.90344  24505929.0624   24505932.5894
        17.4384         13.5884
  -1543423.09445  -1142498.67745  24659772.9914   24659778.3704
       816.4534        636.1974
 98  6 29 19 32 45.0030000  0  7G 5G 6G10G30G17G26G23
  13903211.97043  10784461.15142  25547410.6474   25547418.0224
     -6120.1094      -4768.9164
   2594921.61447   2022018.83046  21466399.6944   21466400.5504
     -1797.2034      -1400.4184
  10897972.44446   8491924.90845  23654559.2184   23654561.8314
     -5319.3284      -4144.9314
  11636847.71346   8956708.40146  23383438.6164   23383440.7144
     -5592.3124      -4357.6464
   1072259.63547    837925.84846  22602723.5544   22602725.3354
     -1044.4064       -813.8234
   -560115.81345   -396746.66844  24505885.8974   24505890.8434
        12.2814          9.5704
  -1555636.53445  -1152015.55145  24657448.3744   24657453.6594
       811.6254        632.4354
 98  6 29 19 33  0.0030000  0  7G 5G 6G10G30G17G26G23
  13995022.49543  10856001.64142  25564881.9524   25564889.8904
     -6121.1564      -4769.7324
   2621935.38847   2043068.52946  21471540.2334   21471540.8084
     -1804.4224      -1406.0434
  10977807.62246   8554134.11645  23669751.8194   23669754.6674
     -5325.2974      -4149.5824
  11720778.41946   9022108.90346  23399410.2264   23399412.3474
     -5598.3444      -4362.3464
   1087966.15347    850164.72146  22605712.3744   22605714.4724
     -1049.6254       -817.8904
   -560266.00145   -396863.60844  24505857.3354   24505864.3584
         7.8284          6.1004
  -1567779.61745  -1161477.60244  24655137.4914   24655142.6944
       807.6414        629.3304
 98  6 29 19 33 15.0030000  0  7G 5G 6G10G30G17G26G23
  14086850.50844  10927555.76342  25582354.9054   25582363.4524
     -6122.2194      -4770.5604
   2649058.36747   2064203.31946  21476701.6474   21476702.1984
     -1811.6414      -1411.6684
  11057735.30146   8616415.40845  23684961.7964   23684964.7614
     -5331.2974      -4154.2574
  11804804.00446   9087583.33646  23415399.6874   23415402.0774
     -5604.6874      -4367.2894
   1103749.84947    862463.72246  22608715.9604   22608718.0694
     -1054.4534       -821.6524
   -560345.13145   -396925.19644  24505842.1474   24505848.0774
         3.0474          2.3744
  -1579862.49145  -1170892.75245  24652838.7184   24652843.8624
       803.8444        626.3724
 98  6 29 19 33 30.0030000  0  7G 5G 6G10G30G17G26G23
  14178691.35744  10999119.88842  25599832.1714   25599839.7224
     -6123.2664      -4771.3764
   2676288.61547   2085421.70046  21481883.3434   21481884.0694
     -1819.0784      -1417.4634
  11137749.29046   8678763.95945  23700187.9604   23700190.2104
     -5337.2194      -4158.8724
  11888921.91246   9153129.71446  23431407.0074   23431409.4334
     -5611.0784      -4372.2694
   1119601.80647    874815.91146  22611732.5154   22611734.6714
     -1059.1724       -825.3294
   -560353.51745   -396931.67444  24505840.8904   24505846.7614
        -1.9694         -1.5344
  -1591893.15945  -1180267.18645  24650548.7414   24650554.6014
       800.2034        623.5354
 98  6 29 19 33 45.0030000  0  7G 5G 6G10G30G17G26G23
  14270544.71444  11070693.74343  25617312.5694   25617321.0114
     -6124.1564      -4772.0704
   2703626.18947   2106723.71547  21487085.6474   21487086.4914
     -1826.2344      -1423.0404
  11217849.66646   8741179.81745  23715430.3744   23715432.6594
     -5343.0784      -4163.4374
  11973133.73446   9218749.27346  23447431.9834   23447434.2924
     -5617.5004      -4377.2734
   1135521.39047    887220.80546  22614761.7654   22614763.9334
     -1063.6724       -828.8354
   -560287.60545   -396880.25744  24505853.3354   24505857.9764
        -7.1874         -5.6014
  -1603870.19045  -1189599.86645  24648270.0544   24648274.5424
       796.4064        620.5764
 98  6 29 19 34  0.0030000  0  7G 5G 6G10G30G17G26G23
  14362410.96044  11142277.63742  25634794.2184   25634798.9294
     -6124.7504      -4772.5324
   2731071.76547   2128109.87946  21492308.1244   21492308.6754
     -1833.2504      -1428.5064
  11298036.26046   8803662.86345  23730689.0304   23730691.7374
     -5348.5474      -4167.6994
  12057441.33246   9284443.45346  23463475.2264   23463477.9564
     -5623.5314      -4381.9724
   1151507.13747    899677.24746  22617803.6084   22617805.7884
     -1067.8594       -832.0984
   -560142.37745   -396766.98544  24505880.7024   24505885.4954
       -12.2034         -9.5094
  -1615789.73645  -1198887.72645  24646001.0854   24646006.2064
       792.7664        617.7394
 98  6 29 19 34 15.0030000  0  7G 5G 6G10G30G17G26G23
  14454285.93143  11213868.34042  25652277.0304   25652284.3824
     -6125.2814      -4772.9464
   2758622.02947   2149577.62546  21497550.9914   21497551.6834
     -1840.0944      -1433.8394
  11378305.81546   8866210.54145  23745963.9294   23745967.1284
     -5354.1564      -4172.0704
  12141836.78246   9350206.09546  23479535.2574   23479537.5894
     -5629.2194      -4386.4044
   1167555.28847    912182.32146  22620857.5074   22620859.5814
     -1071.9694       -835.3004
   -559924.26245   -396596.94944  24505922.2964   24505926.7614
       -16.9064        -13.1744
  -1627653.87745  -1208132.41845  24643743.5934   24643748.6444
       789.0634        614.8544
 98  6 29 19 34 30.0030000  0  7G 5G 6G10G30G17G26G23
  14546166.45843  11285463.36142  25669761.0224   25669768.5034
     -6125.5784      -4773.1784
   2786271.04847   2171122.32346  21502812.3274   21502812.8664
     -1846.5474      -1438.8684
  11458659.08946   8928823.46445  23761254.8044   23761257.7924
     -5359.7504      -4176.4294
  12226314.60546   9416032.93146  23495610.9444   23495613.0304
     -5634.5784      -4390.5804
   1183663.31047    924734.04546  22623923.1244   22623925.1874
     -1075.9224       -838.3814
   -559637.85945   -396373.71144  24505976.5774   24505979.7764
       -21.5004        -16.7534
  -1639463.21345  -1217334.42945  24641496.5774   24641500.8784
       785.3444        611.9564
 98  6 29 19 34 45.0030000  0  7G 5G 6G10G30G17G26G23
  14638056.89443  11357066.06942  25687247.5384   25687257.8664
     -6126.2664      -4773.7134
   2814024.44247   2192748.35346  21508093.6874   21508094.3194
     -1853.7194      -1444.4564
  11539104.86946   8991508.46545  23776563.3584   23776565.8664
     -5366.1874      -4181.4454
  12310880.42246   9481928.32546  23511703.4374   23511705.4874
     -5640.6254      -4395.2924
   1199838.15647    937337.84246  22627000.8044   22627002.6904
     -1080.5314       -841.9724
   -559271.98745   -396088.49544  24506046.5154   24506050.2654
       -27.1874        -21.1854
  -1651207.87145  -1226486.00145  24639261.1164   24639265.5114
       780.7814        608.4014
 98  6 29 19 35  0.0040000  0  7G 5G 6G10G30G17G26G23
  14729959.73243  11428678.48842  25704736.4264   25704744.7854
     -6126.6724      -4774.0304
   2841884.18347   2214457.24846  21513395.3634   21513395.8914
     -1860.8284      -1449.9964
  11619649.53346   9054270.52745  23791890.0514   23791892.9454
     -5372.5314      -4186.3884
  12395536.92946   9547894.38046  23527812.8874   23527815.1954
     -5646.2504      -4399.6754
   1216078.94647    949993.02046  22630091.5354   22630093.3634
     -1084.8594       -845.3454
   -558823.11845   -395738.67044  24506131.9494   24506135.2074
       -32.7814        -25.5444
  -1662887.52245  -1235586.93745  24637038.9414   24637044.8714
       776.2504        604.8704
 98  6 29 19 35 15.0040000  0  7G 5G 6G10G30G17G26G23
  14821859.99943  11500288.91242  25722224.4654   25722234.4064
     -6126.5474      -4773.9334
   2869848.03147   2236247.26646  21518716.4804   21518716.9614
     -1867.5474      -1455.2314
  11700285.54246   9117103.76145  23807234.7704   23807237.6994
     -5378.8444      -4191.3074
  12480270.54846   9613920.53246  23543937.4734   23543939.7234
     -5651.4374      -4403.7184
   1232382.86247    962697.38846  22633193.9344   22633195.7734
     -1088.9224       -848.5114
   -558291.36245   -395324.23844  24506232.6684   24506236.4304
       -38.0314        -29.6354
  -1674499.53345  -1244635.16945  24634829.0594   24634833.9344
       772.0784        601.6194
 98  6 29 19 35 30.0040000  0  7G 5G 6G10G30G17G26G23
  14913758.92743  11571898.29242  25739713.0904   25739720.7814
     -6126.2814      -4773.7264
   2897914.95347   2258117.59546  21524057.3954   21524058.0274
     -1874.4694      -1460.6254
  11781017.04446   9180011.40845  23822597.8554   23822600.3284
     -5385.0944      -4196.1774
  12565081.78446   9680007.16746  23560076.6294   23560079.3244
     -5656.3594      -4407.5534
   1248750.89047    975451.71546  22636308.3874   22636310.5204
     -1093.2974       -851.9204
   -557679.98945   -394847.74744  24506348.6914   24506352.6764
       -43.2034        -33.6654
  -1686045.68345  -1253632.07945  24632631.5514   24632636.7544
       767.6564        598.1744
 98  6 29 19 35 45.0040000  0  7G 5G 6G10G30G17G26G23
  15005652.82443  11643503.70642  25757199.7624   25757208.8954
     -6126.0944      -4773.5804
   2926085.05447   2280068.33046  21529417.9884   21529418.6564
     -1881.3754      -1466.0064
  11861843.33346   9242992.91645  23837978.4734   23837980.8054
     -5391.5314      -4201.1934
  12649964.28446   9746149.32746  23576228.8014   23576231.4614
     -5661.1254      -4411.2664
   1265187.27147    988259.29846  22639436.4264   22639438.6054
     -1098.0784       -855.6454
   -556992.56045   -394312.00744  24506479.9734   24506483.7934
       -48.2664        -37.6104
  -1697524.34245  -1262576.37745  24630447.2154   24630452.4414
       762.9844        594.5334
 98  6 29 19 36  0.0040000  0  7G 5G 6G10G30G17G26G23
  15097539.24344  11715103.30642  25774685.0824   25774692.6334
     -6125.7034      -4773.2754
   2954354.00547   2302096.09046  21534797.3324   21534798.0594
     -1888.0944      -1471.2424
  11942760.53146   9306045.25645  23853376.3324   23853378.9104
     -5397.7034      -4206.0024
  12734912.70646   9812342.85546  23592393.8874   23592396.3594
     -5665.5624      -4414.7244
   1281690.27747   1001118.79846  22642576.7934   22642578.9844
     -1102.6094       -859.1764
   -556234.35945   -393721.13744  24506624.0664   24506627.9454
       -53.0314        -41.3234
  -1708938.11345  -1271470.13245  24628275.0904   24628279.3794
       758.6724        591.1734
 98  6 29 19 36 15.0040000  0  7G 5G 6G10G30G17G26G23
  15189424.62243  11786702.21342  25792170.9344   25792179.8324
     -6125.6254      -4773.2144
   2982729.50747   2324206.87846  21540196.9654   21540197.9264
     -1895.1874      -1476.7694
  12023776.47046   9369174.53045  23868793.0274   23868795.3834
     -5404.3754      -4211.2014
  12819930.71946   9878590.60546  23608572.4104   23608574.8364
     -5670.1254      -4418.2794
   1298267.75947   1014036.33546  22645731.1374   22645733.1054
     -1107.6564       -863.1094
   -555402.05845   -393072.50244  24506781.8714   24506785.8554
       -57.7974        -45.0374
  -1720283.72245  -1280310.78045  24626116.6454   24626121.7664
       754.1564        587.6544
 98  6 29 19 36 30.0040000  0  7G 5G 6G10G30G17G26G23
  15281308.40943  11858299.73042  25809655.3484   25809664.5744
     -6125.5624      -4773.1664
   3011209.60747   2346399.16646  21545616.4574   21545617.1844
     -1902.1724      -1482.2124
  12104891.17646   9432380.78145  23884229.3874   23884231.6844
     -5410.8754      -4216.2664
  12905017.50946   9944891.95446  23624764.1524   23624766.4964
     -5674.8124      -4421.9324
   1314920.11947   1027012.21546  22648900.0594   22648902.0624
     -1112.6414       -866.9934
   -554498.65245   -392368.45744  24506953.7624   24506958.3674
       -62.6724        -48.8354
  -1731562.93345  -1289099.68845  24623969.6524   24623974.9494
       749.7194        584.1964
 98  6 29 19 36 45.0040000  0  7G 5G 6G10G30G17G26G23
  15373190.99243  11929896.35542  25827139.6914   25827148.8124
     -6125.0474      -4772.7644
   3039796.31847   2368674.53246  21551056.5434   21551057.1414
     -1909.0474      -1487.5694
  12186102.59646   9495662.39245  23899682.5984   23899684.5314
     -5416.9374      -4220.9904
  12990176.71946  10011249.72646  23640969.1524   23640971.5904
     -5679.3914      -4425.4994
   1331647.23247   1040046.34846  22652083.2854   22652085.2774
     -1117.2814       -870.6094
   -553520.67445   -391606.32844  24507139.6914   24507144.7074
       -67.3914        -52.5124
  -1742774.75545  -1297836.07745  24621836.3404   24621840.8284
       745.5944        580.9824
 98  6 29 19 37  0.0040000  0  7G 5G 6G10G30G17G26G23
  15465068.40943  12001488.94642  25844623.4104   25844629.8324
     -6125.1874      -4772.8734
   3068488.75847   2391032.28246  21556516.6214   21556517.1134
     -1916.4844      -1493.3644
  12267406.44446   9559016.01445  23915154.4104   23915156.7424
     -5423.4224      -4226.0434
  13075406.62046  10077662.58246  23657188.1294   23657190.8484
     -5684.4374      -4429.4324
   1348446.20847   1053136.47646  22655279.8094   22655281.7304
     -1122.4534       -874.6394
   -552470.18645   -390787.67444  24507339.6454   24507344.2624
       -72.5624        -56.5424
  -1753922.98445  -1306522.89745  24619714.5204   24619718.6454
       740.9694        577.3784
 98  6 29 19 37 15.0040000  0  7G 5G 6G10G30G17G26G23
  15556943.27543  12073079.63042  25862107.2704   25862112.4024
     -6124.9694      -4772.7034
   3097288.21147   2413473.41646  21561996.8954   21561997.5044
     -1923.6414      -1498.9414
  12348801.42446   9622440.64545  23930643.4494   23930645.8874
     -5429.3444      -4230.6574
  13160706.31046  10144129.82046  23673420.1684   23673422.8054
     -5689.0314      -4433.0114
   1365317.84147   1066283.21746  22658490.8714   22658492.7814
     -1127.2504       -878.3774
   -551347.69845   -389912.95244  24507553.7774   24507557.5864
       -77.2504        -60.1954
  -1765006.97345  -1315159.68245  24617605.3714   24617609.5314
       736.7344        574.0794
 98  6 29 19 37 30.0040000  0  7G 5G 6G10G30G17G26G23
  15648816.15743  12144668.66042  25879590.3164   25879600.1644
     -6124.9224      -4772.6664
   3126194.24847   2435997.60146  21567497.7234   21567498.0864
     -1930.6254      -1504.3834
  12430282.77146   9685932.58445  23946148.5434   23946151.0984
     -5434.8754      -4234.9684
  13246074.29746  10210650.28646  23689665.1134   23689667.6804
     -5693.5004      -4436.4944
   1382261.85247   1079486.35946  22661714.9344   22661716.8204
     -1132.0944       -882.1514
   -550154.90045   -388983.40544  24507780.5744   24507784.7464
       -81.9374        -63.8474
  -1776027.66745  -1323747.14845  24615508.2774   24615512.9064
       732.5004        570.7794
 98  6 29 19 37 45.0040000  0  7G 5G 6G10G30G17G26G23
  15740685.55043  12216254.97842  25897073.0434   25897081.9184
     -6124.6094      -4772.4234
   3155202.13347   2458601.15546  21573017.5044   21573017.8444
     -1937.4224      -1509.6794
  12511839.82446   9749483.51745  23961668.6914   23961672.0434
     -5439.6874      -4238.7184
  13331505.95746  10277220.35046  23705922.2154   23705924.8874
     -5697.7034      -4439.7694
   1399274.24747   1092742.78846  22664951.9804   22664953.8794
     -1136.5004       -885.5844
   -548895.04645   -388001.59545  24508020.6454   24508024.3124
       -86.3444        -67.2814
  -1786987.55845  -1332287.23445  24613422.6994   24613427.7504
       728.5474        567.6994
 98  6 29 19 38  0.0040000  0  7G 5G 6G10G30G17G26G23
  15832559.76143  12287845.15842  25914556.4734   25914566.6134
     -6125.0474      -4772.7644
   3184321.17847   2481291.32546  21578558.8094   21578559.1954
     -1944.9534      -1515.5484
  12593476.64346   9813096.60145  23977203.9104   23977207.2734
     -5445.0004      -4242.8574
  13417010.36946  10343847.11046  23722193.0904   23722195.8204
     -5702.7504      -4443.7014
   1416359.79447   1106056.22046  22668203.2704   22668205.0164
     -1141.3594       -889.3714
   -547561.13745   -386962.12345  24508274.2304   24508278.8364
       -91.3124        -71.1534
  -1797880.49045  -1340775.12645  24611349.7854   24611353.9574
       724.0314        564.1804
 98  6 29 19 38 15.0040000  0  7G 5G 6G10G30G17G26G23
  15924434.82943  12359435.84641  25932038.5744   25932048.1414
     -6124.9694      -4772.7034
   3213550.00347   2504067.03346  21584120.7154   21584121.3594
     -1952.2504      -1521.2344
  12675188.88046   9876768.44845  23992752.7774   23992755.9534
     -5450.0624      -4246.8024
  13502586.90846  10410530.06946  23738477.8484   23738480.4844
     -5707.5004      -4447.4034
   1433513.25547   1119422.56746  22671467.6604   22671469.4534
     -1145.7974       -892.8294
   -546156.04745   -385867.15545  24508541.6134   24508545.5624
       -96.0624        -74.8544
  -1808709.74145  -1349213.41945  24609289.0354   24609293.5824
       719.7664        560.8564
 98  6 29 19 38 30.0040000  0  7G 5G 6G10G30G17G26G23
  16016306.21743  12431023.77641  25949521.9804   25949528.9344
     -6124.5624      -4772.3864
   3242887.15547   2526927.15446  21589703.4344   21589703.8914
     -1959.4064      -1526.8104
  12756975.42246   9940498.19845  24008316.7934   24008319.2544
     -5454.7974      -4250.4914
  13588233.73146  10477267.80346  23754775.9344   23754778.7234
     -5712.1724      -4451.0434
   1450731.47347   1132839.37846  22674744.0204   22674745.9884
     -1149.9694       -896.0804
   -544680.99645   -384717.67645  24508822.3484   24508826.0744
      -100.6874        -78.4584
  -1819475.06545  -1357601.89145  24607239.8484   24607245.1454
       715.5784        557.5934
 98  6 29 19 38 45.0040000  0  8G 5G 6G10G30G17G22G26G23
  16108175.99243  12502610.44641  25967003.4414   25967007.4024
     -6124.6094      -4772.4234
   3272336.84847   2549874.97646  21595307.6524   21595308.2154
     -1967.1414      -1532.8374
  12838835.76846  10004285.47045  24023893.7384   24023896.3054
     -5459.8284      -4254.4124
  13673955.47146  10544063.90546  23771088.2544   23771091.3484
     -5717.2814      -4455.0244
   1468015.39247   1146307.39146  22678032.9884   22678034.8754
     -1154.4534       -899.5744
      1075.50453                  25545429.4654
      -270.2194
   -543130.38045   -383509.34645  24509117.2774   24509121.3794
      -105.9064        -82.5244
  -1830174.38145  -1365938.92645  24605204.0664   24605209.4104
       711.1094        554.1114
 98  6 29 19 39  0.0040000  0  8G 5G 6G10G30G17G22G26G23
  16200044.22543  12574195.91141  25984486.5904   25984495.5474
     -6124.3124      -4772.1924
   3301901.08547   2572912.04746  21600933.5044   21600934.0084
     -1974.5164      -1538.5844
  12920770.11746  10068130.39545  24039486.0594   24039488.8594
     -5464.4694      -4258.0284
  13759750.90446  10610917.43246  23787414.7624   23787417.1764
     -5721.7974      -4458.5434
   1485366.38047   1159827.65646  22681334.7304   22681336.4654
     -1158.7814       -902.9464
      5185.23641                  25546210.8484
      -277.5474
   -541502.85945   -382241.05445  24509426.7544   24509430.4224
      -110.7814        -86.3234
  -1840809.36545  -1374225.84645  24603180.2074   24603185.7034
       707.1724        551.0434
 98  6 29 19 39 15.0040000  0  8G 5G 6G10G30G17G22G26G23
  16291905.62543  12645775.97741  26001967.3794   26001979.0434
     -6124.0624      -4771.9974
   3331571.27347   2596031.67547  21606579.7304   21606580.3874
     -1981.7034      -1544.1844
  13002767.57246  10132024.48945  24055089.2384   24055092.0044
     -5468.6564      -4261.2914
  13845608.59346  10677819.47046  23803753.0594   23803755.8124
     -5726.0474      -4461.8554
   1502777.51647   1173394.79546  22684648.1054   22684649.9454
     -1162.8444       -906.1124
      9399.57941                  25547014.0124
      -284.5314
   -539806.63345   -380919.27045  24509749.9184   24509752.9654
      -115.5314        -90.0244
  -1851390.51145  -1382470.80045  24601166.2154   24601171.7234
       703.4844        548.1704
 98  6 29 19 39 30.0040000  0  7G 6G10G30G17G22G26G23
   3361352.03747   2619237.47547  21612246.5594   21612247.0624
     -1989.2664      -1550.0774
  13084828.27646  10195967.88645  24070704.7854   24070707.6804
     -5472.9844      -4264.6634
  13931530.39246  10744771.46846  23820103.6294   23820106.1954
     -5730.4064      -4465.2524
   1520250.85247   1187010.40146  22687973.2304   22687974.9184
     -1167.1254       -909.4484
     13721.69942                  25547835.9804
      -291.9064
   -538038.74245   -379541.62645  24510086.0434   24510089.5234
      -120.3594        -93.7874
  -1861916.01345  -1390672.39445  24599163.4104   24599168.5204
       699.7194        545.2354
 98  6 29 19 39 45.0040000  0  7G 6G10G30G17G22G26G23
   3391248.04547   2642533.07147  21617935.7544   21617936.4344
     -1996.7814      -1555.9334
  13166958.24146  10259965.23645  24086333.7304   24086336.5784
     -5477.5784      -4268.2434
  14017520.90846  10811777.00446  23836467.0984   23836469.5594
     -5734.9064      -4468.7584
   1537790.47347   1200677.65346  22691310.9804   22691312.6094
     -1171.3444       -912.7354
     18155.28443                  25548679.3014
      -299.0784
   -536195.23645   -378105.03645  24510437.1214   24510441.3634
      -125.3754        -97.6954
  -1872382.92845  -1398828.32945  24597171.7384   24597176.9184
       695.9694        542.3134
 98  6 29 19 40  0.0040000  0  7G 6G10G30G17G22G26G23
   3421259.69147   2665918.76946  21623646.8244   21623647.3404
     -2004.7504      -1562.1434
  13249162.17446  10324020.23745  24101976.6994   24101979.4534
     -5483.0474      -4272.5044
  14103582.35546  10878837.81346  23852844.2074   23852846.6094
     -5739.9374      -4472.6794
   1555394.65847   1214395.21646  22694660.8404   22694662.3984
     -1175.8914       -916.2784
     22697.63043       714.46651  25549543.8714   25549550.6564
      -306.6254       -238.9294
   -534274.74645   -376608.48645  24510801.6374   24510804.1454
      -130.7344       -101.8714
  -1882791.77745  -1406939.02745  24595190.5594   24595195.9614
       691.8444        539.0994
 98  6 29 19 40 15.0040000  0  7G 6G10G30G17G22G26G23
   3451391.78647   2689398.32747  21629380.6914   21629381.2194
     -2012.3594      -1568.0724
  13331453.62446  10388143.42745  24117635.8164   24117638.9454
     -5488.7034      -4276.9124
  14189720.72546  10945958.57246  23869235.4654   23869238.1604
     -5744.6874      -4476.3804
   1573069.94847   1228168.18946  22698024.3094   22698026.0664
     -1180.3594       -919.7614
     27357.61144      4345.63242  25550430.1214   25550436.1214
      -314.2034       -244.8344
   -532268.27545   -375044.92845  24511184.1134   24511187.1254
      -136.3444       -106.2424
  -1893135.60745  -1414999.08945  24593222.4964   24593226.9144
       687.8444        535.9824
 98  6 29 19 40 30.0040000  0  7G 6G10G30G17G22G26G23
   3481634.43247   2712964.02646  21635135.7234   21635136.1804
     -2019.8594      -1573.9164
  13413828.07346  10452331.28145  24133311.9654   24133315.0824
     -5494.4534      -4281.3924
  14275926.86446  11013132.12446  23885640.0594   23885642.7304
     -5749.3754      -4480.0324
   1590809.68447   1241991.37646  22701400.1294   22701402.0044
     -1184.8594       -923.2674
     32128.91244      8063.56043  25551338.6764   25551342.0394
      -321.8754       -250.8124
   -530178.61645   -373416.56945  24511581.3404   24511584.4574
      -142.2344       -110.8324
  -1903421.90545  -1423014.29045  24591264.9964   24591269.3204
       683.7664        532.8044
 98  6 29 19 40 45.0040000  0  7G 6G10G30G17G22G26G23
   3511983.10047   2736612.34646  21640910.9804   21640911.6024
     -2026.5784      -1579.1524
  13496280.22746  10516579.69545  24149001.7624   24149005.0554
     -5499.1724      -4285.0694
  14362197.79346  11080356.17046  23902056.9654   23902059.3204
     -5753.3914      -4483.1624
   1608610.17047   1255861.90046  22704787.2234   22704789.0394
     -1188.4844       -926.0924
     37008.32344     11865.70842  25552267.2464   25552270.2344
      -328.7034       -256.1324
   -528006.77145   -371724.15245  24511994.9184   24511998.5624
      -147.3594       -114.8254
  -1913654.44945  -1430987.61645  24589318.0514   24589322.8674
       680.5784        530.3214
 98  6 29 19 41  0.0040000  0  7G 6G10G30G17G22G26G23
   3542432.09747   2760338.84046  21646705.0984   21646705.5314
     -2033.3444      -1584.4244
  13578804.66446  10580884.41645  24164705.4184   24164708.8054
     -5504.1564      -4288.9534
  14448529.29046  11147627.40346  23918485.4804   23918488.1994
     -5757.5164      -4486.3764
   1626465.68847   1269775.30846  22708185.0984   22708186.8674
     -1192.3444       -929.0994
     41990.71343     15748.11743  25553214.7154   25553217.7854
      -335.6874       -261.5754
   -525756.32645   -369970.50345  24512422.9964   24512427.3324
      -152.7664       -119.0384
  -1923837.72445  -1438922.53145  24587379.9804   24587384.9734
       677.0634        527.5814
 98  6 29 19 41 15.0040000  0  7G 6G10G30G17G22G26G23
   3572984.61847   2784146.00746  21652519.0204   21652519.5944
     -2040.3124      -1589.8544
  13661406.97746  10645249.83845  24180424.5824   24180428.0394
     -5509.4844      -4293.1054
  14534925.62946  11214949.16746  23934926.0904   23934928.8094
     -5762.0004      -4489.8704
   1644383.07547   1283736.92446  22711594.4884   22711596.4224
     -1196.5624       -932.3864
     47080.74643     19714.50842  25554183.4734   25554189.1454
      -343.0004       -267.2734
   -523420.73845   -368150.50245  24512867.3554   24512871.4574
      -158.6564       -123.6284
  -1933962.81845  -1446812.12745  24585453.1994   24585458.1914
       672.9224        524.3554
 98  6 29 19 41 30.0040000  0  7G 6G10G30G17G22G26G23
   3603637.21047   2808031.14846  21658351.9264   21658352.6994
     -2046.7034      -1594.8344
  13744086.32446  10709675.28745  24196157.7774   24196161.0824
     -5514.4694      -4296.9894
  14621386.68346  11282321.35746  23951379.2854   23951381.7704
     -5766.0784      -4493.0484
   1662358.33347   1297743.62846  22715015.2704   22715017.1094
     -1200.1254       -935.1624
     52276.42844     23763.09942  25555172.1684   25555177.9454
      -349.7344       -272.5204
   -521000.51945   -366264.56345  24513327.9104   24513331.3444
      -164.0004       -127.7924
  -1944027.64045  -1454654.76545  24583537.6054   24583542.3404
       669.0784        521.3604
 98  6 29 19 41 45.0040000  0  7G 6G10G30G17G22G26G23
   3634386.26947   2831991.45846  21664203.4104   21664204.2074
     -2053.2974      -1599.9724
  13826843.63446  10774161.48445  24211906.0124   24211909.3054
     -5519.9844      -4301.2874
  14707909.93146  11349742.01345  23967844.3244   23967847.1844
     -5770.5624      -4496.5424
   1680389.13247   1311793.62146  22718446.2544   22718448.2704
     -1204.0944       -938.2554
     57575.88045     27892.52442  25556180.8714   25556185.1604
      -356.9694       -278.1574
   -518498.56345   -364314.92345  24513803.8404   24513807.1914
      -169.7664       -132.2854
  -1954031.80045  -1462450.11545  24581633.8014   24581638.0904
       664.6414        517.9024
 98  6 29 19 42  0.0040000  0  7G 6G10G30G17G22G26G23
   3665229.84947   2856025.42046  21670072.5124   21670073.2384
     -2059.4534      -1604.7694
  13909680.34046  10838709.55145  24227669.2934   24227672.3284
     -5525.0944      -4305.2684
  14794499.45746  11417214.30945  23984321.5434   23984324.3444
     -5774.9064      -4499.9274
   1698476.41647   1325887.62346  22721888.2774   22721890.1644
     -1207.7664       -941.1164
     62980.34245     32103.80543  25557208.8874   25557211.4414
      -363.9224       -283.5754
   -515911.43045   -362298.90545  24514296.2854   24514299.6374
      -175.3914       -136.6684
  -1963971.28645  -1470195.09345  24579743.0434   24579747.3554
       660.3914        514.5904
 98  6 29 19 42 15.0040000  0  7G 6G10G30G17G22G26G23
   3696169.77247   2880134.45146  21675960.2464   21675960.9734
     -2065.6414      -1609.5904
  13992595.93746  10903319.08545  24243447.5904   24243450.4374
     -5530.0314      -4309.1154
  14881155.53846  11484738.47545  24000811.6684   24000814.3754
     -5778.8754      -4503.0194
   1716622.30947   1340027.29946  22725341.1764   22725343.0514
     -1211.4534       -943.9894
     68494.81545     36400.83643  25558258.1994   25558262.6174
      -371.0474       -289.1274
   -513236.80745   -360214.71145  24514804.9264   24514807.6914
      -180.9374       -140.9904
  -1973843.27845  -1477887.46345  24577863.8324   24577868.5084
       656.1254        511.2664
 98  6 29 19 42 30.0040000  0  7G 6G10G30G17G22G26G23
   3727211.73847   2904323.00146  21681867.3554   21681867.8594
     -2073.3444      -1615.5934
  14075589.64646  10967989.47545  24259240.8794   24259243.7624
     -5535.7664      -4313.5844
  14967877.50646  11552313.96645  24017314.2544   24017317.0084
     -5784.1254      -4507.1104
   1734830.89847   1354215.82046  22728806.2304   22728808.0004
     -1216.3754       -947.8254
     74123.11444     40786.56143  25559329.1684   25559332.6254
      -379.3914       -295.6294
   -510472.73645   -358060.82645  24515330.9574   24515333.9574
      -187.5624       -146.1534
  -1983644.53245  -1485524.70345  24575998.6764   24576003.0124
       650.6884        507.0294
 98  6 29 19 42 45.0040000  0  7G 6G10G30G17G22G26G23
   3758361.95147   2928595.89946  21687795.2464   21687795.8444
     -2079.8124      -1620.6334
  14158659.46646  11032719.19645  24275048.2074   24275051.2544
     -5539.9534      -4316.8474
  15054671.22446  11619945.37745  24033830.7154   24033833.5274
     -5788.1414      -4510.2394
   1753103.75147   1368454.42447  22732283.5984   22732285.4494
     -1219.7814       -950.4794
     79867.63045     45262.75943  25560422.6684   25560427.0044
      -386.3124       -301.0234
   -507620.02845   -355837.87945  24515873.4884   24515876.4414
      -192.5784       -150.0614
  -1993370.70545  -1493103.46145  24574147.7934   24574151.5784
       646.3594        503.6574
 98  6 29 19 43  0.0040000  0  7G 6G10G30G17G22G26G23
   3789610.23447   2952945.21346  21693741.5044   21693742.0314
     -2086.5164      -1625.8564
  14241792.12246  11097497.86845  24290868.2154   24290870.9344
     -5544.3124      -4320.2444
  15141525.69546  11687624.11945  24050358.6604   24050361.3444
     -5792.3124      -4513.4904
   1771428.70347   1382733.61847  22735770.7854   22735772.4144
     -1223.4534       -953.3404
     85716.37345     49820.20943  25561535.3404   25561538.3404
      -393.4224       -306.5624
   -504692.51045   -353556.63745  24516430.4804   24516433.6454
      -197.6254       -153.9944
  -2003031.45945  -1500631.23545  24572309.3014   24572313.4144
       641.8444        500.1384
 98  6 29 19 43 15.0040000  0  7G 6G10G30G17G22G26G23
   3820962.06147   2977375.21146  21699707.6994   21699708.1214
     -2093.6874      -1631.4454
  14324994.41746  11162330.79345  24306701.1914   24306704.0864
     -5549.2344      -4324.0794
  15228444.19546  11755352.76245  24066899.0274   24066901.4304
     -5796.7194      -4516.9244
   1789814.71647   1397060.39347  22739269.5044   22739271.0864
     -1227.9844       -956.8714
     91675.43444     54463.65143  25562669.4344   25562674.0044
      -401.1094       -312.5534
   -501686.40145   -351214.14745  24517002.6994   24517006.8594
      -203.1254       -158.2794
  -2012621.23045  -1508103.69645  24570484.5204   24570488.8554
       636.8914        496.2784
 98  6 29 19 43 30.0040000  0  7G 6G10G30G17G22G26G23
   3852420.40947   3001888.21046  21705693.8794   21705694.3124
     -2100.7344      -1636.9364
  14408268.70246  11227219.82045  24322547.8094   24322550.9614
     -5553.9224      -4327.7314
  15315425.82946  11823130.60245  24083451.0824   24083453.0864
     -5800.8124      -4520.1144
   1808266.14447   1411438.14447  22742780.5204   22742782.3124
     -1232.1094       -960.0854
     97748.12744     59195.72343  25563824.5984   25563828.4884
      -408.5164       -318.3244
   -498600.54045   -348809.51245  24517590.1524   24517594.0784
      -208.2194       -162.2484
  -2022139.81245  -1515520.69245  24568673.0434   24568677.5084
       632.3444        492.7354
 98  6 29 19 43 45.0040000  0  7G 6G10G30G17G22G26G23
   3883989.23147   3026487.29746  21711701.3404   21711701.7974
     -2108.2974      -1642.8294
  14491616.85746  11292166.42845  24338408.2624   24338410.8054
     -5558.9534      -4331.6524
  15402472.72646  11890959.28845  24100015.5824   24100017.8674
     -5805.2344      -4523.5594
   1826782.40247   1425866.40447  22746304.0204   22746306.0004
     -1236.5624       -963.5554
    103934.52145     64016.32043  25565001.6914   25565006.1094
      -416.1724       -324.2904
   -495436.93245   -346344.30545  24518191.6454   24518194.9734
      -213.4374       -166.3154
  -2031587.55245  -1522882.48345  24566875.3794   24566879.6214
       627.5314        488.9854
 98  6 29 19 44  0.0040000  0  7G 6G10G30G17G22G26G23
   3915666.78247   3051171.10246  21717729.1914   21717729.6254
     -2115.6724      -1648.5754
  14575035.07346  11357167.61145  24354282.6454   24354284.7074
     -5563.6874      -4335.3414
  15489581.92646  11958836.51845  24116591.9964   24116594.3874
     -5809.6094      -4526.9684
   1845360.84947   1440343.13047  22749839.4414   22749841.3634
     -1240.8124       -966.8674
    110231.74645     68923.25643  25566200.7774   25566204.7974
      -423.7034       -330.1584
   -492197.89345   -343820.30545  24518807.2624   24518811.3404
      -218.6874       -170.4064
  -2040967.91746  -1530191.78045  24565090.3794   24565094.7624
       622.9534        485.4184
 98  6 29 19 44 15.0040000  0  7G 6G10G30G17G22G26G23
   3947459.87947   3075944.94746  21723778.9574   21723779.2854
     -2123.6414      -1654.7854
  14658527.66746  11422226.75045  24370169.9494   24370171.8364
     -5568.8444      -4339.3594
  15576758.80746  12026766.50145  24133181.1914   24133183.6414
     -5814.0944      -4530.4634
   1864006.80147   1454872.45447  22753387.6604   22753389.6054
     -1245.5164       -970.5324
    116645.29045     73920.90543  25567420.9414   25567424.5164
      -431.6414       -336.3434
   -488877.93545   -341233.27045  24519439.3954   24519443.5554
      -224.1564       -174.6674
  -2050277.03345  -1537445.54445  24563318.5274   24563323.1214
       618.0784        481.6194
 98  6 29 19 44 30.0040000  0  7G 6G10G30G17G22G26G23
   3979368.56547   3100808.85846  21729851.2074   21729851.6054
     -2130.9064      -1660.4464
  14742094.06446  11487343.40345  24386072.3164   24386074.7424
     -5573.3754      -4342.8904
  15663997.91446  12094744.96545  24149782.2384   24149784.4064
     -5817.8594      -4533.3974
   1882718.92247   1469453.33847  22756948.5124   22756950.5984
     -1249.4844       -973.6244
    123173.38645     79007.78543  25568662.9024   25568664.6024
      -438.7974       -341.9204
   -485480.55245   -338585.87445  24520085.7544   24520089.5744
      -228.9064       -178.3694
  -2059516.75746  -1544645.23145  24561560.3324   24561564.5274
       613.8284        478.3084
 98  6 29 19 44 45.0040000  0  7G 6G10G30G17G22G26G23
   4011390.77847   3125761.23446  21735944.8554   21735945.2304
     -2138.4534      -1666.3274
  14825732.92646  11552516.52645  24401988.4024   24401991.4494
     -5578.2504      -4346.6884
  15751300.38446  12162772.79845  24166395.2934   24166398.0004
     -5822.2344      -4536.8064
   1901495.45147   1484084.40547  22760521.5434   22760523.5474
     -1253.8124       -976.9974
    129815.04245     84183.14843  25569927.2854   25569930.0044
      -446.5314       -347.9464
   -482005.18745   -335877.75045  24520747.7074   24520751.3284
      -234.3284       -182.5934
  -2068687.68246  -1551791.34245  24559815.1684   24559819.0704
       609.1414        474.6554
 98  6 29 19 45  0.0040000  0  7G 6G10G30G17G22G26G23
   4043523.35347   3150799.60546  21742059.7154   21742060.3244
     -2145.5624      -1671.8674
  14909444.08346  11617745.97345  24417918.0124   24417920.6954
     -5582.9694      -4350.3654
  15838665.20146  12230849.21345  24183020.3714   24183023.4534
     -5826.1094      -4539.8254
   1920336.45847   1498765.71847  22764106.8634   22764108.5864
     -1258.0784       -980.3214
    136570.98545     89447.53143  25571212.7464   25571215.7234
      -453.9844       -353.7544
   -478446.73945   -333104.86345  24521424.6134   24521428.6214
      -239.8284       -186.8794
  -2077788.84245  -1558883.07545  24558083.0044   24558087.9964
       604.6724        471.1734
 98  6 29 19 45 15.0040000  0  7G 6G10G30G17G22G26G23
   4075764.29347   3175922.41846  21748194.7304   21748195.3984
     -2153.1254      -1677.7604
  14993227.82746  11683031.98345  24433862.0664   24433864.4694
     -5588.0944      -4354.3594
  15926089.36046  12298971.87645  24199656.4184   24199659.2544
     -5830.3124      -4543.1014
   1939244.00747   1513498.88247  22767704.7234   22767706.3874
     -1262.7974       -983.9984
    143441.23645     94800.98143  25572520.2934   25572523.9844
      -461.9844       -359.9884
   -474805.42545   -330267.42245  24522117.3874   24522120.8094
      -245.6414       -191.4084
  -2086823.27045  -1565922.80545  24556363.6914   24556368.2624
       600.0474        467.5694
 98  6 29 19 45 30.0050000  0  7G 6G10G30G17G22G26G23
   4108123.10047   3201137.07746  21754352.3844   21754352.8644
     -2160.7974      -1683.7384
  15077096.32846  11748384.04345  24449821.3294   24449824.0714
     -5593.2194      -4358.3524
  16013583.83846  12367149.32745  24216306.1884   24216308.4384
     -5834.5004      -4546.3644
   1958225.04147   1528289.30847  22771316.8294   22771318.4814
     -1267.4224       -987.6014
    150435.93745    100251.44144  25573851.3294   25573854.9974
      -470.2664       -366.4414
   -471072.75045   -327358.77445  24522827.8064   24522831.2394
      -251.7504       -196.1694
  -2095786.26045  -1572906.86745  24554658.1574   24554662.0954
       595.2664        463.8434
 98  6 29 19 45 45.0050000  0  7G 6G10G30G17G22G26G23
   4140591.41747   3226437.06646  21760530.6964   21760531.0484
     -2168.1564      -1689.4724
  15161031.42946  11813787.98945  24465794.0564   24465797.0204
     -5597.9374      -4362.0294
  16101132.77446  12435369.21445  24232966.6964   24232969.0874
     -5838.5784      -4549.5414
   1977267.71847   1543127.76347  22774940.5324   22774942.1034
     -1271.4844       -990.7674
    157550.37844    105795.18543  25575204.4784   25575207.4784
      -478.2194       -372.6384
   -467251.47145   -324381.08445  24523555.2904   24523558.7004
      -257.6874       -200.7954
  -2104679.70645  -1579836.74745  24552965.8844   24552969.4934
       590.6414        460.2394
 98  6 29 19 46  0.0050000  0  7G 6G10G30G17G22G26G23
   4173167.41847   3251820.96646  21766730.0094   21766730.5134
     -2175.4534      -1695.1584
  15245033.47946  11879244.10645  24481778.7514   24481781.5174
     -5602.4694      -4365.5604
  16188739.45846  12503634.10145  24249637.5484   24249640.1384
     -5842.4224      -4552.5374
   1996369.48547   1558012.26447  22778575.5714   22778577.2244
     -1275.5944       -993.9694
    164784.09944    111431.87943  25576580.7354   25576585.7864
      -486.4534       -379.0544
   -463342.66045   -321335.19945  24524298.7434   24524302.7984
      -263.7664       -205.5324
  -2113506.02845  -1586714.32145  24551285.4384   24551289.4584
       586.0634        456.6724
 98  6 29 19 46 15.0050000  0  7G 6G10G30G17G22G26G23
   4205854.89447   3277291.72946  21772950.1264   21772950.8764
     -2182.9064      -1700.9664
  15329105.28546  11944754.57145  24497777.2124   24497780.3294
     -5607.1094      -4369.1764
  16276404.95146  12571944.79945  24266319.9384   24266322.6924
     -5846.2974      -4555.5564
   2015536.11147   1572947.31347  22782222.6884   22782224.3534
     -1279.9844       -997.3904
    172144.83944    117167.58843  25577981.5324   25577986.9584
      -495.0004       -385.7144
   -459337.12545   -318213.93645  24525061.3534   24525064.4584
      -270.2504       -210.5844
  -2122261.27645  -1593536.51145  24549619.7824   24549623.6854
       581.2664        452.9344
 98  6 29 19 46 30.0050000  0  7G 6G10G30G17G22G26G23
   4238648.99847   3302845.57746  21779190.5634   21779191.2204
     -2189.7814      -1706.3234
  15413241.31446  12010315.10845  24513787.7984   24513790.6694
     -5611.1254      -4372.3054
  16364122.55146  12640296.11245  24283011.9544   24283015.0014
     -5849.5624      -4558.1014
   2034763.20947   1587929.47447  22785881.4154   22785883.3024
     -1283.7504      -1000.3254
    179629.21444    122999.56743  25579406.1574   25579409.3564
      -503.0474       -391.9854
   -455239.71645   -315021.09245  24525840.2744   24525843.8024
      -276.1874       -215.2114
  -2130948.34445  -1600305.57445  24547966.5954   24547970.9424
       576.8594        449.5014
 98  6 29 19 46 45.0050000  0  7G 6G10G30G17G22G26G23
   4271548.07647   3328481.22746  21785451.1814   21785451.8724
     -2196.6254      -1711.6564
  15497438.58446  12075923.33845  24529809.9544   24529813.0484
     -5614.9224      -4375.2644
  16451891.73646  12708687.62045  24299713.6814   24299716.5874
     -5852.7974      -4560.6214
   2054047.96447   1602956.56647  22789551.0484   22789552.8534
     -1287.3754      -1003.1494
    187235.87144    128926.87043  25580853.6424   25580857.8724
      -510.9844       -398.1704
   -451050.45345   -311756.68845  24526638.1964   24526641.4424
      -282.1414       -219.8504
  -2139567.26545  -1607021.53645  24546326.6034   24546330.9744
       572.5314        446.1284
 98  6 29 19 47  0.0050000  0  7G 6G10G30G17G22G26G23
   4304550.90047   3354197.71546  21791731.2824   21791732.2084
     -2203.5474      -1717.0504
  15581691.94746  12141575.29345  24545842.9934   24545845.7244
     -5618.7034      -4378.2104
  16539708.68846  12777116.35545  24316424.5874   24316427.7634
     -5855.9224      -4563.0564
   2073387.83147   1618026.59747  22793231.4314   22793233.2944
     -1291.0944      -1006.0474
    194962.93245    134947.97443  25582323.9704   25582329.2084
      -519.0624       -404.4644
   -446772.79145   -308423.35945  24527451.5634   24527454.6814
      -287.9694       -224.3914
  -2148121.12146  -1613686.78745  24544698.3534   24544702.7704
       568.1724        442.7314
 98  6 29 19 47 15.0050000  0  7G 6G10G30G17G22G26G23
   4337658.07647   3379995.51746  21798031.5174   21798032.3024
     -2210.5944      -1722.5414
  15666003.38246  12207272.47845  24561887.1104   24561889.7704
     -5622.6874      -4381.3154
  16627572.34246  12845581.46645  24333144.7204   24333147.6144
     -5859.0784      -4565.5154
   2092784.73147   1633141.07147  22796922.5244   22796924.3294
     -1295.0004      -1009.0914
    202810.65645    141063.08443  25583817.0094   25583821.0054
      -527.1564       -410.7714
   -442409.94845   -305023.67645  24528281.7434   24528285.7044
      -293.5314       -228.7264
  -2156610.80146  -1620302.05345  24543082.9074   24543087.3254
       563.9064        439.4074
 98  6 29 19 47 30.0050000  0  7G 6G10G30G17G22G26G23
   4370868.89047   3405874.07346  21804351.2984   21804352.0834
     -2217.4844      -1727.9104
  15750371.84946  12273014.12145  24577942.0174   24577945.0174
     -5626.4224      -4384.2254
  16715479.82446  12914080.74545  24349873.2594   24349876.1424
     -5861.8594      -4567.6834
   2112236.34847   1648298.18747  22800624.0794   22800625.7904
     -1298.5164      -1011.8304
    210777.74244    147271.23943  25585332.8454   25585336.1494
      -535.0624       -416.9324
   -437966.40345   -301561.10745  24529127.3994   24529131.8644
      -298.9534       -232.9504
  -2165039.03345  -1626869.42745  24541479.2674   24541483.4504
       559.8754        436.2664
 98  6 29 19 47 45.0050000  0  7G 6G10G30G17G22G26G23
   4404184.60247   3431834.37447  21810691.0244   21810691.6694
     -2224.4844      -1733.3644
  15834797.43146  12338800.26245  24594006.8924   24594009.9034
     -5630.2034      -4387.1714
  16803429.43946  12982612.84145  24366609.5714   24366612.8174
     -5864.6874      -4569.8864
   2131742.45147   1663497.75447  22804336.2744   22804338.0794
     -1302.1724      -1014.6794
    218863.09645    153571.57143  25586871.7744   25586874.9034
      -542.8124       -422.9714
   -433439.65245   -298033.72145  24529988.6734   24529992.1654
      -304.4224       -237.2124
  -2173404.48345  -1633387.86045  24539887.3134   24539890.8994
       555.6414        432.9674
 98  6 29 19 48  0.0050000  0  7G 6G10G30G17G22G26G23
   4437599.61947   3457872.05346  21817049.7204   21817050.5524
     -2231.0944      -1738.5154
  15919274.99446  12404626.91445  24610082.9544   24610086.4234
     -5633.6874      -4389.8864
  16891417.37246  13051174.80545  24383352.6654   24383355.8994
     -5867.2034      -4571.8474
   2151298.34447   1678736.12547  22808057.4544   22808059.2354
     -1305.5164      -1017.2854
    227057.44045    159956.79343  25588431.5954   25588435.0404
      -549.9694       -428.5474
   -428837.15045   -294447.29945  24530864.1734   24530867.7944
      -309.4374       -241.1204
  -2181712.27246  -1639861.39245  24538306.3684   24538310.3294
       551.8594        430.0204
 98  6 29 19 48 15.0050000  0  7G 6G10G30G17G22G26G23
   4471124.85547   3483995.61546  21823429.6184   21823430.3804
     -2238.6254      -1744.3834
  16003813.63746  12470501.16445  24626169.8064   24626172.6654
     -5637.9064      -4393.1744
  16979450.47846  13119771.95045  24400105.0324   24400107.9504
     -5870.2814      -4574.2454
   2170914.17547   1694021.19747  22811790.1734   22811792.0134
     -1309.6724      -1020.5244
    235367.98445    166432.57043  25590013.1654   25590016.9034
      -557.7504       -434.6104
   -424150.67545   -290795.43645  24531756.3374   24531759.3134
      -315.1094       -245.5404
  -2189954.25446  -1646283.63645  24536737.8064   24536741.8954
       547.3444        426.5024
 98  6 29 19 48 30.0050000  0  7G 6G10G30G17G22G26G23
   4504757.22347   3510202.66046  21829829.4314   21829830.1104
     -2245.9844      -1750.1184
  16088411.82646  12536421.80245  24642268.4934   24642271.5634
     -5642.1254      -4396.4614
  17067526.06146  13188402.20645  24416865.4784   24416868.1034
     -5873.4694      -4576.7294
   2190587.51547   1709351.08047  22815533.7594   22815535.4814
     -1313.7194      -1023.6774
    243788.40945    172993.98343  25591615.2284   25591618.9194
      -565.2194       -440.4304
   -419387.28345   -287083.63145  24532663.1654   24532666.2824
      -320.2344       -249.5334
  -2198132.79046  -1652656.44945  24535181.3534   24535184.9974
       542.8914        423.0324
 98  6 29 19 48 45.0050000  0  7G 6G10G30G17G22G26G23
   4538504.56847   3536499.29346  21836250.9624   21836251.5714
     -2253.3754      -1755.8774
  16173077.28846  12602394.87245  24658379.4704   24658382.5174
     -5646.3594      -4399.7614
  17155654.42546  13257073.58745  24433635.7674   24433638.3454
     -5876.6874      -4579.2374
   2210325.43947   1724731.29147  22819289.5094   22819291.3134
     -1317.7664      -1026.8304
    252323.72545    179644.89843  25593239.5954   25593243.0404
      -572.5164       -446.1164
   -414543.21746   -283308.97145  24533584.5634   24533587.3884
      -325.3444       -253.5154
  -2206242.56446  -1658975.66945  24533638.3764   24533642.1034
       538.7814        419.8304
 98  6 29 19 49  0.0050000  0  7G 6G10G30G17G22G26G23
   4572359.15347   3562879.49047  21842693.5874   21842694.1964
     -2260.4374      -1761.3804
  16257803.07146  12668414.92045  24674502.2354   24674505.2944
     -5650.2814      -4402.8174
  17243827.06546  13325779.46845  24450414.3534   24450416.9074
     -5879.5474      -4581.4654
   2230121.65747   1740156.93047  22823056.9934   22823058.6924
     -1321.6564      -1029.8624
    260964.17845    186377.75743  25594883.5564   25594886.7314
      -579.4534       -451.5224
   -409625.92546   -279477.25945  24534520.3604   24534523.2904
      -330.1874       -257.2894
  -2214296.23546  -1665251.19145  24532105.6424   24532109.5914
       535.1254        416.9814
 98  6 29 19 49 15.0050000  0  7G 6G10G30G17G22G26G23
   4606322.23047   3589344.22946  21849156.5714   21849157.0754
     -2268.1874      -1767.4194
  16342591.66346  12734483.92345  24690637.2674   24690640.7944
     -5655.0624      -4406.5424
  17332046.83846  13394522.08045  24467202.1884   24467204.7314
     -5883.2814      -4584.3754
   2249981.09347   1755631.82747  22826835.9854   22826837.6614
     -1326.4694      -1033.6124
    269713.65545    193195.58143  25596548.6884   25596552.0634
      -587.3284       -457.6584
   -404630.38646   -275584.57445  24535470.9854   24535474.3844
      -336.1564       -261.9404
  -2222290.44246  -1671480.37645  24530584.2594   24530587.6454
       530.5784        413.4384
 98  6 29 19 49 30.0050000  0  7G 6G10G30G17G22G26G23
   4640399.85347   3615898.22046  21855641.3534   21855642.1034
     -2275.6254      -1773.2144
  16427448.60446  12800606.19245  24706785.0244   24706789.1854
     -5659.3594      -4409.8904
  17420320.02546  13463306.31045  24484000.2124   24484002.8134
     -5886.6094      -4586.9684
   2269909.65747   1771160.58447  22830628.3374   22830630.3764
     -1330.7974      -1036.9854
    278576.83744    200101.95843  25598234.8534   25598239.0834
      -594.5784       -463.3084
   -399546.25745   -271622.84645  24536438.0954   24536441.6454
      -341.9844       -266.4814
  -2230218.71346  -1677658.17145  24529075.5324   24529079.3064
       526.2974        410.1014
 98  6 29 19 49 45.0050000  0  7G 6G10G30G17G22G26G23
   4674588.22847   3642538.51246  21862147.1104   21862147.7204
     -2283.0004      -1778.9614
  16512367.99646  12866777.11145  24722944.8604   24722947.9664
     -5663.4374      -4413.0684
  17508642.92846  13532129.27545  24500807.4074   24500809.9504
     -5889.9844      -4589.5984
   2289900.47447   1786737.86147  22834432.4624   22834434.3024
     -1334.7974      -1040.1014
    287547.66945    207092.27244  25599942.0954   25599946.2204
      -601.6414       -468.8114
   -394374.77345   -267593.07545  24537422.3844   24537425.6184
      -347.6874       -270.9254
  -2238084.04146  -1683786.93445  24527578.7824   24527582.8724
       522.1884        406.8994
 98  6 29 19 50  0.0050000  0  7G 6G10G30G17G22G26G23
   4708891.76847   3669268.54446  21868674.7434   21868675.5174
     -2290.5314      -1784.8304
  16597354.41346  12933000.26845  24739117.0094   24739120.7474
     -5667.8914      -4416.5384
  17597023.11646  13600996.87745  24517625.7434   24517628.9544
     -5893.8124      -4592.5814
   2309955.93047   1802365.49847  22838248.7284   22838250.6034
     -1339.0314      -1043.4014
    296629.11545    214168.72743  25601669.7514   25601673.9814
      -608.9844       -474.5334
   -389111.48745   -263491.75745  24538424.0094   24538427.1734
      -353.7974       -275.6864
  -2245879.19446  -1689861.00045  24526094.9624   24526099.1224
       517.4384        403.1984
 98  6 29 19 50 15.0050000  0  7G 6G10G30G17G22G26G23
   4743306.62447   3696085.31746  21875223.7744   21875224.4194
     -2297.9064      -1790.5764
  16682406.72145  12999274.76545  24755301.8924   24755305.6184
     -5672.2194      -4419.9114
  17685458.57746  13669907.55145  24534454.5564   24534456.9814
     -5897.3284      -4595.3214
   2330073.67947   1818041.67647  22842076.9624   22842078.6264
     -1343.1564      -1046.6154
    305820.60145    221330.98543  25603419.5874   25603425.0244
      -616.3754       -480.2924
   -383757.63645   -259319.85245  24539442.1494   24539445.3374
      -359.8594       -280.4104
  -2253604.67446  -1695880.77345  24524624.8844   24524628.6344
       512.8134        399.5944
 98  6 29 19 50 30.0050000  0  7G 6G10G30G17G22G26G23
   4777832.32647   3722988.45746  21881793.6734   21881794.3994
     -2305.4374      -1796.4454
  16767524.74346  13065600.47545  24771499.5874   24771503.5364
     -5676.8594      -4423.5274
  17773947.52946  13738859.90245  24551293.6494   24551296.6614
     -5901.2194      -4598.3524
   2350254.77147   1833767.21747  22845917.4624   22845919.2674
     -1347.6414      -1050.1104
    315125.03445    228581.18044  25605189.4074   25605193.5094
      -624.2034       -486.3924
   -378311.26345   -255075.88245  24540479.0174   24540482.1224
      -366.3124       -285.4384
  -2261259.45346  -1701845.48345  24523168.3064   24523171.5174
       507.8594        395.7354
 98  6 29 19 50 45.0050000  0  7G 6G10G30G17G22G26G23
   4812465.69247   3749975.49846  21888384.1424   21888384.8564
     -2312.5164      -1801.9604
  16852707.75346  13131976.81645  24787709.2204   24787712.3844
     -5680.9534      -4426.7174
  17862491.05046  13807854.78345  24568142.9624   24568146.1264
     -5904.6724      -4601.0434
   2370498.27947   1849541.39147  22849769.4074   22849771.5524
     -1351.5944      -1053.1904
    324543.84245    235920.56544  25606982.3454   25606985.5324
      -631.7814       -492.2974
   -372771.37745   -250759.02945  24541533.0954   24541535.9664
      -372.5474       -290.2964
  -2268843.69146  -1707755.21345  24521725.1344   24521728.5204
       503.2504        392.1434
 98  6 29 19 51  0.0050000  0  7G 6G10G30G17G22G26G23
   4847206.05347   3777045.90547  21894995.2204   21894996.1694
     -2319.9534      -1807.7564
  16937951.49246  13198400.47145  24803930.4384   24803933.8494
     -5685.3124      -4430.1144
  17951083.97946  13876888.16845  24585001.5954   24585004.4784
     -5908.1254      -4603.7344
   2390801.25347   1865361.89847  22853632.9544   22853635.0284
     -1355.8594      -1056.5144
    334077.34645    243349.31244  25608796.3684   25608799.8024
      -639.8124       -498.5554
   -367133.81745   -246366.06745  24542605.5954   24542608.4544
      -379.5164       -295.7264
  -2276357.03146  -1713609.68945  24520295.4464   24520298.8684
       498.0784        388.1134
 98  6 29 19 51 15.0050000  0  7G 6G10G30G17G22G26G23
   4882057.04147   3804202.51646  21901627.4624   21901628.3294
     -2327.1874      -1813.3934
  17023259.09046  13264873.90245  24820164.3924   24820168.1424
     -5689.3754      -4433.2794
  18039728.24346  13945961.54145  24601869.9704   24601872.9354
     -5911.4064      -4606.2914
   2411166.89847   1881231.23947  22857508.5244   22857510.3764
     -1359.8754      -1059.6434
    343731.61245    250872.11643  25610633.4074   25610637.5564
      -647.7344       -504.7284
   -361392.08145   -241891.93345  24543697.8064   24543700.6184
      -386.3444       -301.0474
  -2283790.31246  -1719401.78845  24518880.7514   24518884.9704
       492.7034        383.9254
 98  6 29 19 51 30.0050000  0  7G 6G10G30G17G22G26G23
   4917016.18747   3831443.41047  21908279.7674   21908280.6104
     -2334.1414      -1818.8114
  17108628.53346  13331395.50945  24836409.2674   24836412.9114
     -5693.3444      -4436.3724
  18128421.21046  14015072.87145  24618747.8454   24618751.4194
     -5914.4374      -4608.6534
   2431591.03847   1897146.16747  22861395.0794   22861397.0244
     -1363.4224      -1062.4074
    353504.09045    258487.08343  25612493.4934   25612497.2904
      -655.3124       -510.6334
   -355549.39345   -237339.14245  24544809.8924   24544813.1384
      -392.7504       -306.0394
  -2291144.21546  -1725132.02945  24517481.3214   24517485.0364
       487.7664        380.0774
 98  6 29 19 51 45.0050000  0  7G 6G10G30G17G22G26G23
   4952084.24047   3858769.15746  21914953.0634   21914953.7674
     -2341.5004      -1824.5454
  17194062.84746  13397967.67545  24852667.1184   24852669.8134
     -5697.8124      -4439.8544
  18217164.74846  14084223.59945  24635635.4784   24635639.2864
     -5917.9534      -4611.3924
   2452073.17947   1913106.28547  22865292.8684   22865294.7904
     -1367.4374      -1065.5364
    363393.21645    266192.91044  25614374.8764   25614378.8604
      -663.1874       -516.7694
   -349608.53245   -232709.82845  24545940.3764   24545943.3764
      -399.2504       -311.1044
  -2298419.42446  -1730800.95745  24516096.8684   24516100.3844
       482.3444        375.8524
 98  6 29 19 52  0.0050000  0  7G 6G10G30G17G22G26G23
   4987257.26347   3886176.70647  21921646.2204   21921647.0874
     -2348.3754      -1829.9034
  17279558.59146  13464587.70245  24868936.6424   24868939.1734
     -5701.7344      -4442.9104
  18305956.65946  14153412.03745  24652531.7434   24652535.3764
     -5921.0624      -4613.8154
   2472610.64047   1929109.51547  22869200.8764   22869202.6344
     -1371.0474      -1068.3484
    373396.53045    273987.74344  25616278.4624   25616282.2594
      -670.7194       -522.6384
   -343576.05145   -228009.14845  24547087.9544   24547090.8254
      -405.2344       -315.7674
  -2305618.15346  -1736410.28545  24514726.7284   24514730.5484
       477.2974        371.9204
 98  6 29 19 52 15.0050000  0  7G 6G10G30G17G22G26G23
   5022535.19847   3913666.00546  21928359.0874   21928359.9544
     -2354.9694      -1835.0414
  17365114.20846  13531254.39745  24885217.8214   24885220.7984
     -5705.2504      -4445.6494
  18394795.18346  14222636.77845  24669436.8684   24669440.5244
     -5923.6254      -4615.8124
   2493205.69047   1945157.60947  22873119.8994   22873121.8334
     -1374.5624      -1071.0884
    383515.88845    281872.98744  25618203.9314   25618208.3024
      -678.2034       -528.4704
   -337451.44646   -223236.67645  24548253.8604   24548256.4744
      -410.9064       -320.1874
  -2312739.26246  -1741959.12745  24513371.5404   24513375.1964
       472.6564        368.3044
 98  6 29 19 52 30.0050000  0  7G 6G10G30G17G22G26G23
   5057915.81747   3941235.31246  21935091.9704   21935092.6614
     -2362.3594      -1840.8004
  17450722.73746  13597962.31645  24901507.7824   24901510.7594
     -5709.1094      -4448.6574
  18483673.06246  14291892.18945  24686349.9704   24686353.3454
     -5926.7034      -4618.2104
   2513855.78547   1961248.60347  22877049.5874   22877051.3924
     -1378.7194      -1074.3264
    393750.96745    289848.40444  25620150.9384   25620154.5604
      -686.3754       -534.8384
   -331240.38546   -218396.83445  24549436.1424   24549439.6224
      -417.1414       -325.0454
  -2319789.95646  -1747453.10645  24512029.9384   24512033.7944
       467.5004        364.2864
 98  6 29 19 52 45.0050000  0  7G 6G10G30G17G22G26G23
   5093403.33947   3968887.92547  21941844.9854   21941845.7594
     -2369.6414      -1846.4734
  17536385.14746  13664712.21645  24917808.8374   24917811.6144
     -5712.8754      -4451.5914
  18572595.41646  14361182.25345  24703271.5954   24703275.5674
     -5929.9534      -4620.7434
   2534564.90247   1977385.58447  22880990.1964   22880992.0364
     -1382.8284      -1077.5284
    404104.91445    297916.46443  25622122.3294   25622125.1774
      -694.4844       -541.1574
   -324938.54746   -213486.24745  24550635.6884   24550638.1144
      -423.3594       -329.8904
  -2326766.79846  -1752889.54445  24510702.3924   24510706.0604
       462.4064        360.3174
 98  6 29 19 53  0.0050000  0  7G 6G10G30G17G22G26G23
   5128996.72947   3996623.03246  21948618.5014   21948618.9704
     -2376.5004      -1851.8184
  17622099.15546  13731502.31445  24934120.2904   24934123.2784
     -5716.0004      -4454.0264
  18661560.76646  14430505.83045  24720201.0094   24720204.7704
     -5932.4224      -4622.6664
   2555330.88347   1993566.87847  22884942.1184   22884943.9234
     -1386.3444      -1080.2684
    414575.58445    306075.42544  25624114.5324   25624117.2514
      -701.9374       -546.9644
   -318549.17346   -208507.48745  24551851.1494   24551853.3764
      -428.9064       -334.2134
  -2333671.77046  -1758269.97145  24509388.4624   24509392.3064
       457.9224        356.8224
 98  6 29 19 53 15.0050000  0  7G 6G10G30G17G22G26G23
   5164697.63047   4024441.91346  21955412.0634   21955412.7554
     -2383.8124      -1857.5164
  17707865.10246  13798332.90545  24950440.4384   24950443.2864
     -5719.6724      -4456.8874
  18750568.34046  14499862.29645  24737138.9854   24737142.2674
     -5935.4534      -4625.0284
   2576154.59547   2009793.15647  22888904.5564   22888906.5604
     -1390.3124      -1083.3604
    425162.11045    314324.69244  25626129.5954   25626132.2434
      -709.7974       -553.0884
   -312073.28046   -203461.29745  24553083.3844   24553085.6574
      -434.7034       -338.7304
  -2340506.30046  -1763595.52045  24508087.2434   24508090.5714
       453.1564        353.1094
 98  6 29 19 53 30.0050000  0  7G 6G10G30G17G22G26G23
   5200506.45747   4052344.89046  21962226.3454   21962226.9664
     -2390.5784      -1862.7884
  17793684.14445  13865204.84945  24966771.5404   24966774.6454
     -5722.6724      -4459.2254
  18839620.99046  14569253.89145  24754084.8134   24754088.6224
     -5938.0314      -4627.0374
   2597034.93747   2026063.55546  22892877.7354   22892879.5994
     -1393.5944      -1085.9174
    435864.72445    322664.44944  25628165.4234   25628169.1264
      -717.0314       -558.7264
   -305513.56546   -198349.77745  24554331.4544   24554334.2204
      -439.7974       -342.6994
  -2347271.31146  -1768866.88445  24506800.2124   24506804.1384
       449.0474        349.9074
 98  6 29 19 53 45.0050000  0  7G 6G10G30G17G22G26G23
   5236425.09247   4080333.43646  21969061.0174   21969061.7554
     -2398.5944      -1869.0344
  17879555.36546  13932117.46945  24983112.4464   24983115.4234
     -5726.7504      -4462.4034
  18928718.49046  14638680.43745  24771039.8294   24771043.1694
     -5941.5624      -4629.7894
   2617971.40147   2042377.68447  22896862.2124   22896864.1224
     -1397.9374      -1089.3024
    446683.53245    331094.71044  25630224.4854   25630227.4154
      -725.4534       -565.2884
   -298869.15646   -193172.27045  24555595.4704   24555597.9544
      -446.0784       -347.5934
  -2353967.95446  -1774084.97345  24505525.4544   24505529.2864
       443.7814        345.8044
 98  6 29 19 54  0.0050000  0  7G 6G10G30G17G22G26G23
   5272451.39647   4108405.88046  21975916.7354   21975917.4624
     -2405.0314      -1874.0504
  17965471.43346  13999065.02945  24999462.0014   24999465.1424
     -5728.7814      -4463.9854
  19017853.49546  14708136.20945  24788001.6424   24788004.8414
     -5943.1564      -4631.0314
   2638959.42347   2058731.99646  22900855.9154   22900857.8374
     -1400.5004      -1091.2994
    457615.49545    339613.13644  25632304.2594   25632308.4784
      -732.2664       -570.5974
   -292144.31046   -187932.08545  24556875.3534   24556878.2354
      -450.6724       -351.1734
  -2360597.51246  -1779250.79945  24504264.1734   24504267.5134
       440.0474        342.8944
 98  6 29 19 54 15.0050000  0  7G 6G10G30G17G22G26G23
   5308585.26447   4136562.13646  21982793.0324   21982793.8294
     -2412.3914      -1879.7854
  18051427.22746  14066043.54245  25015818.8214   25015821.2944
     -5731.5474      -4466.1404
  19107021.39046  14777617.60445  24804970.0014   24804973.5874
     -5945.4224      -4632.7964
   2659995.02247   2075123.37846  22904858.6964   22904860.6184
     -1403.8444      -1093.9044
    468661.53745    348220.47444  25634406.8064   25634409.4544
      -740.0784       -576.6844
   -285339.22546   -182629.36645  24558170.5014   24558173.7704
      -456.2814       -355.5444
  -2367161.24746  -1784365.31845  24503015.4854   24503019.3064
       435.5944        339.4244
 98  6 29 19 54 30.0050000  0  7G 6G10G30G17G22G26G23
   5344828.42047   4164803.55446  21989689.4544   21989690.2164
     -2420.0474      -1885.7514
  18137423.70645  14133053.75845  25032182.7984   25032185.2594
     -5734.6874      -4468.5884
  19196220.76046  14847123.53245  24821944.1034   24821947.6534
     -5947.9064      -4634.7324
   2681080.10847   2091553.32546  22908871.0014   22908872.9234
     -1407.5004      -1096.7534
    479822.97645    356917.75744  25636530.3924   25636533.5794
      -748.1564       -582.9794
   -278451.16245   -177261.99745  24559480.9544   24559484.0134
      -462.2034       -360.1584
  -2373660.21346  -1789429.38345  24501778.5324   24501782.8454
       430.8444        335.7224
 98  6 29 19 54 45.0050000  0  7G 6G10G30G17G22G26G23
   5381182.53147   4193131.42846  21996607.6184   21996608.3454
     -2427.3124      -1891.4124
  18223463.83046  14200097.97645  25048556.0244   25048559.1184
     -5737.5624      -4470.8284
  19285455.62446  14916657.10445  24838924.9934   24838928.2744
     -5950.2814      -4636.5834
   2702216.42547   2108023.18846  22912893.0484   22912895.0874
     -1410.8444      -1099.3594
    491099.82845    365704.90943  25638676.0714   25638679.4704
      -755.5944       -588.7744
   -271475.87246   -171826.65345  24560808.3064   24560810.9314
      -468.0624       -364.7244
  -2380090.39646  -1794439.84045  24500554.6814   24500558.6424
       426.3594        332.2284
 98  6 29 19 55  0.0050000  0  7G 6G10G30G17G22G26G23
   5417644.54047   4221543.38446  22003546.2594   22003546.7634
     -2434.2974      -1896.8554
  18309547.80946  14267176.37645  25064937.8454   25064940.4934
     -5740.2814      -4472.9464
  19374725.85846  14986218.24045  24855912.3924   24855915.9424
     -5952.3754      -4638.2144
   2723401.69247   2124531.19047  22916924.6494   22916926.6184
     -1413.8124      -1101.6724
    502488.51245    374579.22544  25640843.3924   25640847.5284
      -762.8284       -594.4124
   -264413.85045   -166323.73945  24562151.9384   24562155.1034
      -473.5004       -368.9614
  -2386454.09746  -1799398.51345  24499343.6104   24499347.1384
       422.1884        328.9774
 98  6 29 19 55 15.0050000  0  7G 6G10G30G17G22G26G23
   5454213.29747   4250038.51446  22010504.6494   22010505.3064
     -2441.6254      -1902.5654
  18395673.61845  14334287.38245  25081326.4074   25081329.7004
     -5743.2814      -4475.2844
  19464026.86746  15055803.36145  24872906.1964   24872910.1104
     -5954.5624      -4639.9194
   2744630.98947   2141073.50646  22920964.6494   22920966.4664
     -1416.8444      -1104.0344
    513986.64145    383538.84244  25643031.6264   25643034.9074
      -770.3594       -600.2804
   -257268.69445   -160756.03945  24563511.7124   24563515.1924
      -479.3284       -373.5024
  -2392754.66346  -1804307.97045  24498144.5094   24498147.8134
       417.7814        325.5444
 98  6 29 19 55 30.0050000  0  7G 6G10G30G17G22G26G23
   5490889.27647   4278617.19246  22017483.8764   22017484.4624
     -2448.9844      -1908.3004
  18481842.54646  14401431.95045  25097724.1574   25097726.7824
     -5746.4224      -4477.7314
  19553359.01446  15125412.75345  24889905.5484   24889909.4274
     -5956.8594      -4641.7094
   2765902.07447   2157648.38547  22925012.3454   22925014.1614
     -1419.8284      -1106.3604
    525594.62445    392584.03544  25645240.0874   25645242.5244
      -777.8754       -606.1364
   -250039.35145   -155122.73645  24564887.6104   24564890.6924
      -485.1724       -378.0564
  -2398991.29646  -1809167.63245  24496958.0794   24496961.7004
       413.2194        321.9894
 98  6 29 19 55 45.0060000  0  7G 6G10G30G17G22G26G23
   5527678.27047   4307283.93946  22024484.8184   22024485.3694
     -2455.7814      -1913.5964
  18568064.12645  14468617.57645  25114131.5764   25114134.7054
     -5748.8914      -4479.6554
  19642730.50046  15195052.78345  24906912.3734   24906915.7834
     -5958.3914      -4642.9024
   2787221.08947   2174260.61247  22929069.2794   22929071.1194
     -1422.4224      -1108.3814
    537316.80945    401718.22844  25647471.5214   25647474.6744
      -784.7974       -611.5304
   -242719.31945   -149418.77345  24566280.3344   24566283.3694
      -490.6564       -382.3304
  -2405158.99146  -1813973.55845  24495784.4044   24495788.5884
       409.2664        318.9084
 98  6 29 19 56  0.0060000  0  7G 6G10G30G17G22G26G23
   5564572.60647   4336032.76346  22031505.4824   22031506.3034
     -2463.4224      -1919.5504
  18654324.31246  14535833.28445  25130545.9824   25130549.0064
     -5752.4374      -4482.4194
  19732124.30346  15264710.22045  24923923.6074   24923926.6664
     -5960.7664      -4644.7524
   2808585.05347   2190907.86647  22933134.3734   22933136.0844
     -1426.0944      -1111.2424
    549148.01645    410937.37644  25649723.0064   25649726.3114
      -792.6874       -617.6794
   -235311.41146   -143646.33945  24567689.8964   24567693.3424
      -497.0314       -387.2974
  -2411261.39546  -1818728.62645  24494622.8034   24494626.1784
       404.4224        315.1344
 98  6 29 19 56 15.0060000  0  7G 6G10G30G17G22G26G23
   5601574.81147   4364865.64546  22038547.0924   22038547.8534
     -2470.4374      -1925.0164
  18740632.13246  14603086.09345  25146970.1704   25146973.1824
     -5755.5624      -4484.8544
  19821549.23446  15334391.89745  24940940.5764   24940943.8934
     -5962.8284      -4646.3604
   2829999.31147   2207594.31247  22937209.1464   22937210.9984
     -1429.4224      -1113.8354
    561093.02545    420245.20844  25651995.7094   25651999.1664
      -800.2974       -623.6084
   -227811.47746   -137802.19245  24569116.9754   24569119.4944
      -503.2504       -392.1434
  -2417297.18246  -1823431.76545  24493474.3654   24493477.7644
       400.1094        311.7744
 98  6 29 19 56 30.0060000  0  7G 6G10G30G17G22G26G23
   5638685.37347   4393782.96446  22045608.9124   22045609.5214
     -2477.7664      -1930.7264
  18826991.55945  14670379.14845  25163403.2564   25163406.0574
     -5759.2194      -4487.7034
  19911008.91546  15404100.65745  24957963.9824   24957967.0184
     -5965.2664      -4648.2594
   2851468.58347   2224323.62447  22941294.7794   22941296.5844
     -1433.3284      -1116.8794
    573157.00745    429645.74044  25654291.5454   25654295.3774
      -808.3444       -629.8784
   -220213.73646   -131881.81745  24570562.8654   24570565.5724
      -509.9694       -397.3784
  -2423265.99246  -1828082.73545  24492338.4754   24492342.7754
       395.5784        308.2434
 98  6 29 19 56 45.0060000  0  7G 6G10G30G17G22G26G23
   5675898.44547   4422780.16046  22052690.4044   22052691.0844
     -2484.0004      -1935.5844
  18913400.04845  14737710.41545  25179846.8814   25179850.2914
     -5761.9224      -4489.8094
  20000498.12946  15473832.42245  24974993.4674   24974996.7834
     -5966.6874      -4649.3674
   2872988.76647   2241092.60647  22945390.0374   22945392.0414
     -1436.0164      -1118.9734
    585334.15845    439134.45244  25656608.8814   25656612.9474
      -815.3444       -635.3334
   -212520.25046   -125886.84645  24572027.3504   24572029.1314
      -515.8594       -401.9684
  -2429173.48146  -1832685.90345  24491214.1234   24491217.4754
       392.0784        305.5154
 98  6 29 19 57  0.0060000  0  7G 6G10G30G17G22G26G23
   5713215.37947   4451858.28546  22059791.5144   22059792.2874
     -2491.6414      -1941.5384
  18999858.72545  14805080.78345  25196299.5064   25196302.9514
     -5765.9534      -4492.9504
  20090018.08946  15543588.14745  24992028.7954   24992032.1004
     -5969.2344      -4651.3514
   2894558.74647   2257900.39547  22949494.8114   22949496.7914
     -1439.9694      -1122.0544
    597626.59845    448713.00444  25658948.0454   25658951.4434
      -823.7194       -641.8594
   -204729.25946   -119815.92245  24573510.0684   24573512.3184
      -522.9374       -407.4844
  -2435020.68246  -1837242.11245  24490101.5144   24490105.1234
       387.5004        301.9484
 98  6 29 19 57 15.0060000  0  7G 6G10G30G17G22G26G23
   5750640.39547   4481020.62946  22066912.9204   22066913.6464
     -2498.8594      -1947.1634
  19086369.88645  14872492.05045  25212762.5294   25212765.9634
     -5769.2974      -4495.5564
  20179566.75646  15613366.24745  25009069.1624   25009072.5144
     -5971.0004      -4652.7274
   2916179.61347   2274747.82747  22953609.2254   22953611.1004
     -1443.2974      -1124.6474
    610038.68345    458384.77344  25661309.1704   25661311.7014
      -831.6414       -648.0324
   -196838.80946   -113667.48345  24575010.8574   24575013.2834
      -529.6254       -412.6954
  -2440805.12246  -1841749.41045  24489000.7174   24489004.2094
       383.2974        298.6734
 98  6 29 19 57 30.0060000  0  7G 6G10G30G17G22G26G23
   5788174.53347   4510268.00246  22074055.7014   22074056.3114
     -2505.8444      -1952.6064
  19172931.10245  14939942.31745  25229233.2094   25229237.8144
     -5772.3594      -4497.9424
  20269141.57646  15683164.70745  25026114.8894   25026118.5454
     -5972.5314      -4653.9204
   2937852.85547   2291636.07947  22957733.3504   22957735.2014
     -1446.7344      -1127.3254
    622570.79045    468150.07144  25663694.7404   25663697.4004
      -839.4694       -654.1314
   -188845.33646   -107438.76645  24576532.3964   24576534.5414
      -536.3914       -417.9674
  -2446524.37746  -1846205.91945  24487912.3814   24487915.4044
       379.0784        295.3864
 98  6 29 19 57 45.0060000  0  7G 6G10G30G17G22G26G23
   5825816.45947   4539599.37146  22081218.6544   22081219.2874
     -2512.7034      -1957.9504
  19259540.07845  15007429.79045  25245715.1314   25245719.5024
     -5775.0944      -4500.0734
  20358743.61846  15752984.40045  25043165.9984   25043169.0684
     -5974.0004      -4655.0654
   2959584.48347   2308569.82047  22961868.8574   22961870.6154
     -1450.4534      -1130.2234
    635223.18145    478009.11444  25666101.5374   25666105.2644
      -847.1564       -660.1224
   -180745.90046   -101127.47945  24578074.0144   24578077.0614
      -543.1414       -423.2264
  -2452176.68046  -1850610.24945  24486836.9284   24486839.9394
       374.9534        292.1714
 98  6 29 19 58  0.0060000  0  7G 6G10G30G17G22G26G23
   5863560.07847   4569009.97446  22088400.8964   22088401.6114
     -2519.7194      -1963.4174
  19346187.58945  15074947.30845  25262203.9754   25262208.0414
     -5777.8444      -4502.2164
  20448367.04146  15822820.75845  25060220.7174   25060223.4244
     -5975.7504      -4656.4294
   2981371.02647   2325546.35847  22966014.7014   22966016.3894
     -1454.3594      -1133.2674
    647990.69945    487957.84644  25668531.5214   25668535.0254
      -855.1254       -666.3314
   -172547.10646    -94738.76345  24579633.5294   24579636.0374
      -549.9224       -428.5114
  -2457768.87346  -1854967.75045  24485772.4434   24485776.0644
       370.7034        288.8604
 98  6 29 19 58 15.0060000  0  7G 6G10G30G17G22G26G23
   5901405.19847   4598499.67446  22095602.9514   22095603.6434
     -2526.7664      -1968.9084
  19432873.79545  15142494.97945  25278699.2564   25278703.0294
     -5780.7504      -4504.4814
  20538015.47846  15892676.58345  25077280.2794   25077284.0414
     -5977.8284      -4658.0484
   3003212.95147   2342566.05047  22970171.1864   22970173.0844
     -1458.3284      -1136.3604
    660876.42045    497998.69844  25670983.3574   25670987.9864
      -863.4064       -672.7844
   -164249.16146    -88272.78945  24581212.2174   24581215.1824
      -556.8914       -433.9414
  -2463298.30646  -1859276.33645  24484720.2954   24484723.6824
       366.0634        285.2444
 98  6 29 19 58 30.0060000  0  7G 6G10G30G17G22G26G23
   5939354.79347   4628070.78246  22102824.3574   22102825.1784
     -2533.4534      -1974.1194
  19519599.79745  15210073.64245  25295202.8424   25295206.8034
     -5782.9844      -4506.2224
  20627692.45146  15962554.64945  25094345.3424   25094348.7284
     -5979.3914      -4659.2654
   3025110.95147   2359629.43447  22974337.8734   22974339.7714
     -1461.6414      -1138.9414
    673882.52345    508133.32844  25673458.6784   25673462.7794
      -870.9534       -678.6654
   -155850.01746    -81727.95545  24582810.9984   24582813.5644
      -563.2034       -438.8604
  -2468760.44346  -1863532.49945  24483680.8814   24483684.2324
       361.9694        282.0544
 98  6 29 19 58 45.0060000  0  7G 6G10G30G17G22G26G23
   5977411.18947   4657725.11646  22110066.3964   22110067.1234
     -2540.7194      -1979.7814
  19606364.49445  15277682.47645  25311713.4044   25311717.9394
     -5785.5784      -4508.2434
  20717398.28046  16032455.21445  25111415.6624   25111418.9324
     -5981.3124      -4660.7634
   3047063.51747   2376735.34147  22978515.3424   22978517.3344
     -1465.2974      -1141.7904
    687005.00045    518358.67944  25675955.4204   25675958.6314
      -878.5944       -684.6194
   -147352.82846    -75106.73445  24584427.8814   24584430.5414
      -569.7344       -443.9494
  -2474155.28246  -1867736.20945  24482654.1624   24482657.1974
       357.3754        278.4744
 98  6 29 19 59  0.0060000  0  7G 6G10G30G17G22G26G23
   6015579.15847   4687466.38546  22117329.3344   22117330.0494
     -2548.1724      -1985.5884
  19693168.72745  15345322.11845  25328232.1074   25328235.9164
     -5788.0944      -4510.2034
  20807134.85746  16102379.73445  25128492.2014   25128495.7174
     -5983.3594      -4662.3584
   3069071.89447   2393884.73647  22982703.5534   22982705.3934
     -1469.0004      -1144.6754
    700243.00645    528674.00744  25678474.4674   25678478.2524
      -886.2814       -690.6094
   -138757.90846    -68409.34745  24586063.3814   24586066.8034
      -576.0784       -448.8924
  -2479479.51446  -1871884.90945  24481641.0764   24481644.2754
       352.6564        274.7974
 98  6 29 19 59 15.0060000  0  7G 6G10G30G17G22G26G23
   6053856.89747   4717293.18946  22124613.1864   22124613.7954
     -2555.5314      -1991.3234
  19780006.82446  15412988.13845  25344756.9044   25344761.1354
     -5790.2814      -4511.9074
  20896897.66046  16172324.68045  25145573.1004   25145577.2954
     -5985.0314      -4663.6614
   3091134.39547   2411076.30447  22986901.7874   22986903.6274
     -1472.6874      -1147.5494
    713592.99045    539076.61544  25681015.4044   25681018.1354
      -893.6874       -696.3804
   -130071.84446    -61640.94845  24587716.2874   24587718.8774
      -582.0784       -453.5674
  -2484734.24746  -1875979.45545  24480641.3264   24480644.0804
       347.9064        271.0964
 98  6 29 19 59 30.0060000  0  7G 6G10G30G17G22G26G23
   6092241.04747   4747202.91146  22131917.7954   22131918.4754
     -2562.7664      -1996.9604
  19866873.40245  15480676.35745  25361286.8654   25361289.8424
     -5792.4064      -4513.5634
  20986684.56246  16242288.40545  25162659.3344   25162663.4364
     -5987.0314      -4665.2194
   3113249.39447   2428308.77747  22991110.1624   22991111.7324
     -1476.4844      -1150.5074
    727050.23445    549562.80244  25683575.8734   25683579.0844
      -901.1094       -702.1634
   -121298.93046    -54804.85945  24589385.1544   24589388.4124
      -588.0314       -458.2064
  -2489920.04646  -1880020.28445  24479654.2094   24479657.4324
       343.1094        267.3584
 98  6 29 19 59 45.0060000  0  7G 6G10G30G17G22G26G23
   6130735.47847   4777198.57346  22139242.8344   22139243.4554
     -2570.0164      -2002.6104
  19953776.07945  15548392.70645  25377824.0294   25377827.1934
     -5794.7814      -4515.4144
  21076505.21246  16312278.43345  25179751.7794   25179756.0214
     -5989.2504      -4666.9484
   3135425.33447   2445588.73947  22995330.1234   22995331.7524
     -1480.4064      -1153.5634
    740623.24045    560139.20244  25686158.6004   25686161.0374
      -908.7194       -708.0934
   -112435.75546    -47898.45245  24591072.4364   24591075.6004
      -593.8914       -462.7724
  -2495031.22446  -1884002.96345  24478681.6934   24478684.5764
       338.2194        263.5474
 98  6 29 20  0  0.0060000  0  7G 6G10G30G17G22G26G23
   6169342.25147   4807281.76346  22146589.5924   22146590.1194
     -2577.5314      -2008.4664
  20040718.25645  15616139.82445  25394368.4594   25394372.0454
     -5797.5164      -4517.5454
  21166361.09846  16382295.91545  25196850.8504   25196854.7994
     -5991.4534      -4668.6654
   3157659.50447   2462914.07247  22999561.3184   22999562.9244
     -1484.0164      -1156.3764
    754311.54445    570805.42644  25688762.5844   25688764.9754
      -916.3594       -714.0464
   -103483.27046    -40922.44245  24592776.0214   24592778.7284
      -599.7814       -467.3624
  -2500067.23446  -1887927.07545  24477722.9364   24477725.8534
       333.2664        259.6884
 98  6 29 20  0 15.0060000  0  7G 6G10G30G17G22G26G23
   6208060.24747   4837451.62246  22153957.4514   22153958.1074
     -2584.7504      -2014.0914
  20127702.48145  15683919.70245  25410921.2094   25410924.3034
     -5800.2814      -4519.7004
  21256247.69345  16452337.32345  25213955.6394   25213960.1744
     -5993.2814      -4670.0894
   3179944.63047   2480279.11547  23003801.8734   23003803.6434
     -1487.1874      -1158.8474
    768113.42945    581560.16944  25691390.0294   25691393.8504
      -923.7504       -719.8054
    -94442.74046    -33877.83345  24594495.7794   24594498.5804
      -605.5164       -471.8304
  -2505028.93346  -1891793.28745  24476778.6544   24476781.6544
       328.4224        255.9134
 98  6 29 20  0 30.0060000  0  7G 6G10G30G17G22G26G23
   6246890.73547   4867709.13846  22161346.6544   22161347.3114
     -2592.5624      -2020.1794
  20214731.91445  15751734.80745  25427481.6864   25427484.5574
     -5803.5624      -4522.2564
  21346163.27645  16522401.32645  25231066.2014   25231069.6464
     -5995.2814      -4671.6484
   3202279.71547   2497683.08247  23008052.1544   23008053.9244
     -1490.7344      -1161.6114
    782028.76645    592403.31344  25694038.2874   25694041.4044
      -931.5474       -725.8814
    -85311.04846    -26762.19045  24596233.4754   24596236.1704
      -611.9064       -476.8104
  -2509914.83146  -1895600.42545  24475848.7564   24475851.4754
       323.1884        251.8344
 98  6 29 20  0 45.0060000  0  7G 6G10G30G17G22G26G23
   6285836.28347   4898056.31546  22168757.6004   22168758.4084
     -2600.2974      -2026.2054
  20301808.17345  15819586.42745  25444052.7174   25444056.5724
     -5806.7814      -4524.7654
  21436105.06545  16592485.74545  25248181.2404   25248185.2954
     -5997.1094      -4673.0724
   3224666.25447   2515127.15047  23012312.2014   23012314.1934
     -1494.2814      -1164.3754
    796059.17145    603336.10844  25696707.9824   25696712.0964
      -939.4064       -732.0054
    -76085.51346    -19573.42645  24597989.3504   24597991.7404
      -618.3914       -481.8634
  -2514726.29446  -1899349.56345  24474933.3734   24474936.3504
       318.2034        247.9504
 98  6 29 20  1  0.0060000  0  7G 6G10G30G17G22G26G23
   6324893.66247   4928490.63746  22176189.9044   22176190.7714
     -2607.6874      -2031.9644
  20388930.98745  15887474.29345  25460631.4204   25460634.6784
     -5809.9374      -4527.2244
  21526070.22645  16662588.36945  25265301.6544   25265306.4474
     -5998.6254      -4674.2534
   3247104.56347   2532611.55747  23016582.1464   23016584.0214
     -1497.8444      -1167.1514
    810207.32245    614360.65744  25699399.8264   25699402.9084
      -947.4374       -738.2634
    -66762.62246    -12308.78545  24599763.0684   24599765.4714
      -625.0944       -487.0864
  -2519465.24846  -1903042.20645  24474031.5374   24474034.3854
       313.2814        244.1154
 98  6 29 20  1 15.0060000  0  7G 6G10G30G17G22G26G23
   6364060.54147   4959010.27746  22183643.2714   22183644.2444
     -2614.6564      -2037.3944
  20476102.14845  15955399.84445  25477219.5214   25477222.7324
     -5812.9534      -4529.5744
  21616059.32445  16732709.64645  25282425.6464   25282430.1354
     -6000.0004      -4675.3254
   3269595.75347   2550137.16447  23020862.0374   23020863.9474
     -1501.0784      -1169.6714
    824478.29045    625480.90544  25702116.3424   25702119.6234
      -955.4694       -744.5214
    -57336.59746     -4963.80345  24601556.9434   24601559.7094
      -631.7974       -492.3094
  -2524129.59646  -1906676.70545  24473143.8344   24473146.8114
       308.4694        240.3654
 98  6 29 20  1 30.0060000  0  7G 6G10G30G17G22G26G23
   6403333.78147   4989612.79646  22191116.6394   22191117.5294
     -2621.9224      -2043.0564
  20563320.84245  16023362.41845  25493816.7174   25493820.2684
     -5816.3594      -4532.2284
  21706071.75745  16802849.11445  25299554.8894   25299559.2134
     -6001.9064      -4676.8104
   3292137.45147   2567702.13347  23025151.6624   23025153.4554
     -1504.6414      -1172.4474
    838872.14845    636696.93544  25704854.8814   25704857.7994
      -963.9064       -751.0964
    -47806.87346      2462.00045  24603370.4434   24603372.6584
      -639.0314       -497.9464
  -2528718.39646  -1910252.34745  24472270.7644   24472273.9164
       303.2034        236.2624
 98  6 29 20  1 45.0060000  0  7G 6G10G30G17G22G26G23
   6442716.41447   5020300.55646  22198610.7254   22198611.4754
     -2628.8914      -2048.4864
  20650593.31645  16091366.91345  25510424.1464   25510427.7914
     -5819.7034      -4534.8344
  21796115.82245  16873013.22445  25316689.3894   25316693.9364
     -6003.6564      -4678.1744
   3314734.09147   2585309.91247  23029451.5534   23029453.3224
     -1508.0004      -1175.0654
    853395.43645    648013.79444  25707618.3504   25707620.9754
      -972.3124       -757.6464
    -38165.24646      9975.00545  24605204.9984   24605206.7564
      -646.2974       -503.6084
  -2533226.94446  -1913765.44345  24471412.5454   24471415.6974
       298.1724        232.3424
 98  6 29 20  2  0.0060000  0  7G 6G10G30G17G22G26G23
   6482208.79947   5051073.84146  22206126.0214   22206126.5844
     -2636.5314      -2054.4404
  20737918.59845  16159412.55345  25527041.6154   25527045.4124
     -5823.4064      -4537.7194
  21886187.69845  16943199.00745  25333829.5454   25333833.9284
     -6005.6564      -4679.7324
   3337383.49847   2602958.81047  23033761.7324   23033763.4434
     -1511.6564      -1177.9144
    868046.67645    659430.35744  25710406.5924   25710410.0614
      -980.9534       -764.3794
    -28409.82546     17576.66745  24607061.2174   24607063.0924
      -654.2194       -509.7814
  -2537656.57646  -1917217.06645  24470569.7014   24470572.7714
       292.6724        228.0564
 98  6 29 20  2 15.0060000  0  7G 6G10G30G17G22G26G23
   6521809.84747   5081931.79546  22213661.8964   22213662.4824
     -2643.6094      -2059.9554
  20825294.23445  16227497.45245  25543668.3264   25543671.6194
     -5826.6564      -4540.2524
  21976284.33945  17013404.08245  25350974.5534   25350979.3574
     -6007.2974      -4681.0114
   3360082.78247   2620646.56947  23038080.8734   23038082.8184
     -1515.0004      -1180.5194
    882822.93345    670944.33144  25713218.5924   25713222.1194
      -989.2974       -770.8814
    -18539.59146     25267.79745  24608940.0764   24608941.7644
      -661.8754       -515.7474
  -2542009.36546  -1920608.79945  24469741.1314   24469744.5884
       287.6414        224.1364
 98  6 29 20  2 30.0060000  0  7G 6G10G30G17G22G26G23
   6561515.86447   5112871.54446  22221217.9204   22221218.3894
     -2650.8914      -2065.6294
  20912715.66045  16295618.02045  25560304.0844   25560306.8384
     -5829.7814      -4542.6874
  22066405.62545  17083628.37045  25368123.7324   25368128.1034
     -6009.2034      -4682.4964
   3382833.05347   2638374.05447  23042410.3114   23042412.1504
     -1518.7194      -1183.4174
    897725.94045    682557.07044  25716054.7094   25716057.6744
      -998.1094       -777.7484
     -8555.17546     33047.89545  24610839.6154   24610842.0534
      -669.7344       -521.8714
  -2546287.16146  -1923942.09845  24468927.3814   24468931.0614
       282.4534        220.0934
 98  6 29 20  2 45.0060000  0  7G 6G10G30G17G22G26G23
   6601330.89047   5143896.23146  22228793.9904   22228794.7524
     -2658.1414      -2071.2784
  21000179.81545  16363771.86645  25576948.0454   25576950.1544
     -5832.4844      -4544.7934
  22156554.15145  17153873.86345  25385278.7954   25385283.4244
     -6010.9694      -4683.8724
   3405638.32547   2656144.40147  23046749.9904   23046751.7954
     -1522.4064      -1186.2914
    912758.99945    694271.19044  25718915.2714   25718917.7914
     -1006.6874       -784.4324
      1544.53046     40917.84645  24612761.3734   24612764.3614
      -677.2344       -527.7154
  -2550489.75446  -1927216.79445  24468127.3184   24468130.6934
       277.5164        216.2464
 98  6 29 20  3  0.0060000  0  7G 6G10G30G17G22G26G23
   6641257.28947   5175007.70746  22236392.0534   22236392.6744
     -2665.1564      -2076.7454
  21087685.47845  16431958.08944  25593599.8654   25593602.8184
     -5834.6874      -4546.5104
  22246733.16045  17224143.11945  25402439.4674   25402443.0414
     -6012.7034      -4685.2234
   3428502.56547   2673960.69447  23051100.8574   23051102.8144
     -1525.9064      -1189.0184
    927921.58845    706086.19944  25721800.5844   25721803.3144
     -1014.7664       -790.7264
     11757.73546     48876.23045  24614704.9124   24614707.3034
      -684.2974       -533.2184
  -2554615.55646  -1930431.65645  24467342.5614   24467345.6314
       272.7974        212.5694
 98  6 29 20  3 15.0060000  0  7G 6G10G30G17G22G26G23
   6681296.36647   5206206.98646  22244011.2094   22244011.9944
     -2673.4064      -2083.1744
  21175230.15645  16500174.65344  25610258.5844   25610261.7014
     -5837.8914      -4549.0064
  22336944.82245  17294437.83145  25419606.1464   25419610.1314
     -6015.5004      -4687.4034
   3451424.44647   2691821.90747  23055462.6154   23055464.4204
     -1530.2814      -1192.4274
    943210.71145    717999.80244  25724709.9904   25724712.3224
     -1023.6874       -797.6794
     22081.78246     56920.97945  24616669.4904   24616672.1274
      -692.1724       -539.3554
  -2558662.63346  -1933585.17745  24466572.2094   24466575.1744
       266.8444        207.9304
 98  6 29 20  3 30.0060000  0  7G 6G10G30G17G22G26G23
   6721457.50147   5237501.37446  22251653.7014   22251654.5214
     -2681.4534      -2089.4444
  21262818.15045  16568425.02544  25626926.2324   25626929.7364
     -5840.4534      -4551.0024
  22427194.84245  17364762.42245  25436780.4754   25436784.9044
     -6017.8444      -4689.2294
   3474408.76047   2709731.76547  23059836.6934   23059838.4044
     -1534.3284      -1195.5804
    958627.92245    730013.24044  25727643.5924   25727647.0614
     -1031.9224       -804.0954
     32516.99846     65052.36145  24618655.3344   24618657.7714
      -699.1254       -544.7734
  -2562624.13146  -1936672.01545  24465818.2094   24465821.2914
       261.2974        203.6084
 98  6 29 20  3 45.0060000  0  7G 6G10G30G17G22G26G23
   6761742.49947   5268892.27146  22259319.5924   22259320.1544
     -2690.0164      -2096.1164
  21350445.93345  16636706.36444  25643601.6544   25643604.9364
     -5843.3754      -4553.2794
  22517481.78145  17435115.76245  25453961.7174   25453965.0574
     -6020.5624      -4691.3474
   3497457.17847   2727691.56747  23064222.4754   23064224.2794
     -1538.9534      -1199.1844
    974171.11845    742124.81844  25730601.1004   25730604.9784
     -1040.6874       -810.9254
     43057.92346     73266.12145  24620660.9434   24620663.9434
      -706.5624       -550.5684
  -2566500.27446  -1939692.32945  24465080.6394   24465083.4754
       255.3594        198.9814
 98  6 29 20  4  0.0060000  0  7G 6G10G30G17G22G26G23
   6802151.20747   5300379.57546  22267009.2564   22267009.9714
     -2697.9064      -2102.2654
  21438112.20345  16705017.71444  25660283.7404   25660286.5294
     -5845.5004      -4554.9354
  22607802.98045  17505495.82745  25471149.1784   25471153.2684
     -6022.2814      -4692.6874
   3520569.78647   2745701.39447  23068620.6784   23068622.5644
     -1542.7344      -1202.1314
    989840.88845    754335.03444  25733582.9674   25733586.8464
     -1048.6254       -817.1104
     53705.04846     81562.63745  24622686.8814   24622689.5644
      -713.0944       -555.6574
  -2570291.84446  -1942646.74845  24464359.3344   24464362.5924
       250.1254        194.9034
 98  6 29 20  4 15.0060000  0  7G 6G10G30G17G22G26G23
   6842685.31747   5331964.58746  22274722.4514   22274723.0844
     -2706.1094      -2108.6574
  21525816.65345  16773358.80544  25676973.7094   25676976.8964
     -5847.8754      -4556.7864
  22698156.67045  17575901.18245  25488343.0614   25488347.2684
     -6024.3914      -4694.3304
   3543744.77647   2763759.82447  23073030.8504   23073032.7604
     -1546.7974      -1205.2964
   1005635.77845    766642.74544  25736588.8184   25736591.5844
     -1056.8914       -823.5514
     64455.62246     89939.75845  24624733.0614   24624735.8854
      -719.7974       -560.8814
  -2573997.47846  -1945534.21145  24463653.8964   24463656.8964
       244.4844        190.5074
 98  6 29 20  4 30.0060000  0  7G 6G10G30G17G22G26G23
   6883340.67747   5363644.08346  22282459.1314   22282459.7644
     -2714.6254      -2115.2924
  21613553.75745  16841725.36644  25693669.1394   25693672.8304
     -5850.3444      -4558.7094
  22788540.14345  17646329.77745  25505542.4754   25505546.8464
     -6026.6874      -4696.1204
   3566980.61547   2781865.67847  23077452.5144   23077454.2484
     -1551.2974      -1208.8034
   1021553.21745    779045.95244  25739617.6394   25739621.0614
     -1065.4064       -830.1874
     75304.31146     98393.32245  24626797.1004   24626800.3694
      -726.6724       -566.2384
  -2577621.24446  -1948357.87245  24462964.3344   24462967.2404
       238.7034        186.0024
 98  6 29 20  4 45.0060000  0  7G 6G10G30G17G22G26G23
   6924125.27947   5395424.28646  22290220.1004   22290220.8854
     -2723.4064      -2122.1354
  21701327.18945  16910120.21045  25710372.1074   25710375.0844
     -5852.8754      -4560.6824
  22878956.85745  17716784.24645  25522748.2324   25522752.2754
     -6028.9694      -4697.8984
   3590284.71747   2800024.72847  23081886.9594   23081888.6704
     -1556.0004      -1212.4684
   1037598.07845    791548.47745  25742671.0924   25742672.6274
     -1073.9534       -836.8474
     86255.17846    106926.50745  24628880.8814   24628883.4944
      -733.5474       -571.5954
  -2581158.28746  -1951113.96645  24462290.8654   24462293.6074
       232.8134        181.4124
 98  6 29 20  5  0.0060000  0  7G 6G10G30G17G22G26G23
   6965036.18547   5427302.90646  22298005.2954   22298005.7644
     -2731.4064      -2128.3694
  21789135.29345  16978542.06944  25727081.4044   25727083.3854
     -5854.9844      -4562.3254
  22969403.81145  17787262.28945  25539959.8504   25539963.8694
     -6030.6874      -4699.2374
   3613654.26747   2818234.76847  23086334.1544   23086335.8774
     -1559.9694      -1215.5604
   1053764.81145    804145.94845  25745747.9204   25745750.5334
     -1081.7194       -842.8984
     97305.28646    115537.02645  24630984.1314   24630986.6504
      -739.9534       -576.5874
  -2584611.10146  -1953804.41945  24461634.1314   24461636.8854
       227.5004        177.2734
 98  6 29 20  5 15.0060000  0  7G 6G10G30G17G22G26G23
   7006066.21747   5459274.35746  22305813.0144   22305813.8224
     -2739.3594      -2134.5664
  21876976.12545  17046989.44545  25743797.3424   25743799.6744
     -5857.3124      -4564.1404
  23059877.71445  17857761.34445  25557176.3344   25557180.9044
     -6032.5944      -4700.7224
   3637082.46347   2836490.51547  23090792.4204   23090794.0374
     -1563.8444      -1218.5804
   1070049.42445    816835.25944  25748846.3964   25748848.8694
     -1089.7814       -849.1804
    108455.03246    124225.17145  24633105.8034   24633108.2994
      -746.8594       -581.9684
  -2587983.03346  -1956431.85045  24460992.6394   24460995.6974
       221.9224        172.9264
 98  6 29 20  5 30.0060000  0  7G 6G10G30G17G22G26G23
   7047210.17347   5491334.57946  22313642.4124   22313643.0924
     -2746.5784      -2140.1914
  21964848.98945  17115461.76145  25760519.1234   25760523.1784
     -5859.1724      -4565.5884
  23150373.87345  17928277.71745  25574398.0144   25574401.8224
     -6033.6094      -4701.5144
   3660563.10947   2854787.12347  23095260.7094   23095262.4904
     -1567.0164      -1221.0514
   1086453.30945    829617.55244  25751968.0924   25751972.0064
     -1097.5004       -855.1954
    119705.43246    132991.75845  24635246.3964   24635248.4594
      -753.2974       -586.9854
  -2591274.36846  -1958996.47945  24460366.0614   24460368.8614
       216.8754        168.9944
 98  6 29 20  5 45.0060000  0  7G 6G10G30G17G22G26G23
   7088464.12147   5523480.50546  22321492.6704   22321493.3384
     -2753.9224      -2145.9134
  22052752.11245  17183957.69345  25777246.1154   25777249.7954
     -5861.2344      -4567.1964
  23240887.07645  17998807.38745  25591622.0064   25591626.3184
     -6034.7814      -4702.4274
   3684094.58147   2873123.34547  23099738.3734   23099740.1194
     -1570.4694      -1223.7424
   1102976.39145    842492.67144  25755112.3964   25755116.1464
     -1105.6094       -861.5144
    131056.33946    141836.66645  24637406.4824   24637408.2054
      -760.1564       -592.3304
  -2594488.49846  -1961500.95045  24459754.4514   24459757.7214
       211.6884        164.9514
 98  6 29 20  6  0.0060000  0  7G 6G10G30G17G22G26G23
   7129829.94147   5555713.60846  22329364.2564   22329365.0064
     -2761.5164      -2151.8304
  22140689.50945  17252480.29844  25793980.2564   25793983.0454
     -5863.7664      -4569.1684
  23331418.72445  18069351.42045  25608849.7644   25608853.6314
     -6036.1094      -4703.4624
   3707679.15647   2891500.94547  23104226.3114   23104227.9284
     -1574.0624      -1226.5424
   1119624.85845    855465.54744  25758280.0064   25758282.4084
     -1114.1414       -868.1624
    142515.54646    150765.95045  24639587.1314   24639589.1004
      -767.7504       -598.2474
  -2597624.41146  -1963944.47045  24459157.6004   24459160.3894
       206.4694        160.8854
 98  6 29 20  6 15.0070000  0  7G 6G10G30G17G22G26G23
   7171305.80347   5588032.45446  22337257.1284   22337257.5734
     -2768.3914      -2157.1874
  22228665.34845  17321032.87344  25810721.7294   25810724.3084
     -5865.7194      -4570.6904
  23421968.31945  18139909.44945  25626080.3084   25626084.7024
     -6036.5004      -4703.7664
   3731310.16747   2909914.72747  23108723.4014   23108724.8314
     -1576.6874      -1228.5884
   1136394.00445    868532.40645  25761471.6044   25761474.7574
     -1121.7344       -874.0794
    154081.59646    159778.50145  24641788.1124   24641790.0464
      -774.4844       -603.4944
  -2600690.88546  -1966333.88045  24458573.9954   24458577.0774
       202.2344        157.5854
 98  6 29 20  6 30.0070000  0  7G 6G10G30G17G22G26G23
   7212887.49747   5620433.76946  22345169.3474   22345169.9914
     -2775.7194      -2162.8984
  22316669.30245  17389607.35044  25827468.3004   25827471.4994
     -5868.0314      -4572.4924
  23512523.43245  18210471.76645  25643312.8784   25643317.0734
     -6037.3444      -4704.4244
   3754985.66847   2928363.17747  23113228.5974   23113230.1904
     -1579.9534      -1231.1324
   1153282.72845    881692.47745  25764684.9254   25764688.8394
     -1129.9694       -880.4954
    165754.80646    168874.55445  24644009.0894   24644011.4794
      -781.8594       -609.2414
  -2603688.64846  -1968669.75145  24458003.5894   24458006.5544
       197.6094        153.9814
 98  6 29 20  6 45.0070000  0  7G 6G10G30G17G22G26G23
   7254572.96447   5652915.94346  22353102.1594   22353102.7224
     -2782.5164      -2168.1944
  22404702.18645  17458204.37345  25844219.8234   25844223.3624
     -5869.8914      -4573.9414
  23603083.12345  18281037.64145  25660545.3784   25660549.3274
     -6037.4534      -4704.5094
   3778702.83447   2946844.09247  23117741.7374   23117743.2374
     -1582.4694      -1233.0934
   1170287.61945    894943.06245  25767920.6834   25767923.1204
     -1137.5474       -886.4004
    177532.87846    178052.29845  24646250.5504   24646252.3194
      -788.7194       -614.5864
  -2606623.59146  -1970956.66646  24457445.1754   24457448.5504
       193.4844        150.7674
 98  6 29 20  7  0.0070000  0  7G 6G10G30G17G22G26G23
   7296363.76747   5685480.19846  22361054.6904   22361055.2294
     -2789.4534      -2173.6004
  22492767.75445  17526826.87145  25860978.8084   25860981.9364
     -5872.0474      -4575.6214
  23693647.94945  18351607.53445  25677779.7064   25677784.3944
     -6037.7194      -4704.7164
   3802459.88547   2965356.08547  23122262.7374   23122264.3544
     -1584.9534      -1235.0284
   1187410.05545    908285.23144  25771179.2064   25771182.4994
     -1145.3124       -892.4514
    189419.03646    187314.28945  24648512.4644   24648515.0544
      -795.9694       -620.2354
  -2609491.36446  -1973191.25146  24456899.4174   24456902.3824
       189.0164        147.2854
 98  6 29 20  7 15.0070000  0  7G 6G10G30G17G22G26G23
   7338255.99547   5718123.48846  22369026.5194   22369027.2104
     -2796.3594      -2178.9814
  22580863.03645  17595472.51344  25877742.8004   25877745.6364
     -5874.1094      -4577.2284
  23784213.04945  18422177.63145  25695013.2454   25695017.9794
     -6037.7664      -4704.7524
   3826250.69947   2983894.38947  23126789.8624   23126791.6324
     -1587.3124      -1236.8674
   1204647.05045    921716.67045  25774459.2534   25774461.9134
     -1153.1724       -898.5754
    201411.69146    196659.24245  24650794.4404   24650796.5384
      -803.1724       -625.8484
  -2612293.70446  -1975374.84946  24456366.0264   24456369.2024
       184.4534        143.7304
 98  6 29 20  7 30.0070000  0  7G 6G10G30G17G22G26G23
   7380254.45147   5750849.55046  22377018.3624   22377019.2064
     -2803.6564      -2184.6674
  22668990.15845  17664142.96844  25894512.9484   25894517.9764
     -5876.3594      -4578.9814
  23874780.37045  18492749.46445  25712248.2844   25712253.0894
     -6038.0944      -4705.0084
   3850079.76247   3002462.49547  23131324.4174   23131326.2104
     -1590.1414      -1239.0714
   1222004.38345    935241.87945  25777762.4254   25777764.0544
     -1161.3124       -904.9194
    213512.94346    206088.82945  24653097.3084   24653099.0774
      -810.4844       -631.5464
  -2615025.28346  -1977503.30446  24455846.0344   24455848.9404
       179.5634        139.9194
 98  6 29 20  7 45.0070000  0  7G 6G10G30G17G22G26G23
   7422362.44447   5783660.97046  22385031.2534   22385032.0504
     -2810.7664      -2190.2074
  22757148.01845  17732837.38444  25911288.3544   25911292.3624
     -5878.0314      -4580.2844
  23965350.80745  18563323.71545  25729483.1514   25729487.4764
     -6037.9844      -4704.9234
   3873951.29447   3021063.69347  23135866.8624   23135868.4914
     -1592.8124      -1241.1534
   1239481.20245    948860.20444  25781087.9094   25781090.6514
     -1168.8914       -910.8244
    225720.97046    215601.63345  24655420.5264   24655422.5074
      -817.2504       -636.8184
  -2617686.77346  -1979577.15146  24455339.4724   24455342.5894
       175.3594        136.6444
 98  6 29 20  8  0.0070000  0  7G 6G10G30G17G22G26G23
   7464579.60947   5816557.45246  22393065.1364   22393065.9564
     -2818.1874      -2195.9904
  22845333.08445  17801552.96944  25928069.8784   25928072.8194
     -5880.0474      -4581.8554
  24055922.94745  18633899.30445  25746718.8864   25746723.2924
     -6038.3754      -4705.2274
   3897865.89547   3039698.45247  23140417.8784   23140419.6474
     -1595.7974      -1243.4784
   1257071.97145    962567.28645  25784435.4334   25784439.0194
     -1176.5624       -916.8024
    238032.34646    225194.94645  24657762.7294   24657765.2144
      -824.3284       -642.3344
  -2620284.03646  -1981600.94146  24454845.4484   24454848.4724
       170.9064        133.1744
 98  6 29 20  8 15.0070000  0  7G 6G10G30G17G22G26G23
   7506906.74947   5849539.63046  22401119.5894   22401120.3744
     -2825.5944      -2201.7614
  22933548.04345  17870291.88944  25944856.4724   25944859.6714
     -5882.0784      -4583.4374
  24146501.40545  18704479.81445  25763955.2144   25763960.4174
     -6038.9534      -4705.6784
   3921823.57947   3058366.78447  23144976.8704   23144978.6404
     -1598.7194      -1245.7554
   1274776.43445    976362.97944  25787804.2224   25787807.6084
     -1184.1414       -922.7074
    250449.56946    234870.73745  24660125.6754   24660128.3584
      -831.4534       -647.8864
  -2622815.66846  -1983573.59646  24454363.7454   24454366.7804
       166.4064        129.6674
 98  6 29 20  8 30.0070000  0  7G 6G10G30G17G22G26G23
   7549344.96547   5882608.36946  22409195.3704   22409196.1904
     -2832.9374      -2207.4844
  23021791.23045  17939052.77644  25961648.8944   25961652.8544
     -5883.6874      -4584.6924
  24237089.94145  18775068.16745  25781193.5114   25781198.0584
     -6039.6414      -4706.2134
   3945826.32047   3077070.22647  23149544.4174   23149546.1514
     -1601.7814      -1248.1414
   1292593.73945    990246.63444  25791195.1124   25791197.5384
     -1191.6254       -928.5394
    262972.80746    244629.14345  24662509.4874   24662511.9604
      -838.4694       -653.3524
  -2625276.25246  -1985490.88746  24453895.3624   24453898.3514
       161.5164        125.8564
 98  6 29 20  8 45.0070000  0  7G 6G10G30G17G22G26G23
   7591895.79647   5915764.85046  22417292.5344   22417293.3664
     -2840.7664      -2213.5844
  23110058.32845  18007832.30544  25978445.3704   25978449.4724
     -5885.5314      -4586.1284
  24327692.17845  18845667.20045  25798434.7454   25798440.5694
     -6040.9224      -4707.2124
   3969877.33647   3095811.28247  23154121.0584   23154122.9684
     -1605.2814      -1250.8694
   1310526.48045   1004220.18345  25794607.3314   25794610.6124
     -1199.6564       -934.7974
    275604.58546    254472.13145  24664912.6444   24664914.6364
      -846.0474       -659.2574
  -2627659.92546  -1987348.25646  24453441.7764   24453445.1984
       156.0474        121.5954
 98  6 29 20  9  0.0070000  0  7G 6G10G30G17G22G26G23
   7634560.60347   5949010.15746  22425411.7374   22425412.3944
     -2847.9534      -2219.1844
  23198350.64945  18076631.46244  25995246.8314   25995251.4364
     -5886.8124      -4587.1274
  24418310.97445  18916279.12645  25815679.0034   25815684.1834
     -6041.7194      -4707.8334
   3993977.35247   3114590.51847  23158707.1444   23158708.9954
     -1608.1564      -1253.1094
   1328576.49045   1018285.16744  25798042.2694   25798044.7654
     -1207.1564       -940.6414
    288347.19946    264401.48245  24667337.5734   24667339.4014
      -853.0944       -664.7484
  -2629963.96446  -1989143.56446  24453003.0114   24453006.4914
       151.0634        117.7114
 98  6 29 20  9 15.0070000  0  7G 6G10G30G17G22G26G23
   7677332.83447   5982339.15746  22433551.0894   22433551.8044
     -2854.9694      -2224.6514
  23286661.29945  18145444.93345  26012051.8864   26012055.0974
     -5887.9224      -4587.9914
  24508943.32445  18986901.61645  25832925.8784   25832930.6594
     -6042.5624      -4708.4904
   4018121.65947   3133404.26847  23163301.5584   23163303.4094
     -1611.0944      -1255.3984
   1346739.74645   1032438.34945  25801498.6904   25801501.4444
     -1214.6094       -946.4494
    301196.91046    274414.26845  24669782.9404   24669784.7104
      -860.1094       -670.2154
  -2632193.66846  -1990880.94646  24452578.9094   24452581.7804
       146.2664        113.9734
 98  6 29 20  9 30.0070000  0  7G 6G10G30G17G22G26G23
   7720215.03547   6015753.85446  22441710.9874   22441711.4914
     -2862.4694      -2230.4954
  23374993.34845  18214275.05745  26028860.6204   26028864.2064
     -5889.4694      -4589.1964
  24599592.62445  19057537.32845  25850176.1984   25850180.4644
     -6043.8284      -4709.4764
   4042315.55147   3152256.65947  23167905.6984   23167907.5734
     -1614.5784      -1258.1134
   1365019.32445   1046682.17145  25804976.3944   25804979.1244
     -1222.4374       -952.5494
    314155.10046    284511.58145  24672248.5894   24672250.6864
      -867.4064       -675.9014
  -2634347.77046  -1992559.43246  24452169.2534   24452172.0194
       141.1414        109.9804
 98  6 29 20  9 45.0070000  0  7G 6G10G30G17G22G26G23
   7763210.84247   6049257.07546  22449893.0034   22449893.5544
     -2870.1414      -2236.4734
  23463350.35545  18283124.65245  26045674.5424   26045678.6904
     -5891.2664      -4590.5974
  24690263.54445  19128189.87645  25867430.0194   25867435.4214
     -6045.3754      -4710.6824
   4066563.92047   3171151.49547  23172519.9174   23172521.4524
     -1618.2814      -1260.9984
   1383416.47745   1061017.62545  25808477.8474   25808481.1514
     -1230.3444       -958.7094
    327223.85646    294695.07445  24674735.4404   24674737.8314
      -874.8914       -681.7334
  -2636424.18846  -1994177.37546  24451773.7924   24451776.8514
       135.9064        105.9014
 98  6 29 20 10  0.0070000  0  7G 6G10G30G17G22G26G23
   7806317.18947   6082846.42846  22458095.7144   22458096.0894
     -2877.5164      -2242.2204
  23551729.85845  18351991.74844  26062492.9174   26062497.7104
     -5892.8594      -4591.8384
  24780950.20445  19198854.68145  25884687.5734   25884693.3744
     -6046.2974      -4711.4004
   4090860.83447   3190084.16347  23177143.2614   23177144.8544
     -1621.4534      -1263.4704
   1401928.99445   1075442.98545  25812000.7534   25812005.5114
     -1238.2194       -964.8464
    340398.48446    304961.04945  24677242.0584   24677244.3904
      -881.9224       -687.2124
  -2638426.45546  -1995737.53246  24451392.8944   24451395.7534
       130.8594        101.9684
 98  6 29 20 10 15.0070000  0  7G 6G10G30G17G22G26G23
   7849532.63347   6116520.79746  22466319.5034   22466319.9254
     -2884.5784      -2247.7234
  23640132.39245  18420876.81844  26079314.7144   26079318.6754
     -5894.1094      -4592.8124
  24871648.32745  19269528.41245  25901946.9724   25901951.1084
     -6046.7504      -4711.7534
   4115203.31947   3209052.34047  23181775.6594   23181777.3114
     -1624.1874      -1265.6014
   1420559.93045   1089960.60244  25815545.6514   25815549.7884
     -1245.9534       -970.8734
    353679.07446    315309.60245  24679769.4874   24679771.8314
      -888.8444       -692.6064
  -2640351.69546  -1997237.67746  24451026.1834   24451029.0424
       125.8134         98.0364
 98  6 29 20 10 30.0070000  0  7G 6G10G30G17G22G26G23
   7892858.13247   6150280.92046  22474564.2614   22474564.5894
     -2892.3124      -2253.7504
  23728554.46845  18489777.10244  26096141.2224   26096146.2374
     -5895.6254      -4593.9944
  24962353.90645  19340207.98545  25919207.5504   25919211.7334
     -6047.4374      -4712.2894
   4139589.88447   3228054.86347  23186416.2224   23186418.0384
     -1627.5474      -1268.2184
   1439311.18945   1104571.99344  25819114.6444   25819118.8974
     -1254.3914       -977.4474
    367066.47446    325741.37945  24682316.6984   24682319.2294
      -896.3124       -698.4254
  -2642198.03746  -1998676.33646  24450675.2374   24450677.8624
       120.1884         93.6534
 98  6 29 20 10 45.0070000  0  7G 6G10G30G17G22G26G23
   7936295.12347   6184127.92346  22482830.0814   22482830.4094
     -2899.0164      -2258.9734
  23816995.89345  18558692.47844  26112970.8234   26112974.9254
     -5896.3444      -4594.5544
  25053063.55345  19410890.70145  25936468.8084   25936472.9564
     -6046.8914      -4711.8634
   4164023.65347   3247094.17447  23191065.7454   23191067.5974
     -1629.9844      -1270.1184
   1458186.10045   1119279.71044  25822705.9484   25822709.6864
     -1262.0004       -983.3774
    380560.75746    336256.43645  24684884.7764   24684886.6634
      -902.7034       -703.4054
  -2643963.51046  -2000051.99146  24450338.9564   24450341.6514
       115.5474         90.0374
 98  6 29 20 11  0.0070000  0  7G 6G10G30G17G22G26G23
   7979837.10647   6218056.72946  22491115.4334   22491115.8784
     -2906.3754      -2264.7084
  23905456.44245  18627622.73844  26129804.5894   26129809.2294
     -5898.2194      -4596.0154
  25143768.83145  19481570.02545  25953730.3784   25953735.5464
     -6046.9224      -4711.8874
   4188498.12747   3266165.19947  23195723.1834   23195725.0814
     -1633.1094      -1272.5534
   1477180.98545   1134080.92844  25826320.3784   25826323.5424
     -1270.4224       -989.9394
    394155.15746    346849.49745  24687471.8394   24687474.0304
      -909.6564       -708.8234
  -2645656.62746  -2001371.25946  24450016.7534   24450019.6124
       110.4224         86.0434
 98  6 29 20 11 15.0070000  0  7G 6G10G30G17G22G26G23
   8023479.92447   6252064.11746  22499420.8314   22499421.1124
     -2912.7344      -2269.6634
  23993935.58645  18696567.48144  26146642.0504   26146645.4254
     -5899.1254      -4596.7214
  25234465.27345  19552242.42145  25970988.8154   25970993.6324
     -6045.9844      -4711.1574
   4213010.20047   3285265.52047  23200387.6124   23200389.3824
     -1635.2194      -1274.1964
   1496292.01345   1148972.64645  25829957.6594   25829960.4954
     -1277.7664       -995.6624
    407843.55946    357515.82845  24690076.6754   24690079.2184
      -915.4844       -713.3644
  -2647282.21846  -2002637.90746  24449707.7064   24449710.5774
       106.2504         82.7924
 98  6 29 20 11 30.0070000  0  7G 6G10G30G17G22G26G23
   8067223.56547   6286150.05746  22507744.9564   22507745.3544
     -2919.7974      -2275.1664
  24082433.13045  18765526.56244  26163482.2454   26163485.4564
     -5900.5944      -4597.8654
  25325151.00645  19622906.52145  25988245.6754   25988249.3084
     -6045.4844      -4710.7674
   4237557.96847   3304393.65947  23205058.7614   23205060.6244
     -1637.8444      -1276.2424
   1515516.86545   1163953.06044  25833615.7224   25833618.9794
     -1285.5784      -1001.7494
    421622.20546    368252.47445  24692698.6204   24692701.0814
      -921.7194       -718.2224
  -2648840.78446  -2003852.32846  24449410.4484   24449413.4954
       101.5474         79.1274
 98  6 29 20 11 45.0070000  0  7G 6G10G30G17G22G26G23
   8111073.83347   6320319.09746  22516088.9174   22516089.4444
     -2926.9534      -2280.7434
  24170953.13545  18834503.13644  26180327.2534   26180330.5694
     -5902.1414      -4599.0714
  25415829.85645  19693565.25545  26005501.6044   26005505.7184
     -6045.1414      -4710.4994
   4262145.87547   3323553.07447  23209737.7224   23209739.4214
     -1640.5784      -1278.3734
   1534861.03945   1179026.45245  25837297.0584   25837299.9294
     -1293.7034      -1008.0804
    435497.14146    379064.13745  24695339.2064   24695341.3274
      -928.3284       -723.3734
  -2650327.46146  -2005010.73546  24449127.8084   24449131.1364
        96.5944         75.2684
 98  6 29 20 12  0.0070000  0  7G 6G10G30G17G22G26G23
   8155028.45947   6354569.44646  22524453.4174   22524453.9444
     -2933.9224      -2286.1734
  24259493.72745  18903495.79544  26197175.7454   26197179.7414
     -5903.5474      -4600.1664
  25506501.99545  19764218.73945  26022755.7924   26022760.9134
     -6044.7344      -4710.1834
   4286770.81247   3342741.34447  23214423.8004   23214425.4644
     -1642.9844      -1280.2484
   1554325.85645   1194193.85545  25841000.8944   25841003.3314
     -1301.9534      -1014.5094
    449470.68046    389952.65245  24697997.6984   24697999.7264
      -935.0784       -728.6324
  -2651741.70546  -2006112.69646  24448858.6124   24448861.6364
        91.7034         71.4574
 98  6 29 20 12 15.0070000  0  7G 6G10G30G17G22G26G23
   8199089.74147   6388902.90546  22532837.9334   22532838.4724
     -2941.0474      -2291.7254
  24348057.83745  18972506.74744  26214028.7924   26214032.6244
     -5905.0944      -4601.3724
  25597170.18845  19834869.15344  26040009.7764   26040015.1084
     -6044.5624      -4710.0494
   4311433.99947   3361959.41547  23219116.9794   23219118.5264
     -1645.6414      -1282.3174
   1573916.55145   1209459.32545  25844728.6044   25844732.2264
     -1310.2504      -1020.9744
    463548.70546    400922.58745  24700676.8704   24700679.6244
      -942.2194       -734.1964
  -2653081.22146  -2007156.43046  24448603.5894   24448606.5894
        86.7664         67.6104
 98  6 29 20 12 30.0070000  0  7G 6G10G30G17G22G26G23
   8243256.65347   6423318.67646  22541242.8394   22541243.5544
     -2947.8914      -2297.0584
  24436645.49845  19041536.06344  26230886.4954   26230890.3974
     -5906.6414      -4602.5774
  25687839.17145  19905520.18245  26057263.1674   26057268.4644
     -6044.7034      -4710.1584
   4336137.57447   3381208.96547  23223817.9334   23223819.4334
     -1648.2034      -1284.3144
   1593629.94845   1224820.43345  25848480.8234   25848483.4254
     -1318.2034      -1027.1714
    477735.80546    411977.49545  24703376.6284   24703379.2064
      -949.4064       -739.7974
  -2654348.02246  -2008143.50046  24448362.7534   24448365.8474
        82.1254         63.9944
 98  6 29 20 12 45.0070000  0  7G 6G10G30G17G22G26G23
   8287527.34447   6457815.30946  22549667.1444   22549667.9404
     -2954.5314      -2302.2324
  24525258.58045  19110585.17844  26247749.5504   26247753.2414
     -5908.2034      -4603.7954
  25778514.05845  19976175.79345  26074518.6834   26074524.0854
     -6044.9844      -4710.3774
   4360881.76247   3400490.15247  23228526.6754   23228528.3624
     -1650.7034      -1286.2624
   1613464.22945   1240275.70745  25852254.6674   25852256.8354
     -1326.0784      -1033.3084
    492031.21146    423116.80845  24706096.6594   24706098.4764
      -956.3754       -745.2274
  -2655542.86946  -2009074.50446  24448135.4014   24448138.4834
        77.4694         60.3654
 98  6 29 20 13  0.0070000  0  7G 6G10G30G17G22G26G23
   8331899.49547   6492391.00546  22558110.9874   22558111.3274
     -2961.8914      -2307.9674
  24613897.68945  19179654.57844  26264616.9954   26264621.1554
     -5910.4064      -4605.5114
  25869196.40345  20046837.27744  26091774.9724   26091781.2884
     -6046.0784      -4711.2304
   4385664.55047   3419801.42347  23233242.5654   23233244.4054
     -1653.7504      -1288.6364
   1633418.54845   1255824.53645  25856051.7534   25856054.5894
     -1334.5314      -1039.8944
    506432.83946    434338.88845  24708837.4484   24708839.4764
      -963.9844       -751.1574
  -2656666.39346  -2009949.93746  24447921.4564   24447924.5734
        72.2664         56.3114
 98  6 29 20 13 15.0070000  0  7G 6G10G30G17G22G26G23
   8376383.66047   6527053.98446  22566575.8704   22566576.1754
     -2969.3914      -2313.8114
  24702567.61045  19248747.99043  26281490.4014   26281494.0934
     -5912.2504      -4606.9484
  25959895.43245  20117511.70845  26109033.8944   26109039.4254
     -6047.1724      -4712.0824
   4410493.54847   3439148.70147  23237967.4174   23237969.4214
     -1656.8444      -1291.0474
   1653499.40945   1271471.98745  25859873.1984   25859876.9254
     -1342.9224      -1046.4334
    520949.59346    445650.66945  24711599.8544   24711601.8474
      -971.6564       -757.1354
  -2657712.48346  -2010765.02646  24447722.4334   24447725.1044
        67.1564         52.3304
 98  6 29 20 13 30.0070000  0  7G 6G10G30G17G22G26G23
   8420973.16847   6561799.04046  22575061.2224   22575061.3974
     -2976.2504      -2319.1564
  24791256.32445  19317856.03244  26298367.6594   26298370.0154
     -5913.2664      -4607.7394
  26050603.08745  20188192.86944  26126295.5974   26126301.7964
     -6047.5004      -4712.3384
   4435360.75247   3458525.74447  23242699.5814   23242701.4334
     -1659.1414      -1292.8374
   1673697.79945   1287211.00245  25863716.5974   25863719.9604
     -1350.5624      -1052.3864
    535575.28546    457047.33445  24714383.0814   24714384.3234
      -978.7974       -762.6994
  -2658689.44346  -2011526.25246  24447536.4014   24447539.0264
        62.7344         48.8844
 98  6 29 20 13 45.0070000  0  7G 6G10G30G17G22G26G23
   8465670.85247   6596628.39547  22583566.7764   22583567.0934
     -2983.6094      -2324.8904
  24879965.20045  19386979.77143  26315248.1124   26315250.2574
     -5914.7974      -4608.9334
  26141320.26445  20258881.45244  26143558.6984   26143563.3744
     -6048.3284      -4712.9834
   4460268.46147   3477934.35947  23247439.4724   23247441.4174
     -1662.1414      -1295.1754
   1694017.23545   1303044.34445  25867583.6044   25867587.4364
     -1358.9374      -1058.9124
    550314.92446    468532.80145  24717188.4174   24717190.0464
      -986.7034       -768.8604
  -2659594.06946  -2012231.09846  24447364.4094   24447366.9644
        57.6724         44.9394
 98  6 29 20 14  0.0070000  0  7G 6G10G30G17G22G26G23
   8510479.21247   6631543.99346  22592093.4644   22592093.9684
     -2990.8444      -2330.5284
  24968699.18645  19456123.15543  26332133.9174   26332136.8234
     -5916.4374      -4610.2114
  26232051.71945  20329581.16145  26160824.1904   26160829.6864
     -6049.1874      -4713.6534
   4485224.68047   3497380.77047  23252188.2144   23252190.3584
     -1665.3914      -1297.7074
   1714465.39445   1318977.96845  25871474.3864   25871477.5974
     -1367.4694      -1065.5604
    565174.63846    480111.83145  24720015.5034   24720017.2844
      -994.6094       -775.0204
  -2660419.49646  -2012874.24846  24447207.1364   24447209.6674
        52.3914         40.8244
 98  6 29 20 14 15.0070000  0  7G 6G10G30G17G22G26G23
   8555397.03847   6666544.88846  22600641.1754   22600641.6904
     -2998.3754      -2336.3964
  25057458.61945  19525286.30443  26349024.1044   26349028.0074
     -5918.2504      -4611.6234
  26322794.89945  20400290.01644  26178092.0424   26178096.4134
     -6050.0164      -4714.2984
   4510231.50947   3516866.61447  23256946.8394   23256948.7374
     -1669.0624      -1300.5684
   1735040.86345   1335010.80645  25875389.6284   25875392.6754
     -1376.0474      -1072.2444
    580152.48746    491782.89745  24722865.4644   24722866.9644
     -1002.5784       -781.2304
  -2661165.92446  -2013455.83646  24447065.2614   24447067.7924
        46.9844         36.6114
 98  6 29 20 14 30.0070000  0  7G 6G10G30G17G22G26G23
   8600428.99147   6701634.71147  22609210.6204   22609211.0424
     -3005.8754      -2342.2404
  25146244.50045  19594470.06144  26365919.3474   26365924.3154
     -5919.8124      -4612.8414
  26413551.83045  20471009.56744  26195363.4794   26195368.2614
     -6050.8284      -4714.9314
   4535296.38247   3536397.69547  23261716.5734   23261718.5894
     -1672.9064      -1303.5634
   1755744.52145   1351143.55145  25879329.4564   25879332.3044
     -1384.4534      -1078.7954
    595251.10446    503548.09645  24725738.9644   24725740.7694
     -1010.5004       -787.4034
  -2661829.02346  -2013972.49146  24446939.0814   24446941.7764
        41.3914         32.2524
 98  6 29 20 14 45.0070000  0  7G 6G10G30G17G22G26G23
   8645572.01347   6736811.08247  22617800.9484   22617801.6284
     -3013.5004      -2348.1824
  25235050.20545  19663669.29944  26382818.9094   26382822.8944
     -5921.1564      -4613.8884
  26504316.60445  20541735.23144  26212634.9564   26212639.4214
     -6051.3444      -4715.3334
   4560416.23347   3555971.61247  23266496.7294   23266498.6984
     -1676.6874      -1306.5104
   1776572.67445   1367373.28045  25883293.2224   25883295.5774
     -1392.9374      -1085.4064
    610464.38246    515402.62845  24728633.8624   24728635.8194
     -1018.1564       -793.3694
  -2662409.39146  -2014424.68046  24446828.6284   24446831.2534
        35.6724         27.7964
 98  6 29 20 15  0.0070000  0  7G 6G10G30G17G22G26G23
   8690833.22147   6772079.54847  22626413.7924   22626414.4604
     -3021.2664      -2354.2334
  25323876.00045  19732884.16544  26399721.5424   26399725.0344
     -5922.2194      -4614.7164
  26595089.09445  20612466.93544  26229908.5114   26229913.3744
     -6051.5474      -4715.4914
   4585596.05247   3575592.25347  23271288.2694   23271289.9914
     -1680.5164      -1309.4934
   1797531.13345   1383704.55945  25887281.2224   25887284.3974
     -1401.4224      -1092.0174
    625794.64546    527348.31545  24731550.8784   24731553.8194
     -1025.8284       -799.3474
  -2662901.13946  -2014807.81546  24446734.7294   24446737.2374
        30.0314         23.4014
 98  6 29 20 15 15.0070000  0  7G 6G10G30G17G22G26G23
   8736213.97947   6807441.16347  22635049.7694   22635050.4604
     -3029.3444      -2360.5284
  25412719.72245  19802112.99244  26416628.0974   26416630.3944
     -5923.4694      -4615.6904
  26685866.14445  20683202.15844  26247182.6834   26247188.4834
     -6051.9224      -4715.7834
   4610835.40047   3595259.28447  23276091.1674   23276092.9484
     -1684.6094      -1312.6834
   1818617.91645   1400135.83545  25891294.2694   25891297.5034
     -1409.9694      -1098.6774
    641242.57546    539385.69045  24734490.7694   24734493.3004
     -1033.8124       -805.5684
  -2663307.60646  -2015124.50446  24446657.3784   24446659.7574
        24.2814         18.9204
 98  6 29 20 15 30.0070000  0  7G 6G10G30G17G22G26G23
   8781714.68447   6842896.24946  22643708.0424   22643708.5814
     -3037.2814      -2366.7134
  25501583.53645  19871357.51143  26433538.6204   26433542.8274
     -5924.9534      -4616.8474
  26776650.44045  20753943.05144  26264458.6904   26264463.7414
     -6052.5314      -4716.2584
   4636137.21947   3614974.99447  23280905.8234   23280907.7224
     -1688.8284      -1315.9704
   1839833.90945   1416667.79845  25895330.7614   25895333.8434
     -1418.6724      -1105.4594
    656811.83546    551517.60145  24737453.6204   24737455.7764
     -1042.0164       -811.9604
  -2663625.80446  -2015372.40846  24446596.7694   24446599.4404
        18.2344         14.2094
 98  6 29 20 15 45.0070000  0  7G 6G10G30G17G22G26G23
   8827331.30747   6878441.65846  22652388.6204   22652389.0074
     -3045.0164      -2372.7394
  25590467.40045  19940617.62244  26450452.0424   26450454.7724
     -5926.2974      -4617.8944
  26867441.74945  20824689.38744  26281735.4724   26281740.5814
     -6053.0164      -4716.6364
   4661498.25547   3634736.84747  23285731.7924   23285733.7374
     -1692.7344      -1319.0144
   1861176.89145   1433298.69645  25899392.5584   25899396.3314
     -1427.1414      -1112.0584
    672501.83546    563743.60645  24740439.0814   24740441.0854
     -1050.1094       -818.2674
  -2663855.42646  -2015551.29246  24446553.2844   24446556.4014
        12.2974          9.5824
 98  6 29 20 16  0.0070000  0  7G 6G10G30G17G22G26G23
   8873063.05147   6914076.77047  22661091.0974   22661091.5654
     -3052.6414      -2378.6814
  25679370.31745  20009892.59144  26467369.9404   26467371.5344
     -5927.4694      -4618.8074
  26958239.83045  20895440.98944  26299014.4254   26299019.3004
     -6053.4374      -4716.9644
   4686918.52747   3654544.85947  23290569.0114   23290570.9914
     -1696.6874      -1322.0944
   1882645.76745   1450027.71545  25903478.5194   25903482.0464
     -1435.4064      -1118.4984
    688312.50146    576063.63245  24743447.6834   24743450.0154
     -1058.0474       -824.4524
  -2663996.62246  -2015661.27146  24446525.8084   24446528.6084
         6.5314          5.0894
 98  6 29 20 16 15.0070000  0  7G 6G10G30G17G22G26G23
   8918909.78147   6949801.48647  22669815.4254   22669816.0584
     -3060.2194      -2384.5864
  25768287.92345  20079178.98243  26484290.5504   26484293.8904
     -5928.1254      -4619.3184
  27049042.47345  20966196.17644  26316293.5034   26316297.4764
     -6053.5004      -4717.0134
   4712396.03347   3674397.46747  23295417.2454   23295419.1794
     -1700.1874      -1324.8214
   1904236.73745   1466851.83445  25907586.3234   25907589.9564
     -1443.2974      -1124.6474
    704241.23746    588475.65945  24746478.7454   24746480.9954
     -1065.7344       -830.4424
  -2664054.24546  -2015706.13446  24446515.3544   24446518.1324
         1.2504          0.9744
 98  6 29 20 16 30.0080000  0  7G 6G10G30G17G22G26G23
   8964877.53147   6985620.50247  22678562.7344   22678563.3444
     -3068.5474      -2391.0754
  25857223.64445  20148479.53543  26501214.8914   26501219.0984
     -5929.2974      -4620.2314
  27139855.29945  21036959.28344  26333574.9304   26333580.4734
     -6054.1874      -4717.5494
   4737928.30647   3694292.74747  23300275.8754   23300277.9494
     -1703.9694      -1327.7684
   1925948.92445   1483770.44345  25911718.2194   25911721.8634
     -1451.5944      -1131.1124
    720289.16046    600980.56145  24749532.5394   24749534.7074
     -1073.9694       -836.8594
  -2664030.78346  -2015687.81146  24446519.4304   24446522.3944
        -4.5164         -3.5194
 98  6 29 20 16 45.0080000  0  7G 6G10G30G17G22G26G23
   9010960.83247   7021529.55847  22687332.2114   22687332.7854
     -3076.0784      -2396.9444
  25946164.84645  20217784.30443  26518139.0624   26518142.6134
     -5929.7034      -4620.5484
  27230665.09245  21107720.01143  26350855.3914   26350861.0394
     -6053.8754      -4717.3054
   4763506.87447   3714224.10347  23305143.5234   23305145.5624
     -1706.6094      -1329.8254
   1947778.21945   1500780.28445  25915871.3054   25915873.9534
     -1459.1254      -1136.9814
    736451.80146    613574.85445  24752608.3914   24752611.2504
     -1081.2034       -842.4964
  -2663928.09546  -2015607.75046  24446539.1174   24446541.7894
        -9.2974         -7.2444
 98  6 29 20 17  0.0080000  0  7G 6G10G30G17G22G26G23
   9057164.26647   7057532.22347  22696124.4694   22696125.0554
     -3084.3444      -2403.3854
  26035119.40045  20287099.50243  26535066.3914   26535069.7194
     -5931.0164      -4621.5714
  27321475.06645  21178480.91543  26368135.8204   26368142.8674
     -6054.1874      -4717.5494
   4789129.89947   3734190.10647  23310019.6094   23310021.4844
     -1709.8124      -1332.3214
   1969726.08845   1517882.53945  25920048.9694   25920052.0624
     -1467.2664      -1143.3244
    752730.21746    626259.35345  24755705.9924   24755707.8204
     -1089.3124       -848.8154
  -2663749.51346  -2015468.55546  24446573.1024   24446575.7154
       -14.5784        -11.3604
 98  6 29 20 17 15.0080000  0  7G 6G10G30G17G22G26G23
   9103488.95147   7093629.37246  22704939.9374   22704940.3364
     -3092.3124      -2409.5944
  26124094.15345  20356430.46343  26551998.4454   26552002.4774
     -5932.3594      -4622.6184
  27412289.11245  21249244.97244  26385417.4924   26385423.6564
     -6054.4064      -4717.7194
   4814798.51347   3754191.62447  23314904.1174   23314905.7234
     -1712.7034      -1334.5744
   1991794.88945   1535079.00645  25924248.7194   25924252.8794
     -1475.3124      -1149.5944
    769130.10246    639038.51445  24758826.6954   24758828.4184
     -1097.4064       -855.1224
  -2663492.48946  -2015268.23946  24446621.9144   24446624.4454
       -19.7664        -15.4024
 98  6 29 20 17 30.0080000  0  7G 6G10G30G17G22G26G23
   9149931.87247   7129818.65546  22713777.6644   22713778.0274
     -3099.9844      -2415.5724
  26213088.26445  20425776.48943  26568933.2274   26568938.6294
     -5933.4064      -4623.4334
  27503105.16745  21320010.59643  26402699.5944   26402705.1484
     -6054.2814      -4717.6224
   4840509.12247   3774225.87447  23319796.9304   23319798.4304
     -1715.3124      -1336.6074
   2013984.44945   1552369.57945  25928471.1644   25928474.5044
     -1483.2194      -1155.7554
    785650.89946    651911.87645  24761970.3754   24761971.9574
     -1105.2814       -861.2584
  -2663156.95446  -2015006.74446  24446685.8754   24446688.4414
       -24.9224        -19.4204
 98  6 29 20 17 45.0080000  0  7G 6G10G30G17G22G26G23
   9196488.95447   7166096.89047  22722637.2114   22722637.6914
     -3107.8754      -2421.7214
  26302096.69545  20495133.66843  26585870.7034   26585874.4304
     -5934.6094      -4624.3714
  27593917.72145  21390773.45443  26419980.4844   26419986.1684
     -6054.1724      -4717.5374
   4866258.39847   3794290.24847  23324696.4064   23324698.0234
     -1718.1094      -1338.7874
   2036292.72045   1569752.66745  25932716.1024   25932718.9964
     -1491.4224      -1162.1474
    802287.86346    664875.77245  24765136.4924   24765138.1804
     -1113.2344       -867.4554
  -2662744.64546  -2014685.43346  24446764.2274   24446766.9224
       -30.2664        -23.5844
 98  6 29 20 18  0.0080000  0  7G 6G10G30G17G22G26G23
   9243165.03847   7202467.85247  22731519.2664   22731519.7464
     -3115.6414      -2427.7724
  26391123.11744  20564504.88443  26602812.1254   26602817.8914
     -5935.6724      -4625.1994
  27684725.71645  21461532.82043  26437260.9224   26437267.0394
     -6053.5784      -4717.0744
   4892050.14747   3814387.71847  23329604.5864   23329606.3554
     -1720.9064      -1340.9664
   2058723.90045   1587231.51345  25936984.5164   25936987.7734
     -1499.4844      -1168.4294
    819042.35546    677931.24645  24768324.7424   24768326.2544
     -1120.7814       -873.3364
  -2662252.74946  -2014302.09846  24446857.8754   24446860.2074
       -35.4224        -27.6014
 98  6 29 20 18 15.0080000  0  7G 6G10G30G17G22G26G23
   9289959.69147   7238931.20647  22740424.0944   22740424.5624
     -3123.8124      -2434.1404
  26480168.53745  20633890.86443  26619757.4454   26619763.1874
     -5937.1874      -4626.3804
  27775526.19245  21532286.30443  26454539.4844   26454547.1174
     -6053.2974      -4716.8554
   4917886.87947   3834520.24647  23334521.1024   23334522.9064
     -1724.0784      -1343.4374
   2081278.06045   1604806.18945  25941275.7424   25941279.2234
     -1507.8594      -1174.9554
    835911.93846    691076.40645  24771534.8914   24771536.9884
     -1128.6564       -879.4724
  -2661679.73946  -2013855.55646  24446966.8364   24446969.6254
       -41.1414        -32.0584
 98  6 29 20 18 30.0080000  0  7G 6G10G30G17G22G26G23
   9336878.01747   7275490.93047  22749352.1644   22749352.6914
     -3132.0004      -2440.5194
  26569239.37844  20703296.66443  26636706.5944   26636711.3634
     -5939.0474      -4627.8294
  27866323.31845  21603037.17444  26471817.8914   26471825.1604
     -6053.0784      -4716.6844
   4943771.11547   3854689.78047  23339446.6174   23339448.3284
     -1727.2344      -1345.8974
   2103959.61245   1622480.13245  25945593.0004   25945596.0474
     -1516.4064      -1181.6154
    852902.52446    704315.83145  24774767.9224   24774769.7384
     -1136.8444       -885.8524
  -2661018.44446  -2013340.23446  24447092.5624   24447094.9304
       -47.1254        -36.7214
 98  6 29 20 18 45.0080000  0  7G 6G10G30G17G22G26G23
   9383916.30647   7312144.13447  22758303.3754   22758304.0314
     -3139.8124      -2446.6074
  26658337.30744  20772723.60443  26653661.2114   26653665.4654
     -5940.6874      -4629.1074
  27957115.52245  21673784.17243  26489095.0394   26489102.0044
     -6052.5624      -4716.2824
   4969701.58547   3874895.34647  23344381.0234   23344382.7114
     -1730.2194      -1348.2224
   2126765.83845   1640251.23845  25949932.2584   25949935.3874
     -1524.5004      -1187.9224
    870013.76146    717649.29445  24778024.3914   24778026.2894
     -1144.7504       -892.0134
  -2660268.19446  -2012755.58146  24447235.2974   24447237.6414
       -52.9844        -41.2874
 98  6 29 20 19  0.0080000  0  7G 6G10G30G17G22G26G23
   9431073.41847   7348889.92647  22767276.9224   22767277.4024
     -3147.5784      -2452.6584
  26747461.44744  20842170.91243  26670620.3674   26670625.2774
     -5942.2974      -4630.3614
  28047901.35145  21744526.25043  26506371.2814   26506377.6564
     -6052.0314      -4715.8694
   4995679.09847   3895137.56947  23349324.3754   23349325.9804
     -1733.2664      -1350.5974
   2149696.26545   1658119.11745  25954295.6874   25954298.9804
     -1532.7034      -1194.3144
    887248.05646    731078.65145  24781303.5234   24781305.8674
     -1152.9374       -898.3934
  -2659427.80846  -2012100.70446  24447395.3594   24447397.6334
       -58.8594        -45.8644
 98  6 29 20 19 15.0080000  0  7G 6G10G30G17G22G26G23
   9478343.30647   7385723.59146  22776272.2664   22776272.9574
     -3154.9694      -2458.4174
  26836607.43545  20911635.30243  26687585.1954   26687590.7974
     -5943.7504      -4631.4944
  28138679.48845  21815262.31343  26523645.6564   26523651.0124
     -6051.7034      -4715.6134
   5021702.11747   3915415.25047  23354276.3984   23354278.0864
     -1736.4374      -1353.0684
   2172748.17245   1676081.64745  25958682.6024   25958686.0594
     -1540.8914      -1200.6944
    904603.46246    744602.35045  24784606.1724   24784608.3634
     -1161.0314       -904.7004
  -2658500.37246  -2011377.98946  24447571.4374   24447573.5944
       -64.7504        -50.4554
 98  6 29 20 19 30.0080000  0  7G 6G10G30G17G22G26G23
   9525722.65447   7422642.55246  22785287.9614   22785288.7234
     -3162.4374      -2464.2374
  26925773.47945  20981115.29643  26704552.7974   26704558.3054
     -5945.1254      -4632.5654
  28229451.36445  21885993.48943  26540919.7034   26540924.4264
     -6051.3754      -4715.3574
   5047771.97247   3935729.43447  23359237.3204   23359239.1484
     -1739.6874      -1355.6014
   2195922.37545   1694139.45745  25963092.0474   25963095.0004
     -1549.1094      -1207.0984
    922077.70446    758218.67245  24787931.3914   24787933.9344
     -1169.0164       -910.9214
  -2657486.75746  -2010588.13246  24447764.7894   24447767.0864
       -70.4844        -54.9234
 98  6 29 20 19 45.0080000  0  7G 6G10G30G17G22G26G23
   9573214.36247   7459649.06947  22794325.4224   22794326.1724
     -3169.8754      -2470.0324
  27014959.43345  21050610.78643  26721525.1724   26721529.6254
     -5946.4534      -4633.6004
  28320218.80345  21956721.22943  26558191.8524   26558195.9304
     -6051.0314      -4715.0894
   5073891.92547   3956082.64647  23364207.7894   23364209.6874
     -1743.1094      -1358.2674
   2219218.95245   1712292.64245  25967525.7814   25967528.2074
     -1557.1724      -1213.3814
    939671.33546    771928.01645  24791279.2504   24791281.7234
     -1176.9694       -917.1194
  -2656388.28746  -2009732.14546  24447973.5944   24447976.0664
       -76.0784        -59.2824
 98  6 29 20 20  0.0080000  0  7G 6G10G30G17G22G26G23
   9620815.33047   7496740.72746  22803383.6334   22803384.2774
     -3176.9694      -2475.5604
  27104164.06045  21120120.88043  26738499.9844   26738504.8364
     -5947.4844      -4634.4034
  28410979.55345  22027443.72743  26575462.8674   26575468.7734
     -6050.4064      -4714.6024
   5100061.38947   3976474.43747  23369187.7894   23369189.5944
     -1746.1414      -1360.6294
   2242634.23745   1730538.32545  25971981.4534   25971984.0434
     -1564.8754      -1219.3834
    957383.37446    785729.62645  24794649.7974   24794651.8124
     -1184.7034       -923.1454
  -2655207.06546  -2008811.67546  24448198.0944   24448200.5084
       -81.4694        -63.4824
 98  6 29 20 20 15.0080000  0  7G 6G10G30G17G22G26G23
   9668526.20047   7533918.01746  22812462.7894   22812463.4454
     -3184.3284      -2481.2954
  27193385.99445  21189644.41543  26755478.1564   26755482.6094
     -5948.5784      -4635.2564
  28501734.04845  22098161.35644  26592733.7344   26592739.0784
     -6049.9844      -4714.2744
   5126279.09447   3996903.82747  23374176.9064   23374178.6644
     -1749.3444      -1363.1254
   2266168.09645   1748876.38945  25976459.9064   25976462.3324
     -1572.7664      -1225.5324
    975216.06946    799625.25645  24798043.5234   24798045.6914
     -1192.8444       -929.4894
  -2653941.61146  -2007825.57246  24448438.9304   24448441.2854
       -87.0784        -67.8534
 98  6 29 20 20 30.0080000  0  7G 6G10G30G17G22G26G23
   9716350.58447   7571183.76046  22821563.4774   22821563.9454
     -3192.1254      -2487.3704
  27282625.44445  21259181.60043  26772460.3284   26772463.0474
     -5949.8444      -4636.2424
  28592485.55145  22168876.67444  26610002.9224   26610008.6174
     -6050.0624      -4714.3344
   5152545.62847   4017371.26047  23379175.2114   23379177.1094
     -1752.7194      -1365.7554
   2289822.84045   1767308.67045  25980961.2584   25980964.4694
     -1581.1254      -1232.0454
    993175.37346    813619.54745  24801460.5084   24801463.0274
     -1201.6564       -936.3564
  -2652589.90046  -2006772.26246  24448696.2734   24448699.0044
       -92.9534        -72.4314
 98  6 29 20 20 45.0080000  0  7G 6G10G30G17G22G26G23
   9764283.26747   7608533.89147  22830684.5784   22830685.1994
     -3199.0314      -2492.7524
  27371875.33745  21328726.93843  26789443.5164   26789447.7584
     -5950.2344      -4636.5464
  28683230.57545  22239586.95843  26627271.1334   26627275.7974
     -6049.4064      -4713.8234
   5178856.12847   4037872.95847  23384181.9844   23384183.7774
     -1755.5004      -1367.9224
   2313597.47545   1785834.36745  25985485.4144   25985489.0474
     -1588.9694      -1238.1574
   1011259.45646    827711.05945  24804901.8444   24804904.1764
     -1209.6094       -942.5534
  -2651159.03146  -2005657.26446  24448968.5314   24448971.3914
       -97.9064        -76.2914
 98  6 29 20 21  0.0080000  0  7G 6G10G30G17G22G26G23
   9812325.92347   7645969.71646  22839826.7664   22839827.2694
     -3206.5624      -2498.6204
  27461135.14145  21398280.00043  26806429.4144   26806433.1414
     -5950.9224      -4637.0824
  28773970.53745  22310293.28543  26644538.6094   26644545.3714
     -6049.1724      -4713.6404
   5205214.58147   4058412.01847  23389197.5704   23389199.3404
     -1758.8444      -1370.5284
   2337496.45845   1804456.95545  25990032.8364   25990036.5274
     -1597.5474      -1244.8424
   1029467.47846    841899.14945  24808366.9844   24808369.4224
     -1218.0164       -949.1034
  -2649648.69146  -2004480.34646  24449255.7734   24449258.7154
      -103.3754        -80.5524
 98  6 29 20 21 15.0080000  0  7G 6G10G30G17G22G26G23
   9860481.24747   7683493.33746  22848990.3054   22848990.9144
     -3213.8444      -2504.2944
  27550406.69345  21467842.22243  26823416.6414   26823418.6564
     -5951.6564      -4637.6544
  28864708.06245  22380997.70644  26661805.4304   26661811.8634
     -6048.8444      -4713.3854
   5231623.26447   4078990.22147  23394223.1174   23394224.8754
     -1762.0474      -1373.0244
   2361526.98945   1823182.02645  25994606.4694   25994609.6094
     -1606.2344      -1251.6114
   1047801.22346    856185.21745  24811855.9774   24811858.0514
     -1226.1094       -955.4104
  -2648056.78146  -2003239.86746  24449558.7894   24449561.1214
      -108.6094        -84.6314
 98  6 29 20 21 30.0080000  0  7G 6G10G30G17G22G26G23
   9908741.48747   7721098.70846  22858174.0554   22858174.5824
     -3221.0164      -2509.8824
  27639685.01545  21537409.68943  26840406.5314   26840410.1174
     -5952.2034      -4638.0804
  28955435.33445  22451694.12743  26679070.2504   26679076.0514
     -6048.2194      -4712.8984
   5258076.06247   4099602.79147  23399256.9534   23399258.5234
     -1765.0784      -1375.3864
   2385682.36445   1842004.42145  25999202.6724   25999205.1214
     -1614.6254      -1258.1494
   1066249.88646    870560.81045  24815366.0784   24815367.9774
     -1233.8754       -961.4614
  -2646389.73346  -2001940.83246  24449875.8834   24449878.4264
      -113.8284        -88.6974
 98  6 29 20 21 45.0080000  0  7G 6G10G30G17G22G26G23
   9957108.72047   7758787.45247  22867378.2664   22867379.0394
     -3228.2504      -2515.5194
  27728966.48845  21606979.63643  26857395.6874   26857401.1484
     -5952.2974      -4638.1534
  29046149.46945  22522380.33844  26696333.2424   26696339.4774
     -6047.2664      -4712.1554
   5284570.10047   4120247.50447  23404298.5944   23404300.1874
     -1767.7814      -1377.4924
   2409960.00745   1860922.06445  26003822.3834   26003825.1024
     -1622.7194      -1264.4564
   1084813.49646    885025.98645  24818898.6174   24818901.1024
     -1241.6414       -967.5124
  -2644645.43346  -2000581.60646  24450207.8284   24450210.4774
      -119.0944        -92.8004
 98  6 29 20 22  0.0080000  0  7G 6G10G30G17G22G26G23
  10005586.50947   7796562.34047  22876603.1334   22876603.7774
     -3235.5944      -2521.2424
  27818251.57245  21676552.39643  26874385.9454   26874390.5984
     -5952.5164      -4638.3244
  29136850.27645  22593056.11244  26713592.3674   26713599.1294
     -6046.3284      -4711.4254
   5311108.05047   4140926.43447  23409348.5864   23409350.0044
     -1770.7504      -1379.8054
   2434363.12545   1879937.47845  26008466.6564   26008469.2814
     -1631.1874      -1271.0554
   1103497.22246    899584.76145  24822454.2034   24822456.8524
     -1249.6254       -973.7344
  -2642817.04246  -1999156.85746  24450555.7114   24450558.2304
      -124.8594        -97.2934
 98  6 29 20 22 15.0080000  0  7G 6G10G30G17G22G26G23
  10054175.40047   7834423.80547  22885849.3984   22885849.8094
     -3243.2974      -2527.2444
  27907540.38445  21746128.06143  26891377.0164   26891382.0194
     -5952.9844      -4638.6894
  29227537.92945  22663721.66744  26730849.5944   26730856.9454
     -6045.7194      -4710.9504
   5337690.84947   4161640.31147  23414407.2734   23414408.8444
     -1773.9534      -1382.3014
   2458894.96545   1899053.21645  26013134.2664   26013137.6994
     -1640.0474      -1277.9594
   1122300.71546    914236.85045  24826032.5624   24826035.0474
     -1257.7974       -980.1014
  -2640902.06546  -1997664.63046  24450920.0944   24450922.7664
      -130.7664       -101.8954
 98  6 29 20 22 30.0080000  0  7G 6G10G30G17G22G26G23
  10102873.38747   7872370.27946  22895116.4694   22895117.0194
     -3249.9224      -2532.4074
  27996829.62645  21815704.06043  26908368.5944   26908372.1094
     -5952.4694      -4638.2874
  29318210.41745  22734375.42143  26748104.3124   26748111.7114
     -6044.1094      -4709.6964
   5364315.64447   4182386.91147  23419473.7814   23419475.5164
     -1776.2034      -1384.0544
   2483552.77445   1918267.09445  26017826.6484   26017829.6024
     -1647.8124      -1284.0104
   1141219.11946    928978.48445  24829632.4924   24829634.8484
     -1264.8594       -985.6054
  -2638907.08246  -1996110.06746  24451299.4144   24451301.9574
      -135.3754       -105.4874
 98  6 29 20 22 45.0080000  0  7G 6G10G30G17G22G26G23
  10151678.01447   7910399.84647  22904403.6724   22904404.2694
     -3257.2504      -2538.1174
  28086120.47844  21885281.30243  26925360.3674   26925363.5784
     -5952.8914      -4638.6164
  29408867.91545  22805017.46843  26765356.2344   26765362.8554
     -6043.4534      -4709.1844
   5390981.93347   4203165.85047  23424547.9614   23424549.6374
     -1779.2194      -1386.4044
   2508335.76645   1937578.52045  26022542.7504   26022545.6214
     -1656.5004      -1290.7794
   1160251.40646    943808.86145  24833254.0004   24833255.4654
     -1272.6254       -991.6564
  -2636835.12746  -1994495.52446  24451694.1174   24451696.4964
      -140.7974       -109.7124
 98  6 29 20 23  0.0080000  0  8G21G 6G10G30G17G22G26G23
     -7854.57354                  27402606.9454
       713.4224
  10200591.54547   7948514.27547  22913711.6484   22913712.0234
     -3264.5784      -2543.8274
  28175417.27944  21954863.22043  26942352.2664   26942356.0394
     -5953.2814      -4638.9204
  29499514.05945  22875650.70243  26782605.4454   26782612.2894
     -6042.6564      -4708.5634
   5417692.50147   4223979.28047  23429630.9694   23429632.4804
     -1782.1094      -1388.6574
   2533247.40245   1956990.18045  26027283.3594   26027286.0434
     -1664.9374      -1297.3544
   1179396.89646    958727.45345  24836897.7424   24836899.2074
     -1280.0784       -997.4634
  -2634682.18046  -1992817.87446  24452103.8124   24452106.2624
      -146.2034       -113.9254
 98  6 29 20 23 15.0080000  0  8G21G 6G10G30G17G22G26G23
    -18541.46544                  27400572.9614
       711.8594
  10249618.78547   7986717.30947  22923041.2504   22923041.5784
     -3272.0164      -2549.6234
  28264721.54245  22024450.91043  26959347.4694   26959351.7584
     -5953.6254      -4639.1884
  29590149.71545  22946275.72043  26799852.7974   26799859.7974
     -6041.7344      -4707.8454
   5444447.13047   4244827.05847  23434722.2584   23434724.0044
     -1784.8124      -1390.7634
   2558286.56245   1976501.22145  26032048.0474   26032050.6374
     -1673.2504      -1303.8314
   1198657.61046    973735.81845  24840562.7504   24840564.4374
     -1287.6724      -1003.3814
  -2632445.90246  -1991075.28446  24452529.1644   24452531.4264
      -151.5784       -118.1134
 98  6 29 20 23 30.0080000  0  8G21G 6G10G30G17G22G26G23
    -29202.98344                  27398544.1414
       709.8914
  10298759.41947   8025008.69746  22932392.3124   22932392.9454
     -3279.8914      -2555.7594
  28354033.30444  22094044.47142  26976341.9224   26976348.3794
     -5954.3124      -4639.7244
  29680773.10345  23016891.16943  26817098.5084   26817103.8874
     -6041.1414      -4707.3824
   5471244.81647   4265708.36747  23439821.4224   23439823.0984
     -1788.0004      -1393.2474
   2583450.61445   1996109.59745  26036836.4534   26036839.6524
     -1681.7034      -1310.4184
   1218034.39746    988834.63345  24844250.0394   24844252.4064
     -1295.6874      -1009.6274
  -2630127.25646  -1989268.52146  24452970.3914   24452972.8524
      -157.3754       -122.6304
 98  6 29 20 23 45.0080000  0  8G21G 6G10G30G17G22G26G23
    -39838.85344                  27396520.4304
       708.1724
  10348016.73947   8063391.01747  22941765.6564   22941766.2894
     -3287.8754      -2561.9814
  28443351.86145  22163643.26543  26993339.2894   26993343.0044
     -5954.9064      -4640.1874
  29771385.21945  23087497.89043  26834341.0164   26834347.9224
     -6040.5474      -4706.9204
   5498087.63747   4286624.86047  23444929.6564   23444931.1094
     -1791.1414      -1395.6944
   2608737.79345   2015813.87345  26041649.1804   26041652.1444
     -1690.0474      -1316.9204
   1237530.08646   1004026.10545  24847959.7344   24847962.1604
     -1303.9374      -1016.0554
  -2627724.11446  -1987395.90646  24453428.0784   24453430.3054
      -163.1414       -127.1234
 98  6 29 20 24  0.0080000  0  8G21G 6G10G30G17G22G26G23
    -50448.85344     -6612.26452  27394501.4454   27394512.1254
       706.7194        550.6904
  10397394.64447   8101867.29847  22951161.7734   22951162.4414
     -3295.6254      -2568.0194
  28532679.66344  22233249.34843  27010337.8594   27010341.6564
     -5955.3594      -4640.5404
  29861988.45545  23158097.63743  26851582.5314   26851588.0744
     -6039.7194      -4706.2744
   5524978.46147   4307578.75347  23450046.7974   23450048.1094
     -1794.1564      -1398.0444
   2634151.42045   2035616.70945  26046484.8594   26046488.0824
     -1698.2664      -1323.3244
   1257152.41746   1019316.26345  24851693.7734   24851696.0354
     -1312.2034      -1022.4964
  -2625235.14146  -1985456.40846  24453901.5164   24453903.8244
      -168.4694       -131.2744
 98  6 29 20 24 15.0080000  0  8G21G 6G10G30G17G22G26G23
    -61032.65344    -14859.25242  27392487.4374   27392497.2504
       704.8134        549.2054
  10446892.68147   8140437.18647  22960581.1644   22960581.8794
     -3303.8444      -2574.4244
  28622021.48544  22302866.34842  27027338.1254   27027342.6954
     -5956.5944      -4641.5024
  29952584.31845  23228691.68843  26868822.2114   26868828.8554
     -6039.4534      -4706.0674
   5551920.67747   4328572.69347  23455173.7504   23455175.2624
     -1797.8284      -1400.9054
   2659693.62645   2055519.71845  26051345.8444   26051348.3404
     -1706.9694      -1330.1064
   1276902.21446   1034705.73345  24855451.8834   24855454.1564
     -1320.8284      -1029.2174
  -2622663.67146  -1983452.63646  24454390.6174   24454392.8554
      -174.0314       -135.6094
 98  6 29 20 24 30.0080000  0  8G21G 6G10G30G17G22G26G23
    -71587.41044    -23083.60042  27390478.6414   27390485.3554
       702.6724        547.5374
  10496516.24647   8179104.89147  22970024.1564   22970024.9884
     -3312.4844      -2581.1574
  28711382.69444  22372498.38243  27044344.0314   27044349.1054
     -5958.0474      -4642.6344
  30043178.07945  23299284.07543  26886061.9614   26886068.7934
     -6039.5314      -4706.1284
   5578918.25347   4349609.77147  23460311.0624   23460312.5864
     -1801.6874      -1403.9124
   2685365.10645   2075523.46945  26056230.5004   26056233.4534
     -1715.7504      -1336.9484
   1296783.87146   1050197.95545  24859235.2894   24859237.5864
     -1329.9374      -1036.3154
  -2620008.96546  -1981384.00846  24454895.7274   24454897.9184
      -179.7814       -140.0894
 98  6 29 20 24 45.0080000  0  8G21G 6G10G30G17G22G26G23
    -82117.01544    -31288.38042  27388474.4534   27388482.1094
       701.3594        546.5144
  10546263.90047   8217869.28346  22979490.9304   22979491.5514
     -3320.5314      -2587.4274
  28800760.53744  22442143.42542  27061351.2034   27061355.2234
     -5958.9534      -4643.3404
  30133766.40045  23369872.21743  26903300.8124   26903309.0664
     -6038.8594      -4705.6054
   5605968.66747   4370688.01947  23465458.4694   23465460.1564
     -1805.0004      -1406.4944
   2711163.33445   2095626.01345  26061140.0944   26061142.6954
     -1724.0474      -1343.4134
   1316797.41746   1065792.95645  24863043.6954   24863046.0514
     -1338.5784      -1043.0484
  -2617272.00546  -1979251.27846  24455416.6874   24455419.1254
      -185.1564       -144.2784
 98  6 29 20 25  0.0080000  0  8G21G 6G10G30G17G22G26G23
    -92629.50043    -39479.77142  27386474.2584   27386481.8674
       700.5004        545.8444
  10596132.26347   8256727.73646  22988980.5624   22988981.2194
     -3328.4224      -2593.5754
  28890150.26344  22511797.67842  27078361.5314   27078366.9694
     -5959.4224      -4643.7054
  30224344.36545  23440452.33143  26920537.0004   26920544.1524
     -6037.9534      -4704.8994
   5633067.02747   4391803.62947  23470615.2664   23470616.9534
     -1807.9374      -1408.7824
   2737086.65545   2115825.97945  26066072.6954   26066075.6134
     -1732.1564      -1349.7324
   1336939.07446   1081487.77845  24866876.4304   24866879.0194
     -1346.7664      -1049.4284
  -2614453.16546  -1977054.74946  24455953.1254   24455955.2584
      -190.4534       -148.4054
 98  6 29 20 25 15.0080000  0  8G21G 6G10G30G17G22G26G23
   -103124.78443    -47657.75942  27384476.3054   27384484.9804
       698.6414        544.3954
  10646122.59847   8295681.23047  22998493.2814   22998493.8094
     -3337.1564      -2600.3814
  28979548.63744  22581458.71742  27095373.1644   27095377.3014
     -5960.5624      -4644.5944
  30314909.85345  23511022.69543  26937771.2034   26937779.1644
     -6037.6874      -4704.6924
   5660213.87947   4412957.02447  23475781.1024   23475782.8124
     -1811.9224      -1411.8874
   2763132.95345   2136121.81145  26071029.0314   26071031.6914
     -1740.9064      -1356.5504
   1357207.89646   1097281.68645  24870733.3364   24870735.3284
     -1356.0164      -1056.6364
  -2611552.64446  -1974794.57846  24456504.9694   24456507.6174
      -196.5004       -153.1174
 98  6 29 20 25 30.0080000  0  8G21G 6G10G30G17G22G26G23
   -113600.42844    -55820.49242  27382483.3054   27382489.3284
       697.5944        543.5804
  10696231.59647   8334727.19347  23008028.7344   23008029.5784
     -3344.4374      -2606.0554
  29068953.86044  22651125.11143  27112387.8054   27112391.4144
     -5960.5784      -4644.6064
  30405460.19245  23581581.25743  26955002.2584   26955009.5044
     -6036.1414      -4703.4864
   5687411.35947   4434149.86947  23480956.6954   23480958.3124
     -1814.8754      -1414.1884
   2789299.86045   2156511.61545  26076008.3124   26076010.5984
     -1748.4534      -1362.4314
   1377606.18046   1113176.47645  24874615.3054   24874617.3324
     -1364.1414      -1062.9674
  -2608572.37946  -1972472.25346  24457072.1484   24457074.7274
      -201.3444       -156.8914
 98  6 29 20 25 45.0080000  0  8G21G 6G10G30G17G22G26G23
   -124049.68844    -63962.64242  27380494.5084   27380503.1844
       695.8594        542.2284
  10746457.78747   8373864.48047  23017586.5164   23017587.2424
     -3352.1724      -2612.0824
  29158366.95444  22720797.60442  27129402.0554   27129405.3944
     -5960.9064      -4644.8624
  30495997.05044  23652129.28443  26972230.9844   26972237.0904
     -6035.1874      -4702.7444
   5714662.10347   4455384.21547  23486142.4144   23486143.9024
     -1818.2974      -1416.8554
   2815588.04145   2176995.90845  26081010.6644   26081013.5124
     -1756.4224      -1368.6404
   1398135.02446   1129172.99745  24878521.7114   24878523.5044
     -1372.8284      -1069.7364
  -2605508.63246  -1970084.88746  24457654.9144   24457657.2464
      -206.9374       -161.2504
 98  6 29 20 26  0.0080000  0  8G21G 6G10G30G17G22G26G23
   -134476.00744    -72086.90142  27378510.9064   27378520.3914
       694.3594        541.0594
  10796795.49947   8413088.66247  23027165.3834   23027166.2504
     -3359.4374      -2617.7444
  29247783.00944  22790472.42042  27146417.3594   27146422.3524
     -5961.1724      -4645.0694
  30586516.75744  23722663.95543  26989456.8204   26989464.8524
     -6034.0314      -4701.8434
   5741960.35747   4476655.58347  23491336.8834   23491338.4184
     -1821.3754      -1419.2534
   2841993.56445   2197571.65345  26086035.7814   26086039.3324
     -1764.2814      -1374.7654
   1418792.50346   1145269.75945  24882452.3054   24882454.1214
     -1381.4064      -1076.4204
  -2602364.07946  -1967634.56146  24458253.1564   24458255.4884
      -212.2814       -165.4144
 98  6 29 20 26 15.0080000  0  8G21G 6G10G30G17G22G26G23
   -144882.22943    -80195.54542  27376529.8754   27376537.7664
       693.0784        540.0614
  10847236.07247   8452392.98947  23036763.9064   23036764.7384
     -3366.0944      -2622.9304
  29337197.27944  22860145.86442  27163432.0004   27163440.1254
     -5960.8754      -4644.8384
  30677013.38744  23793180.63242  27006678.4304   27006684.8054
     -6032.3444      -4700.5284
   5769299.25747   4497958.62747  23496539.0474   23496540.4184
     -1823.9844      -1421.2874
   2868513.07445   2218236.22245  26091082.1094   26091085.9414
     -1771.7974      -1380.6214
   1439573.23046   1161462.55445  24886406.9064   24886408.8284
     -1389.3914      -1082.6424
  -2599143.09146  -1965124.67046  24458866.3364   24458868.7154
      -217.3124       -169.3344
 98  6 29 20 26 30.0080000  0  8G21G 6G10G30G17G22G26G23
   -155266.06943    -88286.67342  27374554.0314   27374561.1024
       691.3284        538.6974
  10897780.52647   8491778.26747  23046382.5004   23046383.1214
     -3373.2814      -2628.5314
  29426610.37444  22929818.37242  27180446.9534   27180453.1414
     -5960.9374      -4644.8864
  30767489.64144  23863681.46043  27023894.5704   27023901.6414
     -6031.1874      -4699.6274
   5796680.97247   4519295.02847  23501749.4694   23501751.1444
     -1826.9224      -1423.5754
   2895149.43045   2238991.82945  26096151.4224   26096154.6914
     -1779.8284      -1386.8794
   1460474.94646   1177749.62845  24890384.6804   24890386.5784
     -1397.6094      -1089.0464
  -2595840.53846  -1962551.22046  24459494.8124   24459497.3794
      -223.1564       -173.8884
 98  6 29 20 26 45.0080000  0  8G21G 6G10G30G17G22G26G23
   -165624.90943    -96358.37242  27372582.5784   27372588.9184
       689.6884        537.4194
  10948431.25247   8531246.36047  23056020.7734   23056021.2424
     -3380.3594      -2634.0464
  29516022.79344  22999490.30342  27197461.8674   27197466.8364
     -5960.9374      -4644.8864
  30857946.82844  23934167.44743  27041108.6484   27041116.5864
     -6029.9534      -4698.6654
   5824102.85047   4540662.73047  23506968.1254   23506969.7894
     -1829.5164      -1425.5974
   2921907.06145   2259841.92645  26101242.6804   26101246.6524
     -1788.1254      -1393.3444
   1481498.81946   1194131.88845  24894385.0624   24894386.7274
     -1405.6724      -1095.3294
  -2592450.22646  -1959909.38946  24460139.8284   24460142.2074
      -229.0944       -178.5154
 98  6 29 20 27  0.0090000  0  8G21G 6G10G30G17G22G26G23
   -175959.22944   -104410.95442  27370615.4584   27370623.4074
       687.8914        536.0194
  10999192.18447   8570800.32247  23065680.3104   23065680.8134
     -3387.5164      -2639.6234
  29605441.67344  23069167.33042  27214477.6304   27214482.4704
     -5961.0314      -4644.9594
  30948391.52444  24004643.69243  27058319.6694   27058327.0324
     -6028.8124      -4697.7764
   5851564.75247   4562061.61847  23512193.9744   23512195.6024
     -1832.0474      -1427.5694
   2948792.41945   2280791.56745  26106358.2634   26106360.7124
     -1796.5474      -1399.9074
   1502643.84246   1210608.54545  24898408.7634   24898410.9074
     -1413.7344      -1101.6114
  -2588969.69346  -1957197.26046  24460802.1534   24460804.3564
      -235.1724       -183.2514
 98  6 29 20 27 15.0090000  0  8G21G 6G10G30G17G22G26G23
   -186262.43644   -112439.29742  27368655.2394   27368662.6964
       685.7974        534.3874
  11050058.39647   8610436.32247  23075359.5994   23075360.2904
     -3394.7194      -2645.2354
  29694858.05344  23138842.40543  27231493.0524   27231497.4584
     -5961.2664      -4645.1424
  31038815.89044  24075104.06143  27075526.8174   27075535.6224
     -6027.8594      -4697.0334
   5879064.83047   4583490.25647  23517427.1694   23517428.7744
     -1834.7814      -1429.7004
   2975803.28545   2301839.00045  26111498.8564   26111501.2474
     -1804.9534      -1406.4574
   1523910.99346   1227180.37445  24902456.1304   24902458.1924
     -1422.0164      -1108.0644
  -2585397.76046  -1954413.90446  24461481.9034   24461484.2824
      -241.0944       -187.8654
 98  6 29 20 27 30.0090000  0  8G21G 6G10G30G17G22G26G23
   -196532.61944   -120441.88842  27366700.7784   27366707.1654
       683.5314        532.6224
  11101033.85447   8650157.44247  23085059.8174   23085060.4854
     -3402.0314      -2650.9334
  29784280.66244  23208522.31543  27248509.9664   27248513.4584
     -5961.7664      -4645.5324
  31129227.19144  24145554.30043  27092731.4424   27092739.1694
     -6026.9694      -4696.3394
   5906608.55047   4604952.89647  23522668.6614   23522670.4544
     -1837.6724      -1431.9524
   3002941.73545   2322985.85145  26116663.6924   26116666.7864
     -1813.5474      -1413.1534
   1545305.68846   1243851.59245  24906527.2704   24906528.8884
     -1430.6094      -1114.7614
  -2581736.03446  -1951560.58746  24462178.7314   24462180.7474
      -247.1414       -192.5774
 98  6 29 20 27 45.0090000  0  8G21G 6G10G30G17G22G26G23
   -206771.80644   -128420.36543  27364751.6534   27364759.9664
       681.6884        531.1854
  11152118.44347   8689963.60447  23094781.2864   23094782.1064
     -3409.3124      -2656.6074
  29873709.36945  23278206.97143  27265527.6384   27265532.8414
     -5962.0784      -4645.7754
  31219623.32844  24215992.68943  27109933.9584   27109941.9544
     -6025.8444      -4695.4634
   5934190.49047   4626445.32047  23527917.2394   23527918.9504
     -1839.9224      -1433.7054
   3030207.71945   2344232.09945  26121851.4744   26121854.8724
     -1821.9534      -1419.7044
   1566825.56446   1260620.35045  24910622.6384   24910624.8174
     -1438.7504      -1121.1044
  -2577985.91446  -1948638.38246  24462892.3104   24462894.3374
      -252.9534       -197.1064
 98  6 29 20 28  0.0090000  0  8G21G 6G10G30G17G22G26G23
   -216982.26143   -136376.42142  27362809.0914   27362817.3684
       679.6254        529.5784
  11203317.37247   8729858.87247  23104524.0364   23104525.0324
     -3417.3284      -2662.8534
  29963145.82844  23347897.69143  27282546.6304   27282549.3134
     -5962.9224      -4646.4334
  31310005.53144  24286420.20643  27127132.6614   27127139.7204
     -6025.1724      -4694.9394
   5961807.75347   4647965.26547  23533172.5444   23533174.1384
     -1842.5314      -1435.7394
   3057603.71845   2365579.63245  26127064.9354   26127068.4504
     -1830.9694      -1426.7294
   1588470.82746   1277486.80245  24914741.1614   24914743.4704
     -1447.3914      -1127.8374
  -2574144.77746  -1945645.26346  24463623.0134   24463625.2394
      -259.2034       -201.9764
 98  6 29 20 28 15.0090000  0  8G21G 6G10G30G17G22G26G23
   -227159.12143   -144306.31442  27360873.0284   27360881.2474
       677.2194        527.7034
  11254638.99047   8769849.72947  23114290.2164   23114291.1884
     -3425.6414      -2669.3304
  30052598.85845  23417601.33642  27299569.3254   27299574.0244
     -5964.1094      -4647.3584
  31400380.63044  24356842.21843  27144330.7164   27144337.1964
     -6024.8124      -4694.6594
   5989468.03547   4669518.73747  23538436.0524   23538437.9624
     -1845.5164      -1438.0644
   3085138.88345   2387035.58245  26132304.8644   26132307.8414
     -1840.3914      -1434.0714
   1610247.30046   1294455.50845  24918885.3254   24918887.5634
     -1456.0784      -1134.6064
  -2570209.15246  -1942578.51346  24464372.2864   24464374.2674
      -265.5624       -206.9324
 98  6 29 20 28 30.0090000  0  8G21G 6G10G30G17G22G26G23
   -237300.72643   -152208.70942  27358942.4584   27358950.0444
       675.0944        526.0474
  11306085.64447   8809938.02547  23124080.2004   23124081.1614
     -3433.8914      -2675.7594
  30142066.51144  23487316.33843  27316593.9974   27316598.9774
     -5964.8914      -4647.9674
  31490747.82944  24427258.05642  27161527.5364   27161534.6654
     -6024.1724      -4694.1604
   6017171.87447   4691106.13847  23543707.9974   23543709.6734
     -1848.3284      -1440.2564
   3112813.55845                  26137570.8494
     -1849.4844
   1632150.80346   1311523.19845  24923053.3564   24923055.0094
     -1464.3444      -1141.0474
  -2566179.86346  -1939438.77546  24465139.0054   24465140.8924
      -271.5784       -211.6194
 98  6 29 20 28 45.0090000  0  8G21G 6G10G30G17G22G26G23
   -247412.20943   -160087.70442  27357018.2554   27357024.8884
       673.1414        524.5254
  11357653.83947   8850121.02247  23133893.1304   23133893.9974
     -3441.8754      -2681.9814
  30231543.84444  23557038.87042  27333621.0604   27333625.5954
     -5965.3754      -4648.3444
  31581103.06444  24497664.57842  27178721.6064   27178728.2984
     -6023.1874      -4693.3934
   6044915.79147   4712724.78947  23548987.4194   23548989.1184
     -1850.8284      -1442.2044
   3140620.66245                  26142862.4424
     -1858.1254
   1654176.38046   1328686.01045  24927244.4114   24927246.3924
     -1472.5314      -1147.4274
  -2562063.92346  -1936231.52146  24465922.1224   24465924.3604
      -277.1564       -215.9664
 98  6 29 20 29  0.0090000  0  8G21G 6G10G30G17G22G26G23
   -257489.07343   -167939.64842  27355101.4424   27355106.8924
       670.9384        522.8084
  11409347.88647   8890402.09147  23143730.2084   23143731.1574
     -3450.1414      -2688.4214
  30321034.57544  23626771.90542  27350650.9114   27350654.4274
     -5966.1874      -4648.9774
  31671448.94344  24568063.80143  27195913.5604   27195920.2044
     -6022.3914      -4692.7724
   6072704.48447   4734378.31547  23554275.5134   23554277.2594
     -1853.8754      -1444.5784
   3168562.70245                  26148179.4114
     -1866.9224
   1676333.86646   1345951.60245  24931460.9034   24931463.5404
     -1481.2974      -1154.2574
  -2557859.46946  -1932955.29846  24466722.2164   24466724.4544
      -282.8754       -220.4224
 98  6 29 20 29 15.0090000  0  8G21G 6G10G30G17G22G26G23
   -267535.33944   -175767.80742  27353189.4274   27353195.3924
       668.5004        520.9094
  11461160.42447   8930775.48947  23153589.9354   23153590.7784
     -3458.2664      -2694.7524
  30410532.17643  23696510.28342  27367681.0994   27367685.0014
     -5966.9374      -4649.5624
  31761777.51244  24638449.55343  27213102.9354   27213111.0364
     -6021.5004      -4692.0784
   6100536.16047   4756065.33847  23559571.7314   23559573.4194
     -1857.1564      -1447.1354
   3196630.31345                  26153520.6774
     -1875.5004
   1698619.97846   1363317.42045  24935701.9194   24935703.8524
     -1490.3444      -1161.3074
  -2553574.40446  -1929616.26046  24467537.2314   24467539.5054
      -288.5474       -224.8424
 98  6 29 20 29 30.0090000  0  8G21G 6G10G30G17G22G26G23
   -277552.56044   -183573.22842  27351282.2244   27351288.8564
       667.2664        519.9474
  11513087.20347   8971237.90747  23163471.2704   23163472.1964
     -3465.2504      -2700.1954
  30500033.48644  23766251.47043  27384713.5674   27384718.7944
     -5966.4694      -4649.1964
  31852085.12644  24708818.94343  27230287.8884   27230296.1654
     -6019.3754      -4690.4224
   6128411.21747   4777786.16847  23564876.0444   23564877.5914
     -1859.4064      -1448.8884
   3224818.53045                  26158885.0284
     -1882.8444
   1721034.02546   1380782.92945  24939966.8644   24939969.2434
     -1498.0944      -1167.3464
  -2549212.14646  -1926217.06746  24468367.5994   24468369.6854
      -293.0624       -228.3604
 98  6 29 20 29 45.0090000  0  8G21G 6G10G30G17G22G26G23
   -287548.57444   -191362.24042  27349379.4274   27349386.3924
       665.1254        518.2794
  11565123.70447   9011785.82047  23173373.3644   23173374.1854
     -3473.2814      -2706.4534
  30589530.66645  23835989.52943  27401743.5284   27401747.5364
     -5966.8444      -4649.4894
  31942364.05144  24779166.00643  27247466.8414   27247475.8684
     -6018.2034      -4689.5094
   6156322.76147   4799535.42147  23570187.5204   23570189.0674
     -1862.4374      -1451.2504
   3253119.72345      5887.80455  26164270.4584   26164272.8254
     -1890.9694      -1473.4824
   1743567.57746   1398341.56045  24944254.7944   24944257.1964
     -1506.7034      -1174.0544
  -2544775.58046  -1922759.97646  24469211.6064   24469213.9034
      -298.8594       -232.8774
 98  6 29 20 30  0.0090000  0  8G21G 6G10G30G17G22G26G23
   -297511.34444   -199125.30643  27347484.4194   27347490.5714
       663.1254        516.7214
  11617281.14647   9052427.97347  23183298.5994   23183299.4314
     -3481.0944      -2712.5414
  30679034.92044  23905733.01542  27418775.8804   27418781.0954
     -5967.1414      -4649.7204
  32032626.97744  24849500.59043  27264644.9354   27264652.0404
     -6016.9844      -4688.5594
   6184281.95947   4821321.81247  23575507.9354   23575509.5754
     -1865.6254      -1453.7344
   3281544.83745     28037.23345  26169679.9034   26169682.9854
     -1899.2034      -1479.8994
   1766231.75246   1416001.97745  24948567.7244   24948569.6344
     -1515.3284      -1180.7754
  -2540249.33346  -1919233.00246  24470073.1924   24470075.3024
      -304.7814       -237.4924
 98  6 29 20 30 15.0090000  0  8G21G 6G10G30G17G22G26G23
   -307443.75644   -206864.72942  27345594.6614   27345601.2704
       661.2664        515.2724
  11669552.93447   9093159.22547  23193245.7704   23193246.6384
     -3488.3594      -2718.2024
  30768541.44944  23975478.35842  27435808.8884   27435812.4624
     -5966.9844      -4649.5984
  32122871.84645  24919821.10843  27281818.2164   27281825.6024
     -6015.6094      -4687.4884
   6212290.06447   4843146.31047  23580837.8564   23580839.4854
     -1868.7974      -1456.2054
   3310092.20545     50281.93945  26175111.8334   26175114.4584
     -1907.0314      -1485.9984
   1789024.48046   1433762.57345  24952904.9974   24952906.7904
     -1523.6874      -1187.2894
  -2535635.54946  -1915637.82146  24470950.9584   24470953.0324
      -310.2974       -241.7904
